[[{"header":{"parameterUnit":"m.s-1","parameterCategory":1,"la1":30.6,"la2":28.766,"lo1":-90.7593,"lo2":-88.6598,"dy":0.0162,"dx":0.0183,"nx":116,"ny":114,"refTime":"2023-04-19T06:00:00:Z","depth":0,"parameterNumber":2,"parameterNumberName":"U-component_of_WINDS"},"data":[0.0,0.0,0.0,0.0,0.0,0.0,0.0,0.0,0.0,0.0,0.0,0.0,0.0,0.0,0.0,0.0,0.0,0.0,0.0,0.0,0.0,0.0,0.0,0.0,0.0,0.0,0.0,0.0,0.0,0.0,0.0,0.0,0.0,0.0,0.0,0.0,0.0,0.0,0.0,0.0,0.0,0.0,0.0,0.0,0.0,0.0,0.0,0.0,0.0,0.0,0.0,0.0,0.0,0.0,0.0,0.0,0.0,0.0,0.0,0.0,0.0,0.0,0.0,0.0,0.0,0.0,0.0,0.0,0.0,0.0,0.0,0.0,0.0,0.0,0.0,0.0,0.0,0.0,0.0,0.0,0.0,0.0,0.0,0.0,0.0,0.0,0.0,0.0,0.0,0.0,0.0,0.0,0.0,0.0,0.0,0.0,0.0,0.0,0.0,0.0,0.0,0.0,0.0,0.0,0.0,0.0,0.0,0.0,0.0,0.0,0.0,0.0,0.0,0.0,0.0,0.0,0.0,0.0,0.0,0.0,0.0,0.0,0.0,0.0,0.0,0.0,0.0,0.0,0.0,0.0,0.0,0.0,0.0,0.0,0.0,0.0,0.0,0.0,0.0,0.0,0.0,0.0,0.0,0.0,0.0,0.0,0.0,0.0,0.0,0.0,0.0,0.0,0.0,0.0,0.0,0.0,0.0,0.0,0.0,0.0,0.0,0.0,0.0,0.0,0.0,0.0,0.0,0.0,0.0,0.0,0.0,0.0,0.0,0.0,0.0,0.0,0.0,0.0,0.0,0.0,0.0,0.0,0.0,0.0,0.0,0.0,0.0,0.0,0.0,0.0,0.0,0.0,0.0,0.0,0.0,0.0,0.0,0.0,0.0,0.0,0.0,0.0,0.0,0.0,0.0,0.0,0.0,0.0,0.0,0.0,0.0,0.0,0.0,0.0,0.0,0.0,0.0,0.0,0.0,0.0,0.0,0.0,0.0,0.0,0.0,0.0,0.0,0.0,0.0,0.0,0.0,0.0,0.0,0.0,0.0,0.0,0.0,0.0,0.0,0.0,0.0,0.0,0.0,0.0,0.0,0.0,0.0,0.0,0.0,0.0,0.0,0.0,0.0,0.0,0.0,0.0,0.0,0.0,0.0,0.0,0.0,0.0,0.0,0.0,0.0,0.0,0.0,0.0,0.0,0.0,0.0,0.0,0.0,0.0,0.0,0.0,0.0,0.0,0.0,0.0,0.0,0.0,0.0,0.0,0.0,0.0,0.0,0.0,0.0,0.0,0.0,0.0,0.0,0.0,0.0,0.0,0.0,0.0,0.0,0.0,0.0,0.0,0.0,0.0,0.0,0.0,0.0,0.0,0.0,0.0,0.0,0.0,0.0,0.0,0.0,0.0,0.0,0.0,0.0,0.0,0.0,0.0,0.0,0.0,0.0,0.0,0.0,0.0,0.0,0.0,0.0,0.0,0.0,0.0,0.0,0.0,0.0,0.0,0.0,0.0,0.0,0.0,0.0,0.0,0.0,0.0,0.0,0.0,0.0,0.0,0.0,0.0,0.0,0.0,0.0,0.0,0.0,0.0,0.0,0.0,0.0,0.0,0.0,0.0,0.0,0.0,0.0,0.0,0.0,0.0,0.0,0.0,0.0,0.0,0.0,0.0,0.0,0.0,0.0,0.0,0.0,0.0,0.0,0.0,0.0,0.0,0.0,0.0,0.0,0.0,0.0,0.0,0.0,0.0,0.0,0.0,0.0,0.0,0.0,0.0,0.0,0.0,0.0,0.0,0.0,0.0,0.0,0.0,0.0,0.0,0.0,0.0,0.0,0.0,0.0,0.0,0.0,0.0,0.0,0.0,0.0,0.0,0.0,0.0,0.0,0.0,0.0,0.0,0.0,0.0,0.0,0.0,0.0,0.0,0.0,0.0,0.0,0.0,0.0,0.0,0.0,0.0,0.0,0.0,0.0,0.0,0.0,0.0,0.0,0.0,0.0,0.0,0.0,0.0,0.0,0.0,0.0,0.0,0.0,0.0,0.0,0.0,0.0,0.0,0.0,0.0,0.0,0.0,0.0,0.0,0.0,0.0,0.0,0.0,0.0,0.0,0.0,0.0,0.0,0.0,0.0,0.0,0.0,0.0,0.0,0.0,0.0,0.0,0.0,0.0,0.0,0.0,0.0,0.0,0.0,0.0,0.0,0.0,0.0,0.0,0.0,0.0,0.0,0.0,0.0,0.0,0.0,0.0,0.0,0.0,0.0,0.0,0.0,0.0,0.0,0.0,0.0,0.0,0.0,0.0,0.0,0.0,0.0,0.0,0.0,0.0,0.0,0.0,0.0,0.0,0.0,0.0,0.0,0.0,0.0,0.0,0.0,0.0,0.0,0.0,0.0,0.0,0.0,0.0,0.0,0.0,0.0,0.0,0.0,0.0,0.0,0.0,0.0,0.0,0.0,0.0,0.0,0.0,0.0,0.0,0.0,0.0,0.0,0.0,0.0,0.0,0.0,0.0,0.0,0.0,0.0,0.0,0.0,0.0,0.0,0.0,0.0,0.0,0.0,0.0,0.0,0.0,0.0,0.0,0.0,0.0,0.0,0.0,0.0,0.0,0.0,0.0,0.0,0.0,0.0,0.0,0.0,0.0,0.0,0.0,0.0,0.0,0.0,0.0,0.0,0.0,0.0,0.0,0.0,0.0,0.0,0.0,0.0,0.0,0.0,0.0,0.0,0.0,0.0,0.0,0.0,0.0,0.0,0.0,0.0,0.0,0.0,0.0,0.0,0.0,0.0,0.0,0.0,0.0,0.0,0.0,0.0,0.0,0.0,0.0,0.0,0.0,0.0,0.0,0.0,0.0,0.0,0.0,0.0,0.0,0.0,0.0,0.0,0.0,0.0,0.0,0.0,0.0,0.0,0.0,0.0,0.0,0.0,0.0,0.0,0.0,0.0,0.0,0.0,0.0,0.0,0.0,0.0,0.0,0.0,0.0,0.0,0.0,0.0,0.0,0.0,0.0,0.0,0.0,0.0,0.0,0.0,0.0,0.0,0.0,0.0,0.0,0.0,0.0,0.0,0.0,0.0,0.0,0.0,0.0,0.0,0.0,0.0,0.0,0.0,0.0,0.0,0.0,0.0,0.0,0.0,0.0,0.0,0.0,0.0,0.0,0.0,0.0,0.0,0.0,0.0,0.0,0.0,0.0,0.0,0.0,0.0,0.0,0.0,0.0,0.0,0.0,0.0,0.0,0.0,0.0,0.0,0.0,0.0,0.0,0.0,0.0,0.0,0.0,0.0,0.0,0.0,0.0,0.0,0.0,0.0,0.0,0.0,0.0,0.0,0.0,0.0,0.0,0.0,0.0,0.0,0.0,0.0,0.0,0.0,0.0,0.0,0.0,0.0,0.0,0.0,0.0,0.0,0.0,0.0,0.0,0.0,0.0,0.0,0.0,0.0,0.0,0.0,0.0,0.0,0.0,0.0,0.0,0.0,0.0,0.0,0.0,0.0,0.0,0.0,0.0,0.0,0.0,0.0,0.0,0.0,0.0,0.0,0.0,0.0,0.0,0.0,0.0,0.0,0.0,0.0,0.0,0.0,0.0,0.0,0.0,0.0,0.0,0.0,0.0,0.0,0.0,0.0,0.0,0.0,0.0,0.0,0.0,0.0,0.0,0.0,0.0,0.0,0.0,0.0,0.0,0.0,0.0,0.0,0.0,0.0,0.0,0.0,0.0,0.0,0.0,0.0,0.0,0.0,0.0,0.0,0.0,0.0,0.0,0.0,0.0,0.0,0.0,0.0,0.0,0.0,0.0,0.0,0.0,0.0,0.0,0.0,0.0,0.0,0.0,0.0,0.0,0.0,0.0,0.0,0.0,0.0,0.0,0.0,0.0,0.0,0.0,0.0,0.0,0.0,0.0,0.0,0.0,0.0,0.0,0.0,0.0,0.0,0.0,0.0,0.0,0.0,0.0,0.0,0.0,0.0,0.0,0.0,0.0,0.0,0.0,0.0,0.0,0.0,0.0,0.0,0.0,0.0,0.0,0.0,0.0,0.0,0.0,0.0,0.0,0.0,0.0,0.0,0.0,0.0,0.0,0.0,0.0,0.0,0.0,0.0,0.0,0.0,0.0,0.0,0.0,0.0,0.0,0.0,0.0,0.0,0.0,0.0,0.0,0.0,0.0,0.0,0.0,0.0,0.0,0.0,0.0,0.0,0.0,0.0,0.0,0.0,0.0,0.0,0.0,0.0,0.0,0.0,0.0,0.0,0.0,0.0,0.0,0.0,0.0,0.0,0.0,0.0,0.0,0.0,0.0,0.0,0.0,0.0,0.0,0.0,0.0,0.0,0.0,0.0,0.0,0.0,0.0,0.0,0.0,0.0,0.0,0.0,0.0,0.0,0.0,0.0,0.0,0.0,0.0,0.0,0.0,0.0,0.0,0.0,0.0,0.0,0.0,0.0,0.0,0.0,0.0,0.0,0.0,0.0,0.0,0.0,0.0,0.0,0.0,0.0,0.0,0.0,0.0,0.0,0.0,0.0,0.0,0.0,0.0,0.0,0.0,0.0,0.0,0.0,0.0,0.0,0.0,0.0,0.0,0.0,0.0,0.0,0.0,0.0,0.0,0.0,0.0,0.0,0.0,0.0,0.0,0.0,0.0,0.0,0.0,0.0,0.0,0.0,0.0,0.0,0.0,0.0,0.0,0.0,0.0,0.0,0.0,0.0,0.0,0.0,0.0,0.0,0.0,0.0,0.0,0.0,0.0,0.0,0.0,0.0,0.0,0.0,0.0,0.0,0.0,0.0,0.0,0.0,0.0,0.0,0.0,0.0,0.0,0.0,0.0,0.0,0.0,0.0,0.0,0.0,0.0,0.0,0.0,0.0,0.0,0.0,0.0,0.0,0.0,0.0,0.0,0.0,0.0,0.0,0.0,0.0,0.0,0.0,0.0,0.0,0.0,0.0,0.0,0.0,0.0,0.0,0.0,0.0,0.0,0.0,0.0,0.0,0.0,0.0,0.0,0.0,0.0,0.0,0.0,0.0,0.0,0.0,0.0,0.0,0.0,0.0,0.0,0.0,0.0,0.0,0.0,0.0,0.0,0.0,0.0,0.0,0.0,0.0,0.0,0.0,0.0,0.0,0.0,0.0,0.0,0.0,0.0,0.0,0.0,0.0,0.0,0.0,0.0,0.0,0.0,0.0,0.0,0.0,0.0,0.0,0.0,0.0,0.0,0.0,0.0,0.0,0.0,0.0,0.0,0.0,0.0,0.0,0.0,0.0,0.0,0.0,0.0,0.0,0.0,0.0,0.0,0.0,0.0,0.0,0.0,0.0,0.0,0.0,0.0,0.0,0.0,0.0,0.0,0.0,0.0,0.0,0.0,0.0,0.0,0.0,0.0,0.0,0.0,0.0,0.0,0.0,0.0,0.0,0.0,0.0,0.0,0.0,0.0,0.0,0.0,0.0,0.0,0.0,0.0,0.0,0.0,0.0,0.0,0.0,0.0,0.0,0.0,0.0,0.0,0.0,0.0,0.0,0.0,0.0,0.0,0.0,0.0,0.0,0.0,0.0,0.0,0.0,0.0,0.0,0.0,0.0,0.0,0.0,0.0,0.0,0.0,0.0,0.0,0.0,0.0,0.0,0.0,0.0,0.0,0.0,0.0,0.0,0.0,0.0,0.0,0.0,0.0,0.0,0.0,0.0,0.0,0.0,0.0,0.0,0.0,0.0,0.0,0.0,0.0,0.0,0.0,0.0,0.0,0.0,0.0,0.0,0.0,0.0,0.0,0.0,0.0,0.0,0.0,0.0,0.0,0.0,0.0,0.0,0.0,0.0,0.0,0.0,0.0,0.0,0.0,0.0,0.0,0.0,0.0,0.0,0.0,0.0,0.0,0.0,0.0,0.0,0.0,0.0,0.0,0.0,0.0,0.0,0.0,0.0,0.0,0.0,0.0,0.0,0.0,0.0,0.0,0.0,0.0,0.0,0.0,0.0,0.0,0.0,0.0,0.0,0.0,0.0,0.0,0.0,0.0,0.0,0.0,0.0,0.0,0.0,0.0,0.0,0.0,0.0,0.0,0.0,0.0,0.0,0.0,-4.1057,0.0,0.0,0.0,0.0,0.0,0.0,0.0,0.0,0.0,0.0,0.0,0.0,0.0,0.0,0.0,0.0,0.0,0.0,0.0,0.0,0.0,0.0,0.0,0.0,0.0,0.0,0.0,0.0,0.0,0.0,0.0,0.0,0.0,0.0,0.0,0.0,0.0,0.0,-3.9603,-3.923,-3.9169,-3.9496,-4.0124,-4.1028,-4.2104,0.0,0.0,0.0,0.0,0.0,0.0,0.0,0.0,0.0,0.0,0.0,0.0,0.0,0.0,0.0,0.0,0.0,0.0,0.0,0.0,0.0,0.0,0.0,0.0,0.0,0.0,0.0,0.0,0.0,0.0,0.0,0.0,0.0,0.0,0.0,0.0,0.0,0.0,0.0,0.0,0.0,0.0,0.0,0.0,0.0,0.0,0.0,0.0,0.0,0.0,0.0,0.0,0.0,0.0,0.0,0.0,0.0,0.0,0.0,0.0,0.0,0.0,0.0,0.0,0.0,0.0,0.0,0.0,0.0,0.0,0.0,-4.0752,0.0,0.0,0.0,0.0,0.0,0.0,0.0,0.0,0.0,0.0,0.0,0.0,0.0,0.0,0.0,0.0,0.0,0.0,0.0,0.0,0.0,0.0,0.0,0.0,-4.1175,-4.311,-4.0953,-3.9508,0.0,0.0,0.0,0.0,0.0,0.0,0.0,-3.6864,-3.7072,-3.8316,-3.687,-3.6466,-3.7086,-3.8355,-3.9932,-4.1746,-4.2609,0.0,0.0,0.0,0.0,0.0,0.0,0.0,0.0,0.0,0.0,0.0,0.0,0.0,0.0,0.0,0.0,0.0,0.0,0.0,0.0,0.0,0.0,0.0,0.0,0.0,0.0,0.0,0.0,0.0,0.0,0.0,0.0,0.0,0.0,0.0,0.0,0.0,0.0,0.0,0.0,0.0,0.0,0.0,0.0,0.0,0.0,0.0,0.0,0.0,0.0,0.0,0.0,0.0,0.0,0.0,0.0,0.0,0.0,0.0,0.0,0.0,0.0,0.0,-4.0559,-4.0336,-4.0721,-4.0127,-3.9574,-3.9115,-4.0317,-4.0754,-4.0596,0.0,0.0,0.0,0.0,0.0,0.0,0.0,0.0,0.0,0.0,0.0,0.0,0.0,0.0,0.0,0.0,0.0,0.0,0.0,0.0,0.0,0.0,-4.0786,-4.1175,-4.311,-4.0631,-3.8977,0.0,0.0,0.0,0.0,0.0,0.0,-3.6515,-3.6819,-3.7062,-3.722,-3.7815,-3.8395,-3.897,-3.9054,-3.9916,-4.1423,-4.1411,-4.2358,-4.39,0.0,0.0,0.0,0.0,0.0,0.0,0.0,0.0,0.0,0.0,0.0,0.0,0.0,0.0,0.0,0.0,0.0,0.0,0.0,0.0,0.0,0.0,0.0,0.0,0.0,0.0,0.0,0.0,0.0,0.0,0.0,0.0,0.0,0.0,0.0,0.0,0.0,0.0,0.0,0.0,0.0,-4.21,-4.1521,0.0,0.0,0.0,0.0,0.0,0.0,0.0,0.0,0.0,0.0,0.0,0.0,0.0,-3.9743,-3.9753,-4.066,-4.1056,-4.0949,-4.1723,-4.1805,-4.1095,-4.1004,-4.0703,-4.0188,-4.0393,0.0,-3.9636,-4.0219,0.0,0.0,0.0,0.0,0.0,0.0,0.0,0.0,0.0,0.0,0.0,0.0,0.0,0.0,0.0,0.0,0.0,0.0,0.0,0.0,0.0,-4.1595,-4.2248,-4.3748,-4.3202,-4.1867,-3.9698,-3.9301,0.0,0.0,0.0,-3.5965,-3.6288,-3.5265,-3.49,-3.5157,-3.6116,-3.6895,-3.7467,-3.8292,-3.9002,-3.964,-4.0207,-4.1472,-4.3099,-4.317,0.0,0.0,0.0,0.0,0.0,0.0,0.0,0.0,0.0,0.0,0.0,0.0,0.0,0.0,0.0,0.0,0.0,0.0,0.0,0.0,0.0,0.0,0.0,0.0,0.0,0.0,0.0,0.0,0.0,0.0,0.0,0.0,0.0,0.0,0.0,0.0,0.0,0.0,0.0,-4.1031,-4.1846,-4.0182,-4.0513,-3.9789,0.0,0.0,0.0,0.0,0.0,0.0,0.0,0.0,0.0,-3.955,-4.0381,-4.0908,-4.1078,-4.2018,-4.2401,-4.2233,-4.2955,-4.2968,-4.2281,-4.1362,-4.0644,-4.0148,-3.9301,-3.8883,-3.8876,-3.9346,-3.9368,-3.9036,0.0,0.0,0.0,0.0,0.0,-3.7282,0.0,0.0,0.0,0.0,0.0,0.0,0.0,0.0,0.0,0.0,0.0,0.0,-4.2161,-4.2771,-4.3687,-4.5068,-4.5357,-4.4077,-4.0789,-4.0686,0.0,0.0,-3.5402,-3.5303,-3.569,-3.3848,-3.3356,-3.424,-3.5122,-3.5882,-3.6504,-3.79,-3.8732,-3.9052,-3.9946,-4.1191,-4.261,-4.2641,-4.2318,-4.175,0.0,0.0,0.0,0.0,0.0,0.0,0.0,0.0,0.0,0.0,0.0,0.0,0.0,0.0,0.0,0.0,0.0,0.0,0.0,0.0,0.0,0.0,0.0,0.0,0.0,0.0,0.0,0.0,0.0,0.0,0.0,0.0,0.0,0.0,0.0,0.0,0.0,-4.12,-4.1608,-3.9188,-4.0579,-4.0421,0.0,0.0,0.0,0.0,0.0,0.0,-3.7762,-3.8257,-3.8933,-3.9757,-4.0789,-4.1444,-4.1808,-4.2452,-4.268,-4.2563,-4.2938,-4.28,-4.2181,-4.0862,-3.9946,-3.9387,-3.8208,-3.7866,-3.8144,-3.8115,-3.819,-3.8089,-3.6836,-3.6039,-3.5633,-3.6016,-3.6071,-3.6007,0.0,0.0,0.0,0.0,0.0,0.0,0.0,0.0,0.0,0.0,0.0,-4.19,-4.3723,-4.4246,-4.5333,-4.7365,-4.547,-4.3589,-4.2167,-4.023,-3.8421,-3.6803,-3.6232,-3.5346,-3.4055,-3.3274,-3.376,-3.5606,-3.6196,-3.6878,-3.7851,-3.8725,-3.9958,-4.1317,-4.1296,-4.2145,-4.3537,-4.0809,-4.1395,-4.3913,-4.1027,0.0,0.0,0.0,0.0,0.0,0.0,0.0,0.0,0.0,0.0,0.0,0.0,0.0,0.0,0.0,0.0,0.0,0.0,0.0,0.0,0.0,0.0,0.0,0.0,0.0,0.0,0.0,0.0,0.0,0.0,0.0,0.0,0.0,0.0,0.0,0.0,0.0,0.0,-3.9436,-4.1568,0.0,0.0,0.0,0.0,-3.7215,-3.7457,-3.7653,-3.7552,-3.8007,-3.8404,-3.8828,-3.9711,-4.0311,-4.0701,-4.0897,-4.0836,-4.0545,-4.0743,-4.0401,-3.9555,-3.9073,-3.8507,-3.7964,-3.7505,-3.7347,-3.7298,-3.6581,-3.6477,-3.6518,-3.4782,-3.3785,-3.3343,-3.3365,-3.3967,-3.4699,0.0,0.0,0.0,0.0,0.0,0.0,0.0,0.0,-4.0505,-4.0436,-4.1822,-4.3315,-4.4678,-4.6519,-4.8147,-4.9446,-4.9149,-4.7356,-4.3722,-4.2415,-4.0267,-3.6951,-3.492,-3.3518,-3.2685,-3.3152,-3.4288,-3.6062,-3.6694,-3.744,-3.8359,-3.8652,-3.922,-3.9991,-3.9991,-4.1008,-4.2635,-4.1484,-4.113,-4.1278,-4.021,-4.0078,0.0,0.0,0.0,0.0,0.0,0.0,0.0,0.0,0.0,0.0,0.0,0.0,0.0,0.0,0.0,0.0,0.0,0.0,0.0,0.0,0.0,0.0,0.0,0.0,0.0,0.0,0.0,0.0,0.0,0.0,0.0,0.0,0.0,0.0,0.0,0.0,0.0,-4.0952,-4.2863,0.0,-3.8517,-3.8824,-3.8747,-3.7498,-3.8154,-3.8768,-3.9015,-3.927,-3.966,-4.0271,-4.0639,-4.1045,-4.1633,-4.1668,-4.1443,-4.0934,-4.0985,-4.0487,-3.9407,-3.8061,-3.7213,-3.6748,-3.5376,-3.5438,-3.6316,-3.5187,-3.5274,-3.606,-3.5043,-3.4637,-3.4668,-3.5007,-3.5633,-3.637,0.0,0.0,0.0,0.0,0.0,0.0,0.0,0.0,-4.0566,-4.0812,-4.2663,-4.4472,-4.5914,-4.8619,-5.0554,-5.1122,-5.1515,-4.9846,-4.5452,-4.3902,-4.1562,-3.793,-3.4848,-3.3135,-3.2937,-3.3517,-3.4716,-3.6481,-3.714,-3.7806,-3.8577,-3.8725,-3.8926,-3.9219,-3.9512,-4.0306,-4.1333,-4.1334,-4.0952,-4.0234,-3.9309,-3.9768,-4.0769,0.0,0.0,0.0,0.0,0.0,0.0,0.0,0.0,0.0,0.0,0.0,0.0,0.0,0.0,0.0,0.0,0.0,0.0,0.0,0.0,0.0,0.0,0.0,0.0,0.0,0.0,0.0,0.0,0.0,0.0,0.0,0.0,0.0,0.0,0.0,-4.2493,-4.1219,-4.3089,-4.302,-3.9478,-3.9931,-4.0107,-3.9087,-3.9236,-3.9531,-3.9747,-3.9414,-3.9332,-3.9518,-3.9714,-4.004,-4.0472,-4.0343,-4.0083,-3.9627,-3.9346,-3.8872,-3.8055,-3.6591,-3.5776,-3.5407,-3.4037,-3.4027,-3.5025,-3.411,-3.4064,-3.4639,-3.4403,-3.414,-3.3933,-3.4282,-3.5074,-3.6057,0.0,0.0,0.0,0.0,0.0,0.0,0.0,-3.9644,-4.0751,-4.1494,-4.3371,-4.5403,-4.7404,-5.0437,-5.2322,-5.2337,-5.2109,-5.0607,-4.7326,-4.4451,-4.1915,-3.9669,-3.6137,-3.4364,-3.4703,-3.4365,-3.5126,-3.6856,-3.7517,-3.8045,-3.8521,-3.8989,-3.918,-3.9238,-4.0098,-4.0273,-3.9922,-4.0332,-4.0785,-4.1029,-3.8312,-3.9002,-4.1392,0.0,0.0,0.0,0.0,0.0,0.0,0.0,0.0,0.0,0.0,0.0,0.0,0.0,0.0,0.0,0.0,0.0,0.0,0.0,0.0,0.0,0.0,0.0,0.0,0.0,0.0,0.0,0.0,0.0,0.0,0.0,0.0,0.0,-3.9526,-4.1188,-4.1765,-4.0281,-4.2171,-4.251,-3.9926,-4.1185,-4.2055,-4.1917,-4.0738,-3.9783,-3.9419,-3.8357,-3.7401,-3.6598,-3.6897,-3.7099,-3.7099,-3.6722,-3.6499,-3.6499,-3.5768,-3.5371,-3.5332,-3.4473,-3.4062,-3.4023,-3.3613,-3.3418,-3.3398,-3.3398,-3.291,-3.2209,-3.2592,-3.1999,-3.0918,-3.0918,-3.2071,-3.3704,0.0,0.0,0.0,0.0,0.0,0.0,0.0,-3.9951,-4.0751,-4.1494,-4.4202,-4.6634,-4.8173,-5.1318,-5.3254,-5.307,-5.2063,-5.0321,-4.7507,-4.4165,-4.0714,-3.7096,-3.5491,-3.4888,-3.53,-3.4829,-3.5232,-3.6367,-3.7206,-3.7912,-3.8417,-3.862,-3.905,-3.9589,-3.9602,-3.9687,-3.9902,-4.0019,-4.0156,-4.0177,-3.9044,-3.9351,-4.0373,0.0,0.0,0.0,0.0,0.0,0.0,0.0,0.0,0.0,0.0,0.0,0.0,0.0,0.0,0.0,0.0,0.0,0.0,0.0,0.0,0.0,0.0,0.0,0.0,0.0,0.0,0.0,0.0,0.0,0.0,0.0,-3.7892,-3.9145,-4.0565,-4.1384,-4.2171,-4.3054,-4.367,-4.3501,-4.2165,-4.2042,-4.1628,-4.0572,-3.9812,-3.9354,-3.9255,-3.8373,-3.7921,-3.7966,-3.7421,-3.7288,-3.7541,-3.6784,-3.633,-3.6043,-3.5561,-3.5008,-3.4434,-3.418,-3.3906,-3.3594,-3.3476,-3.3368,-3.3342,-3.3342,-3.2828,-3.2078,-3.2293,-3.2077,-3.1717,-3.1717,-3.2411,-3.3168,0.0,0.0,0.0,0.0,0.0,0.0,0.0,-4.0074,-4.097,-4.2263,-4.4603,-4.6788,-4.8419,-5.0913,-5.2239,-5.1829,-5.0787,-4.9139,-4.6693,-4.352,-4.06,-3.7918,-3.7245,-3.69,-3.6772,-3.6814,-3.6785,-3.6625,-3.7626,-3.8099,-3.8089,-3.8117,-3.8635,-3.9493,-3.9453,-3.9569,-3.9853,-4.003,-4.0033,-3.986,-3.9353,-4.0009,-4.107,-3.8807,-3.9406,-4.1294,-3.9787,-4.0844,-4.2749,-4.1492,0.0,0.0,0.0,0.0,0.0,0.0,0.0,0.0,0.0,0.0,0.0,0.0,0.0,0.0,0.0,0.0,0.0,0.0,0.0,0.0,0.0,0.0,0.0,0.0,-3.8744,-3.9537,-4.1281,-4.1671,-4.2259,-4.3443,-4.3268,-4.2774,-4.2252,-4.1736,-4.1098,-4.0232,-3.957,-3.9121,-3.8945,-3.8301,-3.7845,-3.7775,-3.7282,-3.6976,-3.6984,-3.6308,-3.5904,-3.5685,-3.5074,-3.4575,-3.4062,-3.3887,-3.3672,0.0,-3.3418,-3.3309,-3.3102,-3.3102,-3.259,0.0,0.0,0.0,0.0,0.0,-3.1873,-3.1945,0.0,0.0,0.0,0.0,0.0,0.0,0.0,-4.0166,-4.137,-4.3439,-4.4887,-4.6419,-4.8296,-4.9828,-5.0395,-4.9623,-4.912,-4.7926,-4.5651,-4.313,-4.1456,-4.0801,-4.0336,-3.9776,-3.9019,-3.9569,-3.9075,-3.7489,-3.8287,-3.8377,-3.7822,-3.7733,-3.8185,-3.9161,-3.9493,-3.9698,-3.9824,-4.0147,-4.0121,-3.986,-3.9391,-4.0504,-4.2192,-3.9032,-3.9804,-4.2193,-4.0147,-4.0378,-4.1529,-4.1283,0.0,0.0,0.0,0.0,0.0,0.0,0.0,0.0,0.0,0.0,0.0,0.0,0.0,0.0,0.0,0.0,0.0,0.0,0.0,0.0,0.0,0.0,0.0,0.0,-3.983,-3.9698,-4.1527,-4.1908,-4.2071,-4.2461,-4.1745,-4.1172,-4.1172,-4.082,-4.0586,-4.0527,-3.9746,-3.9101,-3.8672,0.0,0.0,0.0,0.0,-3.6543,-3.6094,-3.5566,-3.5312,-3.5312,-3.4414,-3.4004,-3.3984,-3.3594,-3.3418,-3.3418,-3.3418,-3.3184,-3.2793,-3.2793,-3.2285,-3.1504,-3.1702,-3.1348,-3.076,-3.0883,-3.0709,0.0,0.0,0.0,0.0,0.0,0.0,0.0,0.0,-4.094,-4.2109,-4.4148,-4.5557,-4.6757,-4.7681,-4.9583,-5.0263,-4.8977,-4.9928,-4.9511,-4.7015,-4.5239,-4.392,-4.3206,-4.2801,-4.2245,-4.1514,-4.1207,-4.0415,-3.9216,-3.8515,-3.8458,-3.9002,-3.8046,-3.8295,-3.9495,-3.9293,-3.9361,-3.971,-3.979,-3.9832,-3.9761,-3.94,-3.9519,-3.9781,-3.8853,-3.9535,-4.098,-4.0097,-4.147,-4.3438,-4.1746,-4.164,-4.2079,-4.1656,-4.0981,0.0,0.0,0.0,0.0,0.0,0.0,0.0,0.0,0.0,0.0,0.0,0.0,0.0,0.0,0.0,0.0,0.0,0.0,0.0,-3.8524,-3.8777,-3.9175,-4.0574,-4.1144,-4.1401,-4.148,-4.1346,-4.1172,-4.1172,-4.1094,-4.0898,-4.0547,-4.0039,-3.957,-3.9101,-3.8672,-3.8203,-3.7695,-3.7344,-3.6973,-3.6543,-3.541,-3.4824,-3.4824,0.0,0.0,-3.3535,-3.3457,-3.3418,-3.3418,-3.3418,-3.3184,-3.2793,-3.2793,-3.2285,-3.1445,-3.0781,-3.0252,-2.9822,-2.9439,-2.9095,-2.872,0.0,0.0,0.0,0.0,0.0,0.0,0.0,-4.1648,-4.2839,-4.4886,-4.5734,-4.666,-4.8047,-4.8517,-4.8456,-4.7759,-4.7806,-4.773,-4.7561,-4.6811,-4.6594,-4.7087,-4.6586,-4.5846,-4.4875,-4.444,-4.319,-4.1023,-4.0582,-4.0167,-3.9645,-3.8616,-3.8774,-3.9846,-3.9433,-3.9414,-3.9678,-3.9678,-3.9726,-3.9725,-3.9306,-3.9169,-3.916,-3.8725,-3.9267,-4.0285,-3.9991,-4.1316,-4.3043,-4.1989,-4.2214,-4.2769,-4.1883,-4.1077,-4.019,0.0,0.0,0.0,0.0,0.0,0.0,0.0,0.0,0.0,0.0,0.0,0.0,0.0,0.0,-3.7103,-3.7245,0.0,-3.7545,-3.9212,-3.9365,-3.9531,-4.041,-4.0898,-4.1172,-4.1172,-4.1172,-4.1172,-4.1172,-4.1172,-4.0898,-4.0254,-4.0019,-3.9609,-3.8926,-3.8476,-3.8047,-3.7617,-3.7207,-3.668,-3.6035,-3.5137,-3.459,-3.4375,-3.373,-3.3418,-3.3418,-3.3418,-3.3418,-3.3418,-3.3418,-3.3184,-3.2754,-3.2324,-3.1777,-3.1133,-3.0469,-2.9941,-2.9512,-2.9082,-2.8652,-2.8301,0.0,0.0,0.0,0.0,0.0,0.0,0.0,-4.2397,-4.3531,-4.5624,-4.5995,-4.6702,-4.8236,-4.751,-4.6902,-4.6941,-4.5963,-4.6159,-4.8174,-4.8494,-4.9195,-5.062,-5.0337,-4.9477,-4.8077,-4.7905,-4.6305,-4.3274,-4.2975,-4.2176,-4.0711,-3.9607,-3.9636,-4.0649,-4.0142,-3.9973,-4.0129,-4.0032,-3.9902,-3.9838,-3.9841,-3.983,-3.9734,-3.9694,-3.9705,-3.9766,-3.9863,-4.0658,-4.1615,-4.1506,-4.2053,-4.2591,-4.1598,-4.0908,-4.0139,-3.8287,-3.8046,0.0,0.0,0.0,0.0,0.0,0.0,0.0,0.0,-3.5763,-3.6048,-3.63,-3.6915,-3.7763,-3.8802,-3.8683,-3.8978,-4.0453,-4.0276,-4.0156,-4.0586,-4.0957,-4.1172,-4.1172,-4.1172,-4.1133,-4.1055,-4.1055,-4.0684,-3.9824,-3.9766,-3.9414,-3.8613,-3.8242,-3.7812,-3.7324,-3.6973,-3.6387,-3.5527,-3.4961,-3.4531,-3.418,-3.3672,-3.3418,-3.3418,-3.3418,-3.3418,-3.3418,-3.3418,-3.3184,-3.2734,-3.1953,-3.1387,-3.0957,-3.041,-2.9941,-2.9512,-2.9082,-2.8652,-2.8301,0.0,0.0,0.0,0.0,0.0,0.0,0.0,0.0,0.0,-4.6287,-4.7161,-4.7397,-4.6982,-4.737,-4.7669,-4.7765,-4.7625,-4.8182,-4.9653,-5.1041,-5.1765,-5.163,-5.258,-5.2133,-5.005,-5.0075,-4.8989,-4.6654,-4.4299,-4.34,-4.3788,-4.155,-4.124,-4.2525,-4.1727,-4.1578,-4.1869,-4.1548,-4.0925,-4.0402,-4.2073,-4.2273,-4.1721,-4.301,-4.1733,-3.9336,-3.9746,-3.9931,-3.9922,-3.9592,-3.9803,-4.0244,-4.1191,-4.1087,-4.0654,-4.0358,-3.9475,-3.8106,-3.6149,-3.549,-3.5481,-3.6186,-3.6661,-3.7059,0.0,-3.875,-3.9359,-3.7557,-3.8807,-3.9909,-3.8811,-3.8885,-3.9441,-4.0364,-4.0467,-4.0605,-4.1035,-4.1152,-4.1172,-4.1172,-4.1172,-4.1016,-4.0644,-4.0586,-4.0234,-3.9336,-3.9277,-3.9062,-3.8594,-3.8535,-3.8125,-3.7324,-3.7246,-3.6816,-3.5957,-3.5117,-3.4668,-3.4609,-3.3809,-3.3418,-3.3418,-3.3418,-3.3418,-3.3418,-3.3418,-3.3184,-3.2754,-3.2285,-3.1836,-3.1367,-3.0527,-2.9941,-2.9512,-2.9082,-2.8652,-2.8301,0.0,0.0,0.0,0.0,0.0,0.0,0.0,0.0,0.0,0.0,-4.6134,-4.6613,-4.6741,-4.6655,-4.6424,-4.6012,-4.7158,-4.8492,-4.9955,-5.2302,-5.3971,-5.4708,-5.4945,-5.4641,-5.3555,-5.2281,-5.082,-4.9095,-4.7165,-4.606,-4.5653,-4.3713,-4.3252,-4.412,-4.3211,-4.3264,-4.4029,-4.388,-4.3907,-4.4123,-4.44,-4.4289,-4.401,-4.396,-4.2713,-4.1144,-4.1559,-4.1219,0.0,-4.0543,-4.0402,-4.014,-4.0166,-3.9667,-3.8815,-3.7591,-3.6992,-3.6476,-3.5434,-3.5167,-3.5265,-3.542,-3.6345,-3.724,-3.7477,-3.8087,-3.8575,-3.8419,-3.94,-4.0057,-3.9484,-3.9687,-4.0019,-4.0137,-4.0371,-4.0586,-4.0781,-4.1016,-4.1074,-4.082,-4.0801,-4.0723,-4.0547,-4.0293,-3.9902,-3.9258,-3.9199,-3.9023,-3.8594,-3.834,-3.793,-3.7324,-3.7051,-3.6387,-3.5254,-3.4883,-3.4453,-3.3945,-3.3594,-3.3418,-3.3418,-3.3418,-3.3281,-3.3066,-3.3066,-3.2676,-3.2031,-3.1855,-3.1387,-3.0684,-3.0078,-2.957,-2.916,-2.8984,-2.8652,-2.8301,0.0,0.0,0.0,0.0,0.0,0.0,0.0,0.0,0.0,0.0,-4.5307,-4.5894,-4.6431,-4.5635,-4.4925,-4.4649,-4.6447,-4.824,-4.9695,-5.2604,-5.4938,-5.6427,-5.6371,-5.6156,-5.5889,-5.4263,-5.2555,-5.096,-4.9611,-4.8509,-4.7622,-4.6149,-4.5776,-4.6345,-4.5257,-4.5225,-4.5978,-4.5847,-4.6058,-4.6427,-4.6401,-4.61,-4.5734,-4.5166,-4.4198,-4.3184,-4.2636,-4.1681,-4.0637,-4.0539,-4.0212,-3.9756,-3.9049,-3.8217,-3.7217,-3.581,-3.5048,-3.4629,-3.4414,-3.4687,-3.5098,-3.5351,-3.6543,-3.7715,-3.7949,-3.8105,-3.8457,-3.9375,-3.9922,-4.0254,-4.0254,-4.0488,-4.0605,-4.0293,-4.0508,-4.0703,-4.0703,-4.0879,-4.084,-4.0391,-4.0137,-3.998,-3.998,-3.9805,-3.9512,-3.9062,-3.9023,-3.8887,-3.8594,-3.8164,-3.7734,-3.7305,-3.6777,-3.5976,-3.4902,-3.4648,-3.4219,-3.3594,-3.3476,-3.3418,-3.3418,-3.3418,-3.3262,-3.2969,-3.2851,-3.2383,-3.168,-3.1562,-3.1074,-3.0351,-2.9922,-2.9473,-2.9082,-2.8965,-2.8652,-2.8301,0.0,0.0,0.0,0.0,0.0,0.0,0.0,0.0,0.0,0.0,0.0,0.0,0.0,-4.4384,-4.3775,-4.4547,-4.594,-4.7462,-4.8951,-5.186,-5.4194,-5.5683,-5.6212,-5.6333,-5.5929,-5.5611,-5.4389,-5.2139,-5.1006,-5.032,-5.0053,-4.8892,-4.8899,-4.9702,-4.8144,-4.7508,-4.7495,-4.6946,-4.6173,-4.5438,-4.7851,-4.7892,-4.6672,-4.7505,-4.6806,-4.5002,-4.1937,-4.0406,-3.9661,-3.8238,-3.8185,-3.8547,-3.8055,-3.7297,-3.6588,-3.704,-3.5124,-3.2969,-3.3359,-3.3789,-3.4609,-3.6699,-3.7891,-3.875,-3.9629,-4.0137,-4.043,-4.0469,-4.084,-4.1133,-4.1133,-4.1152,-4.1152,-4.1133,-4.1152,-4.1152,-4.1152,-4.0801,-4.0391,-3.9961,-3.916,-3.8633,0.0,-3.8984,-3.9043,-3.8633,-3.8594,-3.8594,-3.8574,-3.8164,-3.7734,-3.7305,-3.6484,-3.582,-3.5371,-3.4512,-3.4082,-3.4043,-3.3633,-3.3418,-3.3418,-3.3418,-3.3418,-3.3379,-3.2969,-3.2559,-3.2109,-3.1699,-3.1269,-3.082,-3.0351,-2.9922,-2.9492,-2.9082,-2.8652,-2.8301,0.0,0.0,0.0,0.0,0.0,0.0,0.0,0.0,0.0,0.0,0.0,0.0,0.0,0.0,0.0,0.0,-4.621,-4.7225,-4.8206,-5.1048,-5.3179,-5.4194,-5.5342,-5.6071,-5.63,-5.5506,-5.4875,-5.4463,-5.3004,-5.2279,-5.2185,-5.088,-5.0896,-5.1933,-5.0793,-5.049,-5.079,-5.0569,-5.0198,-4.9713,-4.9495,-4.9273,-4.8992,-4.7821,-4.6125,-4.4119,0.0,-4.0999,-3.9874,-3.9019,-3.8724,-3.8561,-3.769,-3.7264,-3.678,-3.5095,-3.396,-3.3359,-3.4082,-3.5215,-3.6582,-3.8164,-3.9219,-4.0019,-4.0605,-4.0859,-4.0957,-4.0957,-4.0371,-3.9863,-3.9863,-3.9629,-3.9531,-3.9824,-4.0351,-4.084,-4.1133,-4.1055,-4.0684,-3.998,-3.9355,0.0,0.0,0.0,0.0,-3.8555,-3.8574,-3.8457,-3.8164,-3.8008,-3.7598,-3.6894,-3.6601,-3.5957,-3.4941,-3.4629,-3.4199,-3.3633,-3.3496,-3.3418,-3.3418,-3.3418,-3.3262,-3.2988,-3.2559,-3.2129,-3.1699,-3.1269,-3.084,-3.0391,-2.9961,-2.9512,-2.9082,-2.8652,-2.8418,-2.8301,0.0,0.0,0.0,0.0,0.0,0.0,0.0,0.0,0.0,0.0,0.0,0.0,0.0,0.0,0.0,0.0,0.0,-4.6989,-4.7496,-4.9526,-5.1319,-5.2638,-5.3348,-5.4058,-5.4895,-5.395,-5.3621,-5.4033,-5.2986,-5.2629,-5.2883,-5.1973,-5.2078,-5.3011,-5.2184,-5.2034,-5.244,-5.2165,-5.1737,-5.1151,-4.9981,-4.904,-4.811,-4.6485,-4.4434,0.0,-4.1078,-3.9969,-3.8989,-3.8614,-3.8734,-3.8764,-3.769,-3.7053,-3.6297,-3.4154,-3.3477,-3.3672,-3.4844,-3.6309,-3.7832,-3.9121,-4.0117,-4.084,-4.1113,-4.1172,-4.1094,-4.0781,-3.9902,-3.9101,-3.8809,-3.8281,-3.8027,-3.8457,-3.8867,-3.9453,-4.0351,-4.0215,-3.9922,-3.9668,-3.9121,-3.8633,-3.8359,0.0,0.0,-3.832,-3.8496,-3.832,-3.7734,-3.7695,-3.7383,-3.6699,-3.6367,-3.5723,-3.4707,-3.4551,-3.4121,-3.3418,-3.3418,-3.3418,-3.3418,-3.3418,-3.3184,-3.2773,-3.2344,-3.1914,-3.1465,-3.0879,-3.0469,-3.0137,-2.957,-2.916,-2.8867,-2.8437,-2.8301,-2.8301,0.0,0.0,0.0,0.0,0.0,0.0,0.0,0.0,0.0,0.0,0.0,0.0,0.0,0.0,0.0,0.0,0.0,0.0,-4.6786,-4.7462,-4.8815,-5.0914,-5.0439,-5.0681,-5.1933,-5.1294,-5.1057,-5.1262,-5.1257,-5.1635,-5.2374,-5.2144,-5.2457,-5.3091,-5.2318,-5.2115,-5.2323,-5.1604,-5.0678,-4.9594,-4.9371,-4.7444,-4.4511,-4.3909,-4.2006,-3.9548,-3.8442,-3.7688,-3.7236,-3.7186,-3.8166,-3.9134,-3.8114,-3.6797,-3.5492,-3.4463,-3.3901,-3.399,-3.5644,-3.7051,-3.834,-3.9629,-4.0566,-4.1172,-4.1172,-4.1133,-4.0879,-4.0039,-3.9414,-3.875,-3.791,-3.7129,-3.6758,-3.7187,-3.7031,-3.7422,-3.9062,-3.8594,-3.8359,-3.9141,-3.8476,-3.7969,-3.7969,-3.793,0.0,-3.7891,0.0,-3.8203,-3.7344,-3.7305,-3.709,-3.666,-3.582,-3.5176,-3.4707,-3.4258,-3.3828,-3.3418,-3.3418,-3.3418,-3.3418,-3.3398,-3.3164,-3.2773,-3.2324,-3.1894,-3.1426,-3.0547,-3.0176,-3.0078,-2.9238,-2.8926,-2.8867,-2.8437,-2.8301,-2.8301,0.0,0.0,0.0,0.0,0.0,0.0,0.0,0.0,0.0,0.0,0.0,0.0,0.0,0.0,0.0,0.0,0.0,0.0,-4.6752,-4.6989,-4.7597,-4.8683,-4.9593,-5.0509,-5.1356,-5.1596,-5.1966,-5.2485,-5.2113,-5.2023,-5.2101,-5.1623,-5.173,-5.2197,-5.1775,-5.127,-5.0629,-5.0477,-4.9501,-4.805,-4.7244,-4.633,-4.5289,-4.3677,-4.1801,-4.0022,-3.9044,-3.8291,-3.7739,-3.7312,-3.8266,-3.9582,-3.9908,-3.9235,-3.8277,-3.7684,-3.7191,-3.6963,-3.733,-3.8398,-3.9629,-4.0605,-4.1016,-4.1172,-4.1172,-4.0684,-4.0059,-3.9492,-3.7773,-3.6191,-3.5625,-3.5625,-3.5957,-3.6719,-3.8086,-3.9453,-4.0527,-4.0195,-3.9824,-3.9726,-3.8945,-3.8418,-3.8418,-3.8105,0.0,0.0,-3.8144,-3.8203,-3.7344,-3.7305,-3.6953,-3.6211,-3.5664,-3.5176,-3.4707,-3.3965,-3.3535,-3.3418,-3.3418,-3.3418,-3.3418,-3.3105,-3.2891,-3.2754,-3.2012,-3.1445,-3.0996,-3.043,-3.0019,-2.9668,-2.9121,-2.8926,-2.8867,-2.8437,-2.8301,-2.8301,0.0,0.0,0.0,0.0,0.0,0.0,0.0,0.0,0.0,0.0,0.0,0.0,0.0,0.0,0.0,0.0,0.0,0.0,0.0,-4.6786,-4.7124,-4.7872,-4.8376,-4.8849,-4.9255,-4.9567,-4.9814,-4.9991,-5.0085,-5.0162,-5.0236,-4.9841,-4.9743,-4.9824,-4.9513,-4.9021,-4.8322,-4.8224,-4.7511,0.0,0.0,-4.4885,-4.3819,-4.2679,-4.0983,-3.9116,-3.8614,-3.8409,-3.8492,-3.8992,-3.9929,-4.101,-4.2087,-4.1733,-4.0999,-4.0923,-4.052,-4.0202,-4.0477,-4.1389,-4.2194,-4.2023,-4.2076,-4.1862,-4.0347,-3.9805,-3.9141,-3.7559,-3.6094,-3.4785,-3.3769,-3.3945,-3.4531,-3.5391,-3.6875,-3.8476,-4.0078,-3.9766,-3.9512,-3.9863,-3.9121,-3.8574,-3.8574,-3.8359,-3.8027,0.0,-3.8027,-3.7832,-3.6797,-3.6914,-3.6719,-3.6035,-3.5605,-3.5078,-3.4434,-3.3769,-3.3418,-3.3418,-3.3418,-3.3418,-3.3418,-3.3184,-3.2871,-3.25,0.0,-3.1465,-3.084,-3.0195,-2.9785,-2.9567,-2.8887,-2.8652,-2.8613,-2.8379,-2.8301,-2.8301,0.0,0.0,0.0,0.0,0.0,0.0,0.0,0.0,0.0,0.0,0.0,0.0,0.0,0.0,0.0,0.0,0.0,0.0,0.0,0.0,-4.709,-4.7733,-4.7259,-4.6955,-4.6955,-4.6955,-4.6806,-4.6444,-4.6979,-4.7391,-4.7703,-4.7527,-4.7261,-4.6854,-4.6496,-4.6124,-4.5756,-4.5593,-4.5155,-4.4531,-4.4618,-4.3458,-4.1664,0.0,0.0,-3.816,-3.7992,-3.8306,-3.912,-4.1284,-4.2339,-4.2987,-4.4396,-4.4299,-4.3763,-4.421,-4.3849,-4.3388,-4.4216,-4.4858,-4.5105,-4.3784,-4.3544,-4.2844,-3.9659,-3.9003,-3.8334,-3.5262,-3.4473,-3.3887,-3.2363,-3.248,-3.3125,-3.416,-3.5078,-3.6543,-3.9101,-3.873,-3.8613,-3.9766,-3.916,-3.8633,-3.8574,-3.8516,-3.8301,-3.7871,-3.7793,-3.7266,-3.6172,-3.6406,-3.6328,-3.5781,-3.541,-3.4824,-3.4004,-3.3613,-3.3418,-3.3418,-3.3418,-3.3418,-3.3418,-3.3301,-3.2851,-3.2168,0.0,0.0,-3.0742,-2.9902,-2.9531,-2.9414,-2.8613,-2.8301,-2.8301,-2.8301,-2.8301,-2.8301,0.0,0.0,0.0,0.0,0.0,0.0,0.0,0.0,0.0,0.0,-4.1798,-4.3118,0.0,0.0,0.0,0.0,0.0,0.0,0.0,0.0,0.0,-4.6989,-4.7462,-4.7733,-4.7733,-4.7733,-4.7518,-4.7211,-4.6742,-4.6388,-4.6179,-4.6152,-4.573,-4.5047,-4.4815,-4.4197,-4.3313,-4.3663,-4.3348,-4.2615,-4.3137,-4.2792,-4.1946,-4.11,0.0,0.0,-3.8872,-3.8309,-3.8693,-4.2253,-4.3904,-4.4829,-4.6347,-4.6989,-4.7191,-4.7051,-4.6585,-4.6186,-4.6374,-4.6203,-4.5989,-4.5986,-4.5425,-4.4056,-4.1223,-3.9733,-3.8078,-3.4831,-3.334,-3.2402,-3.1758,-3.2266,-3.3437,-3.5371,-3.6406,-3.7871,-4.0469,-4.0098,-3.9648,-3.9863,-3.9414,-3.8965,-3.8613,-3.8242,-3.7851,0.0,-3.709,-3.6797,-3.6562,-3.6289,-3.5605,-3.4453,-3.4336,-3.4062,-3.3535,-3.3457,-3.3418,-3.3418,-3.3418,-3.3418,-3.3398,-3.2695,-3.2305,-3.219,0.0,0.0,-3.0273,-2.9785,-2.9355,-2.8984,-2.8496,-2.8301,-2.8301,-2.8301,-2.8301,-2.8301,0.0,0.0,0.0,0.0,0.0,0.0,0.0,-4.1115,-4.1504,-4.321,-4.3498,-4.3904,-4.4772,-4.5728,-4.6805,0.0,0.0,0.0,0.0,0.0,0.0,0.0,0.0,0.0,-4.7906,-4.8277,-4.7953,-4.6843,0.0,-4.5921,-4.5218,-4.4821,-4.4039,-4.2976,-4.267,-4.1868,-4.0713,-4.1075,-4.0964,-4.067,-4.1628,-4.1831,0.0,0.0,0.0,0.0,-3.9203,-3.8644,-3.9111,-4.1641,-4.3526,-4.5266,-4.8155,-4.9383,-4.9713,-4.9556,-4.9416,-4.9321,-4.9322,-4.931,-4.9089,-4.8155,-4.7118,-4.5372,-4.1431,-3.9763,-3.7971,-3.4166,-3.3035,-3.2294,-3.078,-3.1582,-3.2812,-3.3848,-3.5098,-3.6777,-3.9141,-3.9121,-3.9043,-3.9473,-3.9336,-3.8945,-3.8301,-3.8047,-3.7656,-3.7012,-3.6777,-3.6562,-3.6348,-3.5918,-3.5293,-3.4434,-3.418,-3.3867,-3.3418,-3.3418,-3.3418,-3.3418,-3.3418,-3.3418,-3.3418,-3.3008,-3.2578,-3.2209,-3.1738,0.0,-3.0508,-2.9844,-2.9453,-2.9199,-2.8555,-2.8301,-2.8301,-2.8301,-2.8301,-2.8301,0.0,0.0,0.0,0.0,0.0,0.0,0.0,-4.1991,-4.2701,-4.5185,-4.5633,-4.5357,-4.4379,-4.511,-4.609,0.0,0.0,0.0,0.0,0.0,0.0,0.0,0.0,0.0,0.0,0.0,0.0,-4.6541,-4.6374,0.0,0.0,0.0,0.0,0.0,-4.1098,-4.0109,-3.8826,-3.9089,-3.9276,0.0,0.0,-4.125,0.0,0.0,0.0,0.0,0.0,-3.9061,-3.9459,-4.0714,-4.2329,-4.4585,-4.8394,-5.0203,-5.0934,-5.0847,-5.1218,-5.1609,-5.1754,-5.2139,-5.2014,-5.0273,-4.8815,-4.6564,-4.1813,-4.003,-3.8124,-3.3633,-3.2954,-3.2489,-3.0322,-3.0898,-3.1894,-3.2363,-3.3398,-3.5039,-3.7559,-3.7851,-3.8144,-3.9082,-3.9199,-3.8867,-3.8008,-3.7851,0.0,-3.6719,-3.6582,0.0,-3.5762,-3.543,-3.5,-3.4453,-3.4101,-3.3769,-3.3418,-3.3418,-3.3418,-3.3418,-3.3418,-3.3418,-3.3418,-3.332,-3.2871,-3.2168,-3.207,0.0,0.0,-2.9941,-2.9626,-2.9492,-2.8633,-2.8301,-2.8301,-2.8301,-2.8301,-2.8301,0.0,0.0,0.0,0.0,0.0,0.0,0.0,-4.2462,-4.3928,-4.5963,-4.6741,-4.686,-4.6142,-4.6956,-4.7083,0.0,0.0,0.0,0.0,0.0,0.0,0.0,0.0,0.0,0.0,0.0,0.0,-4.7312,-4.6642,0.0,0.0,0.0,0.0,0.0,0.0,-4.0109,-3.8826,-3.9089,0.0,0.0,0.0,0.0,0.0,0.0,0.0,0.0,0.0,-3.952,-3.9029,-4.0184,-4.1,-4.2103,-4.5037,-4.782,-4.9949,-4.9699,-5.0731,-5.2138,-5.2741,-5.2956,-5.286,-5.2185,-5.0459,-4.7817,-4.3391,-4.123,-3.8724,-3.3738,-3.2727,-3.2363,-3.1014,-3.0547,-3.1016,-3.2988,-3.2793,-3.3691,-3.7402,-3.7598,-3.7812,-3.9062,-3.9199,-3.8867,-3.8008,-3.7578,-3.7168,-3.6699,-3.6309,0.0,-3.4863,-3.4785,-3.4394,-3.3574,-3.3496,-3.3457,-3.3418,-3.3418,-3.3418,-3.3418,-3.3418,-3.3418,-3.3418,-3.3027,-3.2598,-3.2209,-3.1758,0.0,0.0,-2.9941,-2.9626,-2.9492,-2.8633,-2.8301,-2.8301,-2.8301,-2.8301,-2.8301,0.0,0.0,0.0,0.0,0.0,0.0,-4.2954,-4.262,-4.3449,-4.704,-4.7399,-4.7369,-4.7489,-4.7847,-4.7485,-4.5951,0.0,0.0,0.0,0.0,0.0,0.0,0.0,0.0,0.0,0.0,-4.8111,-4.789,-4.7189,0.0,0.0,0.0,0.0,0.0,0.0,-4.0213,-3.8826,-3.9203,0.0,0.0,0.0,0.0,0.0,0.0,0.0,0.0,0.0,0.0,-3.9142,-3.9044,-3.9597,-4.0475,-4.1254,-4.3482,-4.6199,-4.8484,-5.0006,-5.1241,-5.255,-5.3176,-5.3317,-5.2475,-5.0431,-4.7724,-4.4405,-4.1934,-3.9265,-3.5569,-3.4246,-3.3261,-3.186,-3.0826,-3.0488,-3.1348,-3.1211,-3.1875,-3.4473,-3.4902,-3.5644,-3.7461,-3.791,-3.793,-3.7578,-3.7402,-3.7012,-3.6328,0.0,0.0,-3.4726,-3.4707,-3.4434,-3.3828,-3.3555,-3.3418,-3.3418,-3.3418,-3.3418,-3.3418,-3.3418,-3.3418,-3.3398,-3.2988,-3.2559,-3.2148,-3.1699,0.0,0.0,-2.9941,-2.9626,-2.9492,-2.8633,-2.8301,-2.8301,-2.8301,-2.8301,-2.8301,0.0,0.0,0.0,0.0,0.0,-4.1492,-4.3519,-4.2751,-4.3269,-4.692,-4.7339,-4.7489,-4.7938,-4.7638,-4.696,-4.58,-4.5572,0.0,0.0,0.0,0.0,0.0,0.0,0.0,0.0,0.0,-4.852,-4.8528,-4.8061,-4.7631,0.0,0.0,-4.4687,-4.2904,0.0,0.0,0.0,0.0,0.0,0.0,0.0,0.0,0.0,0.0,0.0,0.0,0.0,0.0,0.0,0.0,0.0,-3.9145,-3.8944,-4.0377,-4.273,-4.624,-4.8502,-5.0113,-5.1479,-5.2599,-5.3149,-5.2259,-5.0046,-4.7401,-4.4861,-4.2303,-3.9586,-3.6772,-3.5223,-3.3948,-3.2511,-3.1007,-3.0059,-3.0176,-3.0098,-3.0625,-3.2363,-3.2969,-3.3945,-3.5859,-3.6348,-3.6582,-3.6719,-3.6855,-3.668,-3.6074,0.0,0.0,-3.4726,-3.459,-3.4316,-3.3887,-3.3574,-3.3418,-3.3418,-3.3418,-3.3418,-3.3418,-3.3418,-3.3418,-3.3398,-3.2851,-3.2441,-3.2148,0.0,0.0,0.0,-2.9883,-2.9492,-2.9297,-2.8574,-2.8301,-2.8301,-2.8301,-2.8301,-2.8301,0.0,0.0,0.0,0.0,0.0,0.0,-4.233,-4.2924,-4.3768,-4.5155,-4.6471,-4.7309,-4.7309,-4.6112,-4.5304,-4.5316,-4.6272,0.0,0.0,0.0,0.0,0.0,0.0,0.0,0.0,0.0,-4.8754,-4.9293,-4.926,-4.8828,-4.8001,-4.7968,-4.6421,-4.3622,0.0,0.0,0.0,0.0,0.0,0.0,0.0,0.0,0.0,0.0,0.0,0.0,0.0,0.0,0.0,0.0,0.0,0.0,0.0,-3.927,-4.0222,-4.2637,-4.5834,-4.869,-4.9363,-5.0884,-5.2163,-5.1634,-4.9493,-4.6944,-4.4765,-4.2303,-3.9586,-3.6772,-3.5223,-3.4056,-3.2892,-3.0987,-2.9707,-3.0137,-2.9844,-3.0176,-3.1934,-3.2539,-3.3281,-3.457,-3.4726,-3.4902,-3.5371,-3.5781,-3.6035,-3.6016,0.0,0.0,-3.4726,-3.4297,-3.3887,-3.3437,-3.3418,-3.3418,-3.3418,-3.3418,-3.3418,-3.3418,-3.3418,-3.3418,-3.3398,-3.2559,-3.2168,0.0,0.0,0.0,0.0,-2.9746,-2.9316,-2.8887,-2.8457,-2.8301,-2.8301,-2.8301,-2.8301,-2.8301,0.0,0.0,0.0,0.0,0.0,0.0,0.0,-4.1842,-4.2166,-4.4338,-4.4616,-4.5233,-4.71,-4.6531,-4.5813,-4.5334,-4.4408,0.0,0.0,0.0,0.0,0.0,0.0,0.0,0.0,-4.8164,-4.8497,-4.9161,-4.9161,-4.9293,-4.9491,-4.8465,-4.7243,-4.5826,-4.3915,-4.2163,0.0,0.0,0.0,0.0,0.0,0.0,-4.3357,0.0,0.0,0.0,0.0,0.0,0.0,0.0,0.0,0.0,0.0,0.0,0.0,-3.9631,-4.2675,-4.5895,-4.6934,-4.7797,-4.8267,-4.7377,-4.5958,-4.4323,-4.2591,-4.098,-3.9378,-3.7756,-3.6449,-3.5189,-3.3735,-3.2023,-3.0671,-3.0288,-2.9844,-2.998,-3.1133,-3.1914,-3.2832,-3.4121,-3.5332,-3.6211,0.0,0.0,-3.5586,0.0,0.0,0.0,-3.4277,-3.3867,-3.3555,-3.3418,-3.3418,-3.3418,-3.3418,-3.3418,-3.3418,-3.3418,-3.3418,-3.3281,-3.2969,-3.2422,0.0,0.0,0.0,0.0,0.0,-2.9414,-2.9043,-2.8887,-2.8457,-2.8301,-2.8301,-2.8301,-2.8301,-2.8301,0.0,0.0,0.0,0.0,0.0,0.0,0.0,-4.1389,-4.1331,-4.2629,-4.291,-4.3778,-4.5933,-4.5603,-4.5334,-4.5663,-4.4107,0.0,0.0,0.0,0.0,0.0,0.0,0.0,-4.7538,-4.7836,-4.863,-4.9922,-5.022,-5.0585,-5.1015,-5.0353,-4.909,-4.7238,-4.5482,-4.3623,0.0,0.0,0.0,0.0,0.0,0.0,-4.2445,0.0,0.0,0.0,0.0,0.0,0.0,0.0,0.0,0.0,0.0,0.0,0.0,0.0,-4.0217,-4.2739,-4.4315,-4.5351,-4.5845,-4.5261,-4.4034,-4.2687,-4.1701,-4.0355,-3.9056,-3.8166,-3.6665,-3.5176,-3.401,-3.2138,-3.0515,-2.98,-2.9629,-2.9824,-3.0527,-3.1523,-3.2578,-3.3691,-3.4922,-3.5801,0.0,-3.5664,-3.5312,0.0,0.0,0.0,-3.4082,-3.3652,-3.3418,-3.3418,-3.3418,-3.3418,-3.3418,-3.3262,-3.3184,-3.3184,-3.3027,-3.2812,-3.2539,-3.1953,0.0,0.0,0.0,0.0,0.0,-2.9199,-2.8828,-2.8652,-2.8398,-2.8301,-2.8301,-2.8301,-2.8301,-2.8301,0.0,0.0,0.0,0.0,0.0,0.0,0.0,-4.1454,-4.1153,-4.0477,-4.1542,-4.28,-4.4047,-4.3618,-4.4067,-4.598,0.0,0.0,0.0,0.0,0.0,0.0,0.0,0.0,-4.6724,-4.7571,-4.906,-5.1212,-5.2009,-5.2475,-5.2539,-5.3135,-5.1545,-4.82,-4.7196,-4.5391,-4.3024,-4.2298,-4.2382,-4.305,-4.3559,-4.2624,0.0,0.0,0.0,0.0,0.0,0.0,0.0,0.0,0.0,0.0,0.0,0.0,0.0,0.0,0.0,0.0,0.0,-4.32,-4.4426,-4.4577,-4.3168,-4.1725,-4.1701,-4.013,0.0,-3.7987,-3.6022,-3.4195,-3.3792,-3.1512,-2.9505,-2.9023,-2.9297,-2.9726,-3.0176,-3.1406,-3.2578,-3.3418,-3.3906,-3.416,-3.4121,-3.4863,0.0,0.0,0.0,0.0,-3.4023,-3.3633,-3.3418,-3.3379,-3.3379,-3.3379,-3.3379,-3.2988,-3.2773,-3.2734,-3.2363,-3.2148,-3.2051,-3.125,0.0,0.0,0.0,0.0,0.0,-2.9062,-2.8652,-2.8301,-2.8301,-2.8301,-2.8301,-2.8301,-2.8301,-2.8301,0.0,0.0,0.0,0.0,0.0,0.0,0.0,0.0,0.0,0.0,-4.1115,-4.1961,-4.277,-4.312,-4.3678,0.0,0.0,0.0,0.0,0.0,0.0,0.0,0.0,0.0,-4.5949,-4.7273,-4.873,-5.0399,-5.1726,-5.2937,-5.3997,-5.3599,-5.2373,-5.0485,-4.9061,-4.6675,-4.3571,-4.201,-4.1976,-4.2921,-4.1839,-4.0984,0.0,0.0,0.0,0.0,-3.692,-3.7443,0.0,0.0,0.0,0.0,0.0,0.0,0.0,0.0,-3.8132,-3.8659,-3.893,0.0,-4.0098,-3.9729,-3.9609,-3.9441,0.0,-3.8185,-3.7293,-3.6727,-3.5183,-3.3616,-3.2627,-3.1353,-3.0214,-2.9541,-2.9512,-2.99,-3.0625,-3.2109,-3.3437,-3.4297,-3.4805,-3.4941,-3.459,-3.4746,0.0,0.0,0.0,-3.3574,-3.3574,-3.3476,-3.3281,-3.2949,-3.2949,-3.2949,-3.2949,-3.2851,-3.2637,-3.2324,-3.2268,-3.1816,-3.1191,-3.0976,0.0,0.0,0.0,0.0,-2.9043,-2.8613,-2.8379,-2.8301,-2.8301,-2.8301,-2.8301,-2.8301,-2.8301,-2.8301,0.0,0.0,0.0,0.0,0.0,0.0,0.0,0.0,0.0,0.0,0.0,0.0,0.0,0.0,0.0,0.0,0.0,0.0,0.0,0.0,0.0,0.0,0.0,-4.4699,-4.5147,-4.6941,-4.8774,-5.0598,-5.2478,-5.393,-5.4986,-5.4957,-5.3599,-5.1214,-4.886,-4.6548,-4.4335,-4.317,-4.2632,-4.2544,-4.1965,0.0,0.0,0.0,0.0,0.0,-3.647,-3.6894,0.0,-3.7245,-3.7688,-3.8158,0.0,0.0,0.0,0.0,-3.7968,-3.8185,-3.8027,-3.849,-3.8954,-3.8797,-3.8364,-3.795,-3.7934,-3.6815,-3.5657,-3.5196,-3.3934,-3.2645,-3.1621,-3.0731,-2.9968,-2.9368,-2.9785,-3.0547,-3.1621,-3.2383,-3.3242,-3.4297,-3.4453,-3.4473,0.0,0.0,0.0,0.0,0.0,-3.3242,-3.2871,-3.3027,-3.2851,-3.2226,-3.2207,-3.2305,-3.25,-3.2305,-3.209,-3.1875,-3.168,-3.123,-3.0566,-3.0566,-3.0215,0.0,0.0,0.0,-2.8887,-2.8457,-2.8301,-2.8301,-2.8301,-2.8301,-2.8301,-2.8301,-2.8301,-2.8301,0.0,0.0,0.0,0.0,0.0,0.0,0.0,0.0,0.0,0.0,0.0,0.0,0.0,0.0,0.0,0.0,0.0,0.0,0.0,0.0,0.0,0.0,-4.3966,-4.4381,-4.4473,-4.6465,-4.8679,-5.0995,-5.3245,-5.4845,-5.5747,-5.6514,-5.4924,-5.1347,-4.8234,-4.6148,-4.5011,-4.456,-4.3486,-4.2162,-4.2489,0.0,0.0,0.0,0.0,0.0,0.0,0.0,0.0,-3.68,-3.7339,-3.7976,-3.7698,0.0,0.0,0.0,0.0,0.0,-3.7394,-3.8149,-3.8933,-3.9045,-3.7877,-3.6779,-3.7109,-3.5546,-3.3908,-3.3541,-3.2403,-3.1326,-3.0764,-2.9993,-2.9394,-2.916,-3.0215,-3.1504,-3.2715,-3.2695,-3.2891,-3.3769,-3.3672,0.0,0.0,0.0,0.0,0.0,0.0,-3.2988,-3.2268,-3.2441,-3.2207,-3.1348,-3.1387,-3.1562,-3.1875,-3.1562,-3.1426,-3.1406,-3.0996,-3.0547,-3.0098,-3.0039,-2.9766,0.0,0.0,0.0,-2.8789,-2.8437,-2.8301,-2.8301,-2.8301,-2.8301,-2.8301,-2.8301,-2.8301,-2.8301,0.0,0.0,0.0,0.0,0.0,0.0,0.0,0.0,0.0,0.0,0.0,0.0,0.0,0.0,0.0,0.0,0.0,0.0,0.0,0.0,0.0,-4.3319,-4.3409,-4.3728,-4.4298,-4.5387,-4.7331,-5.0112,-5.2411,-5.4618,-5.6547,-5.7276,-5.5686,-5.2106,-4.9538,-4.7216,-4.5196,-4.412,-4.316,-4.2269,-4.134,0.0,0.0,0.0,0.0,0.0,0.0,0.0,0.0,-3.5429,-3.6427,-3.778,-3.6394,0.0,0.0,0.0,0.0,0.0,-3.4891,-3.621,-3.7376,-3.6874,-3.6049,-3.5197,-3.4538,-3.3372,-3.2253,-3.1868,-3.0492,-2.9573,-3.0165,-2.9564,-2.9238,-2.9902,-3.1113,-3.2285,-3.3203,-3.3887,-3.3984,-3.3086,0.0,-3.3711,0.0,0.0,0.0,0.0,0.0,0.0,0.0,-3.1875,-3.1309,-3.043,-3.0781,-3.084,-3.0508,-3.082,-3.0996,-3.0976,-3.0527,-3.0078,-2.9648,-2.9277,-2.8887,0.0,0.0,-2.8398,-2.8379,-2.832,-2.8301,-2.8301,-2.8301,-2.8301,-2.8301,-2.8301,-2.8301,-2.8301,0.0,0.0,0.0,0.0,0.0,0.0,0.0,0.0,0.0,0.0,0.0,0.0,0.0,0.0,0.0,0.0,0.0,0.0,0.0,0.0,-4.3917,-4.4377,-4.4007,-4.3977,-4.4317,-4.6234,-4.8388,-5.0809,-5.345,-5.5441,-5.6786,-5.4899,-5.2935,-5.093,-4.8663,-4.6777,-4.5269,-4.4606,-4.3797,-4.2911,0.0,0.0,0.0,0.0,0.0,0.0,0.0,0.0,0.0,0.0,-3.628,-3.7083,-3.5612,0.0,0.0,0.0,0.0,0.0,-3.3726,-3.4259,-3.4694,-3.4406,-3.5162,-3.5643,-3.4259,-3.3149,-3.2131,-3.0967,-3.0336,-3.0019,-3.0176,-3.0273,-3.0762,-3.207,-3.2598,-3.3066,-3.3691,-3.3516,-3.3203,0.0,0.0,0.0,0.0,0.0,0.0,0.0,0.0,0.0,0.0,0.0,-3.0508,-2.9883,-3.0059,-3.0078,-2.9863,-3.0078,-3.0293,-3.0508,-3.0059,-2.9629,-2.9199,-2.9004,-2.8691,-2.8301,0.0,-2.8301,-2.8301,-2.8301,-2.8301,-2.8301,-2.8301,-2.8301,-2.8262,-2.8047,-2.7812,-2.7637,0.0,0.0,0.0,0.0,0.0,0.0,0.0,0.0,0.0,0.0,0.0,0.0,0.0,0.0,0.0,0.0,0.0,0.0,0.0,-4.32,-4.3798,-4.5005,-4.4736,-4.4825,-4.5454,-4.749,-4.9684,-5.2038,-5.4535,-5.6176,-5.6843,-5.3271,-5.0943,-4.971,-4.7874,-4.645,-4.5379,-4.5164,-4.4493,-4.3524,0.0,0.0,0.0,0.0,0.0,0.0,0.0,0.0,0.0,0.0,0.0,0.0,0.0,0.0,0.0,-3.2809,-3.2318,-3.2212,-3.2341,-3.2378,-3.2428,-3.2326,-3.3839,-3.5066,-3.4023,-3.3034,-3.2051,-3.1016,-3.0937,-3.0937,-3.0566,-3.1055,-3.2051,-3.3652,-3.3633,-3.3574,-3.4004,-3.3223,-3.2656,-3.2773,0.0,0.0,0.0,0.0,0.0,0.0,0.0,0.0,0.0,0.0,-2.9863,-2.9434,-2.9512,-2.9626,-2.9626,-2.9473,-2.9629,-3.0039,-2.9512,-2.9101,-2.8769,-2.8672,-2.8457,-2.8144,-2.8262,-2.8301,-2.8301,-2.8301,-2.8301,-2.8301,-2.8301,-2.8301,-2.8242,-2.7865,-2.7461,-2.7226,0.0,0.0,0.0,0.0,0.0,0.0,0.0,0.0,0.0,0.0,0.0,0.0,0.0,0.0,0.0,0.0,0.0,0.0,0.0,-4.3,-4.3618,-4.4347,-4.4915,-4.6381,-4.891,-4.8535,-5.0003,-5.3361,-5.493,-5.6171,-5.6965,-5.4842,-5.2406,-4.9742,-4.8409,-4.7009,-4.566,-4.5379,-4.475,-4.3827,-4.3524,0.0,0.0,0.0,0.0,0.0,0.0,0.0,0.0,0.0,0.0,0.0,0.0,0.0,-3.0914,-3.0318,-2.9688,-2.9317,-2.9731,-3.0718,-3.1486,-3.1093,-3.1133,-3.1623,-3.2623,-3.1916,-3.1328,-3.2383,-3.1992,-3.1465,-3.1426,-3.1484,-3.1953,-3.3262,-3.3437,-3.3574,-3.4004,0.0,-3.3652,-3.2891,0.0,0.0,0.0,0.0,0.0,0.0,0.0,0.0,0.0,0.0,0.0,-2.8984,-2.9355,-2.9626,-2.9626,-2.916,-2.918,-2.9609,-2.8769,-2.8359,-2.832,-2.793,-2.7787,-2.7787,-2.8125,-2.8301,-2.8301,-2.8301,-2.8301,-2.8301,-2.8301,-2.8301,-2.8242,-2.7865,-2.7708,-2.7669,0.0,0.0,0.0,0.0,0.0,0.0,0.0,0.0,0.0,0.0,0.0,0.0,0.0,0.0,0.0,0.0,0.0,0.0,0.0,-4.297,-4.3768,-4.4885,-4.5155,-4.6352,-4.864,-5.0002,-5.1987,-5.4582,-5.5538,-5.5948,-5.5822,-5.2168,-4.9659,-4.819,-4.6539,-4.5715,-4.5552,-4.5383,-4.4967,-4.4413,-4.3754,-4.2338,0.0,0.0,0.0,0.0,0.0,0.0,0.0,0.0,-3.3022,-3.2323,-3.1156,-3.0737,-3.0458,-2.9232,-2.872,-2.8574,-2.873,-2.9726,-3.0664,-3.0488,-3.0684,-3.123,-3.25,-3.3027,-3.3164,-3.2851,-3.3164,-3.334,-3.2793,-3.2695,-3.2871,-3.334,-3.3418,-3.3574,-3.4004,-3.3398,-3.2773,0.0,0.0,0.0,0.0,0.0,0.0,0.0,0.0,0.0,0.0,0.0,0.0,-2.8906,-2.9082,-2.916,-2.916,-2.9004,-2.8867,-2.8769,-2.8184,-2.8047,-2.8281,-2.7851,-2.7865,-2.8066,-2.8223,-2.8301,-2.8301,-2.8301,-2.8301,-2.8301,-2.8301,-2.8125,-2.7943,-2.7787,-2.7376,-2.6953,0.0,0.0,0.0,0.0,0.0,0.0,0.0,0.0,0.0,0.0,0.0,0.0,0.0,0.0,0.0,0.0,0.0,0.0,-4.1966,-4.2632,-4.3509,-4.4616,-4.5065,-4.6232,-4.8237,-5.0661,-5.2785,-5.4551,-5.5628,-5.5628,-5.4491,-5.09,-4.8626,-4.7562,-4.5819,-4.5467,-4.6111,-4.5608,-4.5187,-4.4856,-4.3992,-4.2651,0.0,0.0,0.0,0.0,0.0,0.0,0.0,0.0,-3.2325,-3.1346,-3.0043,-2.9733,-2.9708,-2.8627,-2.8301,-2.8301,-2.8301,-2.8926,-2.9629,-2.9766,-3.0234,-3.1074,-3.2637,-3.3672,-3.4277,-3.4219,-3.4375,-3.4238,-3.3379,-3.3105,-3.3066,-3.3203,-3.334,-3.3476,-3.3652,-3.2676,0.0,0.0,0.0,0.0,0.0,0.0,0.0,0.0,0.0,0.0,0.0,0.0,0.0,0.0,-2.8789,-2.8711,-2.8711,-2.8594,-2.8379,-2.8086,-2.7865,-2.7812,-2.8086,-2.7845,-2.7832,-2.8105,-2.8242,-2.8301,-2.8301,-2.8301,-2.8223,-2.8105,-2.8242,-2.7949,-2.7461,-2.7461,-2.709,-2.666,0.0,0.0,0.0,0.0,0.0,0.0,0.0,0.0,0.0,0.0,0.0,0.0,0.0,0.0,0.0,0.0,0.0,0.0,-4.1109,-4.1936,-4.2641,-4.326,-4.4586,-4.6202,-4.8207,-5.0182,-5.1858,-5.3204,-5.5179,-5.517,-5.3144,-5.1798,-5.0152,-4.8207,-4.692,-4.6754,-4.7415,-4.6072,-4.537,-4.5114,-4.4248,-4.3269,-4.2269,0.0,0.0,0.0,0.0,0.0,0.0,0.0,-3.1177,-2.9805,-2.9095,-2.8633,-2.8301,-2.8301,-2.8301,-2.8301,-2.8301,-2.8301,-2.8398,-2.8828,-2.957,-3.0781,-3.293,-3.3437,-3.416,-3.6758,-3.5566,-3.3809,-3.2949,-3.2461,-3.2305,-3.2715,-3.3125,-3.3262,-3.2832,-3.2051,0.0,0.0,0.0,0.0,0.0,0.0,0.0,0.0,0.0,0.0,0.0,0.0,0.0,0.0,-2.8496,-2.8281,-2.8301,-2.7871,-2.7728,-2.7728,-2.7728,-2.7728,-2.7728,-2.7728,-2.7728,-2.7748,-2.8105,-2.8301,-2.8301,-2.8301,-2.8047,-2.7767,-2.8125,-2.7754,-2.7012,-2.7031,-2.7012,-2.6953,0.0,0.0,0.0,0.0,0.0,0.0,0.0,0.0,0.0,0.0,0.0,0.0,0.0,0.0,0.0,0.0,0.0,0.0,-4.0888,-4.1142,-4.1605,-4.2445,-4.3279,-4.4075,-4.4755,-4.7219,-5.0242,-5.3892,-5.4012,-5.3294,-5.1768,-4.9972,-4.8596,-4.7549,-4.6711,-4.6179,-4.5928,-4.562,-4.5087,-4.4338,-4.4013,-4.3269,-4.2269,0.0,0.0,0.0,0.0,0.0,0.0,0.0,0.0,0.0,-2.8437,-2.8359,-2.8672,-2.8379,-2.8496,-2.8672,-2.8379,-2.873,-2.9297,-2.9707,-3.0703,-3.1992,-3.3535,-3.3887,-3.4355,-3.6055,-3.4922,-3.3281,-3.2124,-3.208,-3.175,-3.0268,-3.0926,-3.1699,-3.1875,0.0,0.0,0.0,0.0,0.0,0.0,0.0,0.0,0.0,0.0,0.0,0.0,0.0,0.0,0.0,-2.7773,-2.7676,-2.8281,-2.7871,-2.7812,-2.8105,-2.8105,-2.8105,-2.8105,-2.7865,-2.7832,-2.8125,-2.8242,-2.8301,-2.8301,-2.8301,-2.8047,-2.7728,-2.7865,-2.75,-2.7051,-2.7363,-2.7285,-2.7031,0.0,0.0,0.0,0.0,0.0,0.0,0.0,0.0,0.0,0.0,-4.3576,-4.321,0.0,0.0,0.0,0.0,0.0,0.0,0.0,-4.0733,-4.1026,-4.1566,-4.2456,-4.3397,-4.4333,-4.6645,-4.882,-5.0939,-5.1661,-5.1349,-5.0032,-4.9374,-4.8716,-4.8087,-4.7938,-4.7369,-4.6454,-4.602,-4.5283,-4.4482,-4.3998,-4.3477,-4.2814,0.0,0.0,0.0,0.0,0.0,0.0,0.0,0.0,0.0,-2.8441,-2.8068,-2.8144,-2.8066,-2.8223,-2.8398,-2.832,-2.8789,-2.9492,-3.0273,-3.1328,-3.2559,-3.3984,-3.4726,-3.5273,-3.5898,-3.4902,-3.3386,-3.1577,-3.1339,-3.0925,-2.9389,-2.9983,-3.0734,-3.121,0.0,0.0,0.0,0.0,0.0,0.0,0.0,0.0,0.0,0.0,0.0,0.0,0.0,0.0,0.0,-2.7383,-2.7266,-2.7773,-2.7363,-2.7207,-2.7285,-2.7617,-2.7695,-2.7539,-2.7793,-2.8047,-2.8301,-2.8301,-2.8301,-2.8301,-2.8301,-2.8047,-2.7728,-2.7904,-2.7539,-2.707,-2.75,-2.7383,-2.7051,0.0,0.0,0.0,0.0,0.0,0.0,0.0,0.0,0.0,0.0,-4.329,-4.321,0.0,0.0,0.0,0.0,0.0,0.0,0.0,0.0,-4.0772,-4.0949,-4.2187,-4.3832,-4.5908,-4.7451,-4.7392,-4.5645,-4.8507,-4.9269,-4.8073,-4.9388,-4.9687,-4.9149,-4.9747,-4.9269,-4.8027,-4.6711,-4.5753,-4.5024,-4.4004,-4.3602,-4.3573,-4.3057,0.0,0.0,0.0,0.0,0.0,0.0,0.0,0.0,-2.895,-2.7935,-2.7231,-2.7552,-2.7708,-2.7812,-2.8184,-2.8633,-2.9297,-3.0664,-3.1738,-3.2871,-3.4284,-3.5549,-3.6288,-3.5772,-3.492,-3.3497,-3.1019,-3.0262,-2.9842,-2.9301,-2.9721,-3.0251,0.0,0.0,0.0,0.0,0.0,0.0,0.0,0.0,0.0,0.0,0.0,0.0,0.0,0.0,0.0,-2.7669,-2.7148,-2.6934,-2.7012,-2.6602,-2.6191,0.0,-2.6582,-2.6738,-2.6367,-2.7617,-2.8144,-2.8125,-2.8203,-2.8203,-2.8184,-2.8223,-2.7988,-2.7708,-2.8066,-2.7715,-2.7012,-2.748,-2.7422,-2.707,0.0,0.0,0.0,0.0,0.0,0.0,0.0,0.0,0.0,0.0,0.0,0.0,0.0,0.0,0.0,0.0,0.0,0.0,0.0,0.0,-4.0324,-4.2005,-4.3431,-4.4663,-4.565,-4.5518,-4.4688,-4.3041,-4.6167,-4.7169,-4.6194,-4.7703,-4.8193,-4.7894,-4.8268,-4.7629,-4.6321,-4.5221,-4.4336,-4.3668,-4.3116,-4.2895,-4.2795,-4.1849,-4.1215,0.0,0.0,0.0,0.0,0.0,0.0,0.0,-2.9815,-2.8859,-2.8451,-2.7483,-2.7637,-2.8184,-2.8262,-2.8848,-2.9824,-3.1484,-3.3301,-3.4522,-3.3763,-3.3792,-3.3935,-3.3438,-3.2258,-3.0571,-2.811,-2.8184,-2.8037,-2.6326,-2.7782,-2.9182,0.0,0.0,0.0,0.0,0.0,0.0,0.0,0.0,0.0,0.0,0.0,0.0,0.0,0.0,0.0,-2.7148,-2.6406,-2.6278,-2.7012,-2.6602,-2.6348,0.0,-2.6426,-2.6289,-2.5849,-2.6855,-2.7109,-2.6836,-2.75,-2.7598,-2.7324,-2.7656,-2.7539,-2.7207,-2.7637,-2.7285,-2.6621,-2.7434,-2.7669,-2.748,0.0,0.0,0.0,0.0,0.0,0.0,0.0,0.0,0.0,0.0,0.0,0.0,0.0,0.0,0.0,0.0,0.0,0.0,0.0,0.0,-4.0535,-4.2578,-4.4017,-4.4603,-4.4283,-4.4167,-4.3024,-4.0923,-4.2564,-4.3791,-4.4502,-4.6418,-4.7392,-4.7582,-4.8013,-4.7377,-4.5921,-4.5007,-4.4284,-4.3728,-4.3323,-4.316,-4.3031,-4.1966,-4.1163,-4.0485,-3.9412,0.0,0.0,0.0,0.0,0.0,0.0,0.0,-2.8593,-2.7398,-2.7348,-2.7734,-2.793,-2.8906,-3.0391,-3.2539,-3.4082,-3.4918,-3.4442,-3.3077,-3.1808,-3.1399,-3.0726,-2.9428,-2.6955,-2.6856,-2.6766,-2.5306,-2.6702,0.0,0.0,0.0,0.0,0.0,0.0,0.0,0.0,0.0,0.0,0.0,0.0,0.0,0.0,-2.6504,-2.6387,-2.6356,-2.5762,-2.5625,-2.6074,-2.5859,-2.5547,-2.5156,-2.5566,-2.5527,-2.5089,-2.5966,-2.6289,-2.6094,-2.6543,-2.6621,-2.6426,-2.6875,-2.6797,-2.6484,-2.7344,-2.7266,-2.6797,-2.7656,-2.7885,-2.7708,0.0,0.0,0.0,0.0,0.0,0.0,0.0,0.0,0.0,0.0,0.0,0.0,0.0,0.0,0.0,0.0,0.0,0.0,0.0,0.0,0.0,-4.2867,-4.3776,-4.3795,-4.2789,-4.289,-4.1751,-3.9363,-3.954,-4.0686,-4.2902,-4.4931,-4.6398,-4.7336,-4.7633,-4.7021,-4.5793,-4.4946,-4.4359,-4.3975,-4.3596,-4.3413,-4.3166,-4.214,-4.1076,-4.0031,-3.9421,-3.8274,-3.7052,-3.7013,0.0,0.0,0.0,0.0,-2.885,-2.7619,-2.7203,-2.7176,-2.7395,-2.8906,-3.0976,-3.3281,-3.4277,-3.4719,-3.4832,-3.2496,-3.0122,-2.9529,-2.9244,-2.8494,-2.6325,-2.5895,-2.5644,-2.4952,-2.6083,0.0,0.0,0.0,0.0,0.0,0.0,0.0,0.0,0.0,0.0,0.0,0.0,0.0,-2.6172,-2.6152,-2.5957,-2.5479,-2.5156,-2.5008,-2.5008,-2.5086,-2.4715,-2.3906,-2.4551,-2.4609,-2.4219,-2.4914,-2.5284,-2.5362,-2.5499,-2.5538,-2.5499,-2.5977,-2.5937,-2.5693,-2.6875,-2.7109,-2.6894,-2.7754,-2.7891,-2.7767,0.0,0.0,0.0,0.0,0.0,0.0,0.0,0.0,0.0,0.0,-4.3021,-4.2623,0.0,0.0,0.0,0.0,0.0,0.0,0.0,0.0,0.0,-4.254,-4.1945,-4.181,-4.2183,-4.1187,-4.0059,-3.8899,-3.9607,-4.0468,-4.1501,-4.2425,-4.4087,-4.626,-4.4965,-4.471,-4.5186,-4.3679,-4.2976,-4.2887,-4.2673,-4.2228,-4.1613,-4.0731,-4.0263,-4.0031,-3.9421,-3.9054,-3.8813,-3.8658,-3.749,0.0,0.0,0.0,-3.0897,-2.8499,-2.7767,-2.7586,-2.6793,-2.8906,-3.1601,-3.2695,-3.3848,-3.4282,-3.2796,-3.1149,-2.9512,-2.783,-2.6728,-2.5861,-2.4959,-2.4589,-2.4277,-2.3843,-2.5617,0.0,0.0,0.0,0.0,0.0,0.0,0.0,0.0,0.0,0.0,0.0,0.0,0.0,-2.5341,-2.5302,-2.5039,-2.4609,-2.4531,-2.4512,-2.4512,-2.4883,-2.4824,-2.4336,-2.4082,-2.373,-2.3276,-2.3393,-2.3647,-2.4102,-2.4844,-2.4941,-2.4629,-2.5059,-2.5262,-2.5215,-2.5781,-2.5908,-2.5966,-2.6875,-2.7383,-2.7728,0.0,0.0,0.0,0.0,0.0,0.0,0.0,0.0,0.0,0.0,0.0,-4.2331,0.0,0.0,0.0,-3.9683,0.0,0.0,0.0,0.0,0.0,-4.1434,-4.1402,-4.1032,-4.0214,-3.9687,-3.878,-3.7441,-3.7816,-3.8803,-4.0338,-4.0398,-4.2301,-4.5573,-4.4235,-4.3892,-4.4231,-4.2783,-4.2407,-4.2659,-4.2063,-4.1661,-4.128,-4.0051,-3.9596,-3.9509,-3.887,-3.8638,-3.8638,-3.8524,-3.7978,-3.7088,-3.568,0.0,0.0,0.0,-2.8207,-2.7119,-2.7365,-2.8555,-3.0156,-3.1992,-3.2676,-3.2859,-3.281,-3.0897,-2.8932,-2.8193,-2.6397,-2.4847,-2.4379,-2.4174,-2.391,-2.3398,-2.4796,0.0,0.0,0.0,0.0,0.0,0.0,0.0,0.0,0.0,0.0,0.0,0.0,-2.5488,-2.5145,-2.4656,-2.4258,-2.4062,-2.3828,-2.3828,-2.4062,-2.4258,-2.4258,-2.4062,-2.3867,-2.3555,-2.3101,-2.3101,-2.3198,-2.3437,-2.3828,-2.3887,-2.3686,-2.418,-2.4199,-2.4082,-2.5,-2.5371,-2.5469,-2.6348,-2.709,-2.7728,0.0,0.0,0.0,0.0,0.0,0.0,0.0,0.0,0.0,0.0,0.0,0.0,0.0,0.0,0.0,0.0,-3.9044,0.0,0.0,0.0,0.0,-4.0052,-4.0403,-3.9816,-3.8117,-3.8143,-3.7587,-3.6405,-3.6556,-3.7838,-4.0099,-3.9396,-4.126,-4.505,-4.3763,-4.3236,-4.3296,-4.2334,-4.2196,-4.2536,-4.1656,-4.12,-4.0938,-3.9702,-3.9102,-3.887,-3.8376,-3.8202,-3.8202,-3.8202,-3.8089,-3.7805,-3.6694,-3.5014,0.0,0.0,0.0,-2.6903,-2.7732,-2.814,-2.8765,-3.0839,-3.1269,-3.1484,-3.2676,-3.05,-2.8345,-2.8592,-2.6436,-2.4349,-2.4013,-2.3954,-2.3793,-2.331,-2.427,0.0,0.0,0.0,0.0,0.0,0.0,0.0,0.0,0.0,0.0,0.0,0.0,-2.5067,-2.4902,-2.4199,-2.373,-2.3633,-2.3257,-2.3257,-2.3633,-2.373,-2.3848,-2.3945,-2.3848,-2.3672,-2.3413,-2.3198,-2.3159,-2.3257,-2.314,-2.3101,-2.312,-2.3496,-2.3437,-2.3198,-2.4199,-2.4648,-2.4891,-2.5605,-2.6504,-2.7363,0.0,0.0,0.0,0.0,0.0,0.0,0.0,0.0,0.0,0.0,0.0,0.0,-4.1204,-4.0525,-3.9886,-3.9247,-3.8609,-3.8522,-3.916,-3.9548,0.0,-3.8456,-3.8166,0.0,-3.6524,-3.655,-3.6477,-3.6405,-3.6885,-3.8542,-4.1175,-4.0149,-4.1433,-4.454,-4.2756,-4.2219,-4.2629,-4.2389,-4.2267,-4.2277,-4.143,-4.0728,-4.0089,-3.945,-3.8812,-3.826,-3.8202,-3.8202,-3.8202,-3.8202,-3.8202,-3.8127,-3.7872,-3.7127,-3.5884,0.0,0.0,0.0,-2.7259,-2.7742,-2.8442,-2.8967,-2.9687,-3.0508,-3.1406,-2.9477,-2.7644,-2.8083,-2.6008,-2.4013,-2.3676,-2.3618,-2.3618,-2.3574,-2.4423,0.0,0.0,0.0,0.0,0.0,0.0,0.0,0.0,0.0,0.0,0.0,0.0,-2.493,-2.4473,-2.4023,-2.3594,-2.314,-2.3101,-2.3101,-2.314,-2.3574,-2.3984,-2.4375,-2.3984,-2.3984,-2.4316,-2.3471,-2.3315,-2.373,-2.3276,-2.3101,-2.3101,-2.312,-2.312,-2.3101,-2.3179,-2.3496,-2.3906,-2.4355,-2.5332,-2.6504,0.0,0.0,0.0,0.0,0.0,0.0,0.0,0.0,0.0,0.0,0.0,0.0,0.0,-4.0873,-4.0321,-3.9305,-3.8986,-3.9102,-3.9741,-4.0302,0.0,-3.8358,-3.8532,-3.7978,-3.6452,-3.6405,-3.6405,-3.6405,-3.6606,-3.7538,-3.9195,-3.917,-4.0174,-4.1932,-4.1299,-4.1415,-4.2066,-4.1368,-4.0923,-4.0748,-3.9711,-3.9228,-3.911,-3.8086,-3.7921,-3.8202,-3.8202,-3.8202,-3.8202,-3.8202,-3.8202,-3.8202,-3.8127,-3.7168,-3.5488,-3.2449,-2.9745,-2.7787,-2.7853,-2.704,-2.6587,-2.8107,-2.8331,-2.8516,-2.9941,-2.904,-2.7794,-2.7452,-2.6113,-2.4665,-2.3466,-2.3457,-2.353,-2.331,-2.3554,0.0,0.0,0.0,0.0,0.0,0.0,0.0,0.0,0.0,0.0,0.0,0.0,0.0,-2.4414,-2.375,-2.3257,-2.3101,-2.3101,-2.3101,-2.3101,-2.3848,-2.3984,-2.3549,-2.373,-2.3867,-2.3984,-2.3354,-2.3379,-2.3769,-2.3276,-2.3101,-2.3101,-2.3101,-2.3101,-2.3101,-2.3101,-2.3398,-2.3887,-2.457,-2.5488,-2.6484,0.0,0.0,0.0,0.0,0.0,0.0,0.0,0.0,0.0,-4.2145,0.0,0.0,0.0,0.0,-3.9722,-3.866,-3.8547,-3.8717,-3.9114,-3.9779,-3.9452,-3.788,-3.8399,-3.8024,-3.6452,-3.6405,-3.6405,-3.6405,-3.6405,-3.7084,-3.8291,-3.8492,-3.9371,-4.0724,-4.0199,-4.0615,-4.1672,-4.1049,-4.0676,-4.0261,-3.9042,-3.8671,-3.8755,-3.8081,-3.8054,-3.8418,-3.8958,-3.8899,-3.8551,-3.8551,-3.826,-3.7941,-3.8144,-3.729,-3.5713,-3.3215,-3.0933,-2.9192,-2.8993,-2.7471,-2.625,-2.7565,-2.744,-2.7379,-2.8682,-2.8125,-2.7218,-2.7041,-2.5807,-2.4483,-2.352,-2.3207,-2.312,-2.3106,-2.3106,0.0,0.0,0.0,0.0,0.0,0.0,0.0,0.0,0.0,0.0,0.0,0.0,0.0,-2.4414,-2.3549,-2.3101,-2.3101,-2.3101,-2.3101,-2.3101,-2.3666,-2.3725,-2.3359,-2.3496,-2.373,-2.3984,-2.3354,-2.3379,-2.3769,-2.3276,-2.3101,-2.3101,-2.3101,-2.3101,-2.3101,-2.3101,-2.3276,-2.3652,-2.4375,-2.5293,-2.625,0.0,0.0,0.0,0.0,0.0,0.0,0.0,0.0,-4.1587,-4.1587,0.0,0.0,0.0,0.0,0.0,-3.7427,-3.74,-3.7373,-3.7373,-3.8,-3.7863,-3.6843,0.0,0.0,-3.6405,-3.6405,-3.6405,-3.6405,-3.6405,-3.7235,-3.8844,-3.8241,-3.9145,-4.1125,-3.9597,-3.9772,-4.1229,-4.1647,-4.1487,-4.0911,-3.9593,-3.9033,-3.9112,-3.9491,-3.9214,-3.8833,-4.0412,-4.0184,-3.9151,-3.9151,-3.8339,-3.7447,-3.8028,-3.7618,-3.6831,-3.6033,-3.4055,-3.1836,0.0,0.0,0.0,-2.7205,-2.709,-2.7173,-2.7574,-2.665,-2.5971,-2.6792,-2.5065,-2.3478,-2.3826,-2.2974,-2.2434,-2.2988,-2.3076,0.0,0.0,0.0,0.0,0.0,0.0,0.0,0.0,0.0,0.0,0.0,0.0,-2.4453,-2.4434,-2.3569,-2.3101,-2.3101,-2.3101,-2.3101,-2.3101,-2.3101,-2.3315,-2.3769,-2.334,-2.353,-2.4375,-2.3471,-2.3379,-2.3769,-2.3276,-2.3101,-2.3101,-2.3101,-2.3101,-2.3101,-2.3101,-2.3101,-2.314,-2.3652,-2.4629,-2.5674,0.0,0.0,0.0,0.0,0.0,0.0,-4.2721,-4.1755,-4.1105,0.0,0.0,0.0,-3.9203,-3.8942,-3.8925,-3.9168,-3.9168,-3.905,-3.8705,-3.8857,-3.8523,-3.756,-3.7717,-3.7361,-3.6405,-3.6405,-3.6405,-3.6405,-3.6405,-3.6656,-3.7109,-3.7312,-3.7939,-3.8944,-3.9295,-3.9496,-3.9521,-3.9221,-3.922,-3.9398,-3.8213,-3.7883,-3.8036,-3.7723,-3.7634,-3.7741,-3.8185,-3.8308,-3.8184,-3.8184,-3.8073,-3.797,-3.8144,-3.729,-3.6175,-3.5871,-3.4235,-3.2292,-3.1015,0.0,0.0,0.0,0.0,0.0,-2.6268,-2.6488,-2.6526,-2.5795,-2.5576,-2.5147,-2.3693,-2.3454,-2.3213,-2.2585,-2.2447,0.0,0.0,0.0,0.0,0.0,0.0,0.0,0.0,0.0,0.0,0.0,-2.5762,-2.5234,-2.4902,-2.4082,-2.3457,-2.3101,-2.3101,-2.3101,-2.3101,-2.3101,-2.3159,-2.3276,-2.3159,-2.3374,-2.3945,-2.3354,-2.3379,-2.3769,-2.3276,-2.3101,-2.3101,-2.3101,-2.3101,-2.3101,-2.3101,-2.3101,-2.3218,-2.4316,-2.4941,-2.5391,0.0,0.0,0.0,0.0,0.0,-4.3242,-4.2939,-4.1796,-4.1048,0.0,0.0,0.0,-3.8719,-3.904,-3.9228,-3.9092,-3.9092,-3.8903,-3.8392,-3.8129,-3.7795,-3.7222,-3.7222,-3.6943,-3.6405,-3.6405,-3.6405,-3.6405,-3.6405,-3.6405,-3.643,-3.7161,-3.7588,-3.7713,-3.8592,-3.8818,-3.8467,-3.7914,-3.814,-3.8818,-3.7638,-3.7447,-3.7818,-3.769,-3.7588,-3.7624,-3.826,-3.8528,-3.8527,-3.8274,-3.8193,-3.8069,-3.7509,-3.6883,-3.6273,-3.5809,-3.4656,-3.3242,-3.2108,-3.0918,-2.9631,-2.8174,0.0,0.0,-2.6398,-2.6239,-2.6133,0.0,-2.52,-2.4681,-2.3976,-2.3618,-2.336,-2.3038,-2.2582,0.0,0.0,0.0,0.0,0.0,0.0,0.0,0.0,0.0,0.0,-2.6902,-2.6191,-2.5391,-2.457,-2.4062,-2.3594,-2.3101,-2.3101,-2.3101,-2.3101,-2.3101,-2.3101,-2.3101,-2.3101,-2.3237,-2.3516,-2.3218,-2.3237,-2.3496,-2.3198,-2.3101,-2.3101,-2.3101,-2.3101,-2.3101,-2.3101,-2.3101,-2.3237,-2.4394,-2.4922,-2.5243,0.0,0.0,-4.365,-4.4084,-4.4211,-4.4238,-4.4157,-4.2517,-4.1357,0.0,-3.9726,-3.8467,-3.8467,-3.9245,-3.9371,-3.8366,-3.8165,-3.7839,-3.7236,-3.6707,-3.6405,-3.6405,-3.6405,-3.6405,-3.6405,-3.6405,-3.643,-3.6505,-3.6505,-3.6531,-3.6606,-3.7538,-3.7713,-3.7211,-3.7764,-3.7939,-3.7789,-3.7437,-3.7814,-3.8642,-3.7663,-3.7563,-3.8038,-3.8467,-3.8225,-3.7828,-3.9192,-3.9519,-3.9173,-3.8615,-3.8252,0.0,-3.6465,-3.6325,-3.6452,-3.5709,-3.5009,-3.4286,-3.332,-3.2444,-3.1361,-2.9456,-2.8866,0.0,-2.737,-2.6236,-2.5599,0.0,-2.4609,-2.333,-2.4404,-2.3715,-2.3202,-2.3781,-2.3086,0.0,0.0,0.0,0.0,0.0,0.0,0.0,-2.5846,-2.581,-2.6159,-2.7311,-2.6356,-2.5109,-2.3867,-2.3828,-2.3633,-2.312,-2.3101,-2.3101,-2.3101,-2.3101,-2.3101,-2.3101,-2.3101,-2.3101,-2.3101,-2.3101,-2.3101,-2.3101,-2.3101,-2.3101,-2.3101,-2.3101,-2.3101,-2.3101,-2.3101,-2.3101,-2.3198,-2.4102,-2.4668,-2.5106,0.0,0.0,-4.2544,-4.2633,-4.299,-4.3143,-4.2684,-4.2268,-4.2309,-4.3194,-4.2196,-4.1408,-4.1408,-4.0752,-4.0275,-4.0049,-3.922,-3.8266,-3.7262,-3.6707,-3.6405,-3.6405,-3.6405,-3.6405,-3.6405,-3.6405,-3.6631,-3.701,-3.701,-3.7236,-3.7688,-3.7914,-3.7713,-3.7211,-3.7764,-3.7513,-3.6782,-3.7513,-3.7713,-3.7538,-3.7764,-3.7914,-3.7939,-3.763,-3.7169,-3.6637,-3.6467,-3.656,-3.6731,-3.6862,-3.6907,-3.6769,0.0,0.0,0.0,-3.4662,0.0,-3.411,-3.2592,-3.2405,0.0,0.0,0.0,0.0,-2.7561,-2.7315,-2.7247,0.0,-2.5781,-2.5059,-2.467,-2.4424,-2.3868,-2.2758,-2.2974,0.0,0.0,0.0,0.0,0.0,0.0,0.0,0.0,-2.4013,-2.4686,-2.534,-2.5561,-2.5109,-2.3867,-2.4102,-2.3945,-2.312,-2.3101,-2.3101,-2.3101,-2.3101,-2.3101,-2.3101,-2.3101,-2.3101,-2.3101,-2.3101,-2.3101,-2.3101,-2.3101,-2.3101,-2.3101,-2.3101,-2.3101,-2.3101,-2.3101,-2.3101,-2.3198,-2.4102,-2.4473,-2.4648,-4.1329,-4.1835,-4.2288,-4.2564,-4.2785,-4.3062,-4.3338,-4.2911,-4.2861,-4.3689,-4.3087,-4.2514,-4.2238,-4.1656,-4.1103,-4.0576,-3.9747,0.0,0.0,-3.7086,-3.6707,-3.6405,-3.6405,-3.6531,-3.6807,-3.6556,-3.6681,-3.7186,-3.691,-3.6958,-3.7186,-3.7462,-3.7113,-3.6241,-3.7188,-3.6937,-3.589,-3.7364,-3.7839,-3.7588,-3.7588,-3.7588,-3.7538,-3.6985,-3.6656,-3.638,-3.6056,-3.6151,-3.6402,-3.6515,-3.651,0.0,-3.601,-3.5152,-3.4366,0.0,-3.4253,-3.4137,0.0,0.0,0.0,-3.1216,0.0,0.0,0.0,-2.8005,-2.758,-2.7327,-2.6322,-2.5568,-2.5912,-2.571,-2.5374,-2.4741,-2.449,-2.4324,0.0,0.0,0.0,0.0,0.0,0.0,0.0,-2.4682,-2.5089,-2.522,-2.5759,-2.5391,-2.3867,-2.418,-2.4023,-2.312,-2.3101,-2.3101,-2.3101,-2.3101,-2.3101,-2.3101,-2.3101,-2.3101,-2.3101,-2.3101,-2.3101,-2.3101,-2.3101,-2.3101,-2.3101,-2.3101,-2.3101,-2.3101,-2.3101,-2.3218,-2.3535,-2.418,-2.4551,-2.4844,-4.0752,-4.1304,-4.2007,-4.2559,-4.2836,-4.3288,-4.4166,-4.3639,-4.3263,-4.3589,-4.3438,-4.3037,-4.2439,-4.2187,-4.1731,-4.1053,-3.9998,-3.912,-3.8517,-3.7663,-3.6935,-3.643,-3.6558,-3.6686,-3.6812,-3.6686,-3.6787,-3.7138,-3.6835,-3.6684,-3.6636,-3.7088,-3.6618,-3.5459,-3.642,-3.6343,-3.5453,-3.7091,-3.774,-3.7663,-3.7389,-3.7364,-3.7437,-3.6832,-3.6556,-3.6531,-3.6204,-3.6192,-3.6397,-3.6279,-3.6171,-3.6029,-3.5478,-3.4847,0.0,0.0,0.0,0.0,0.0,0.0,0.0,0.0,0.0,-3.1101,0.0,0.0,0.0,-2.8231,0.0,-2.6063,-2.7105,0.0,0.0,0.0,0.0,0.0,0.0,0.0,0.0,0.0,0.0,0.0,0.0,-2.5516,-2.5554,-2.5586,-2.6016,-2.5547,-2.3887,-2.418,-2.4023,-2.312,-2.3101,-2.3101,-2.3101,-2.3101,-2.3101,-2.3101,-2.3101,-2.3101,-2.3101,-2.3101,-2.3101,-2.3101,-2.3101,-2.3101,-2.3101,-2.3101,-2.3101,-2.3101,-2.3101,-2.3398,-2.3848,-2.4258,-2.4687,-2.5184,-4.11,-4.0953,-4.0877,-4.1376,-4.2333,-4.3011,-4.3137,0.0,-4.3564,-4.3137,-4.3865,-4.4041,-4.2986,-4.2007,-4.1781,-4.261,-3.9948,-3.8768,-4.0149,-3.8316,-3.696,-3.6433,-3.7094,-3.6798,-3.5453,-3.6797,-3.727,-3.6822,-3.7515,-3.7715,-3.7469,-3.7518,-3.7097,-3.6259,-3.5938,-3.5812,-3.5953,-3.6721,-3.6866,-3.6634,-3.7293,-3.8017,0.0,-3.7487,-3.7086,-3.6885,-3.5429,-3.4896,-3.4911,0.0,-3.4939,-3.497,0.0,-3.476,-3.3953,-3.3916,0.0,0.0,0.0,0.0,0.0,0.0,-3.2277,0.0,0.0,0.0,-3.0223,-2.9361,0.0,0.0,-2.7268,0.0,0.0,0.0,0.0,0.0,0.0,0.0,0.0,0.0,0.0,0.0,0.0,0.0,-2.4541,-2.5128,-2.5566,-2.5215,-2.3867,-2.418,-2.4023,-2.312,-2.3101,-2.3101,-2.3101,-2.3101,-2.3101,-2.3101,-2.3101,-2.3101,-2.3101,-2.3101,-2.3101,-2.3101,-2.3101,-2.3101,-2.3101,-2.3101,-2.3101,-2.3101,-2.3101,-2.3398,-2.3848,-2.4258,-2.4687,-2.5184,-4.035,-4.045,-4.0701,-4.12,-4.1982,-4.2766,-4.3363,-4.4217,-4.4568,-4.4016,-4.4342,-4.4568,-4.4443,-4.3162,-4.2484,-4.2936,-4.0943,-3.9688,-3.9815,-3.859,-3.7593,-3.6874,-3.7345,-3.7221,-3.6381,-3.6727,-3.6801,-3.6554,-3.6578,-3.6528,-3.6431,-3.6431,-3.5989,-3.5233,-3.518,-3.5081,-3.5155,-3.616,-3.6726,-3.6899,-3.7592,-3.8112,0.0,-3.6824,-3.6079,-3.5682,-3.4803,-3.4499,-3.447,0.0,-3.4198,0.0,0.0,0.0,0.0,0.0,0.0,0.0,0.0,0.0,0.0,0.0,0.0,0.0,-3.1516,0.0,-3.0759,0.0,0.0,0.0,0.0,0.0,0.0,0.0,-2.8521,0.0,0.0,0.0,0.0,0.0,0.0,0.0,0.0,0.0,0.0,0.0,0.0,-2.5109,-2.3867,-2.4434,-2.4277,-2.314,-2.3335,-2.3398,-2.3101,-2.3101,-2.3101,-2.3101,-2.3101,-2.3101,-2.3101,-2.3101,-2.3101,-2.3101,-2.3101,-2.3101,-2.3101,-2.3101,-2.3101,-2.3101,-2.3101,-2.3398,-2.3848,-2.4258,-2.4687,-2.5184,-3.8998,-3.9633,-4.0242,-4.0536,-4.1168,-4.2028,-4.3187,-4.4041,-4.4468,-4.4217,-4.4166,-4.4269,-4.4472,-4.3729,-4.3219,-4.316,-4.188,-4.0774,-4.0056,-3.9082,-3.8012,-3.6825,-3.7466,-3.7367,-3.6431,-3.6603,-3.6505,-3.6064,-3.5916,-3.5793,-3.5697,-3.555,-3.5233,-3.4703,-3.4602,-3.46,-3.4653,-3.5357,-3.5915,-3.6352,-3.6555,-3.6675,-3.6688,-3.5917,-3.5276,-3.4735,-3.4379,-3.4272,-3.4334,-3.384,-3.4209,0.0,-3.4385,0.0,0.0,0.0,0.0,0.0,-3.2896,0.0,0.0,0.0,0.0,0.0,0.0,0.0,0.0,0.0,0.0,0.0,0.0,0.0,0.0,0.0,0.0,-2.964,0.0,0.0,0.0,0.0,0.0,0.0,0.0,0.0,0.0,0.0,0.0,0.0,-2.3867,-2.4656,-2.4473,-2.314,-2.3574,-2.3574,-2.3101,-2.3101,-2.3101,-2.3101,-2.3101,-2.3101,-2.3101,-2.3101,-2.3101,-2.3101,-2.3101,-2.3101,-2.3101,-2.3101,-2.3101,-2.3101,-2.3101,-2.3398,-2.3848,-2.4258,-2.4766,-2.5293,-3.718,-3.8344,-3.9231,-3.8942,-3.9597,-4.0661,-4.2032,-4.2288,-4.2514,-4.2961,-4.3037,-4.2789,-4.2126,-4.3085,-4.3671,-4.3469,-4.2354,-4.1668,-4.1723,-3.9861,-3.7882,-3.5768,-3.7407,-3.7156,-3.4554,-3.6524,-3.6792,-3.526,-3.599,-3.626,-3.5989,-3.5454,-3.5332,-3.5521,-3.4487,-3.4462,-3.509,-3.4115,-3.3819,-3.4038,-3.3266,-3.3124,-3.3519,0.0,-3.5252,-3.4735,-3.4195,0.0,0.0,-3.4959,-3.5133,0.0,0.0,0.0,0.0,0.0,0.0,0.0,0.0,0.0,0.0,-3.1779,0.0,0.0,0.0,0.0,-3.1548,0.0,0.0,0.0,0.0,0.0,0.0,0.0,0.0,0.0,0.0,0.0,0.0,0.0,0.0,0.0,0.0,0.0,0.0,0.0,0.0,0.0,-2.3867,-2.4656,-2.4473,-2.314,-2.3574,-2.3574,-2.3101,-2.3101,-2.3101,-2.3101,-2.3101,-2.3101,-2.3101,-2.3101,-2.3101,-2.3101,-2.3101,-2.3101,-2.3101,-2.3101,-2.3101,-2.3101,-2.3101,-2.3398,-2.3848,-2.4258,-2.4914,-2.5674,-3.5695,-3.6077,-3.6402,-3.6457,-3.7037,-3.8122,-4.0082,-4.0229,-4.0751,-4.2699,-4.2174,-4.1923,-4.2616,-4.2471,-4.2223,-4.1838,-4.0418,-3.9265,-3.8655,-3.8137,-3.7251,-3.6057,-3.7536,-3.7709,-3.6247,-3.6973,-3.6925,-3.5982,-3.5912,-3.6009,-3.6223,-3.533,-3.4793,-3.447,-3.3417,-3.2889,-3.2801,-3.2426,-3.2527,-3.2942,0.0,-3.2362,-3.2303,0.0,0.0,-3.417,-3.3457,-3.3231,0.0,-3.3375,-3.3592,-3.3814,-3.3444,-3.3153,-3.2911,-3.272,-3.2277,0.0,0.0,0.0,-3.2133,-3.2111,0.0,0.0,0.0,0.0,0.0,0.0,0.0,0.0,0.0,0.0,0.0,0.0,0.0,0.0,0.0,0.0,0.0,0.0,0.0,0.0,0.0,0.0,0.0,0.0,0.0,0.0,0.0,-2.4336,-2.418,-2.312,-2.3574,-2.3574,-2.3101,-2.3101,-2.3101,-2.3101,-2.3101,-2.3101,-2.3101,-2.3101,-2.3101,-2.3101,-2.3101,-2.3101,-2.3101,-2.3101,-2.3101,-2.3101,-2.3101,-2.3398,-2.3848,-2.4258,-2.4785,-2.5371,-3.4372,-3.422,-3.4314,-3.4869,-3.5469,-3.6466,-3.8216,-3.8834,-3.9797,-4.1639,-4.146,-4.1374,-4.2068,-4.1883,-4.1373,-4.0651,-3.9726,-3.8608,-3.7126,-3.7138,-3.6792,-3.5696,-3.7073,-3.7565,0.0,0.0,0.0,0.0,-3.5646,-3.5537,-3.601,-3.4567,-3.3779,-3.3598,-3.2555,-3.1934,-3.1586,-3.1154,-3.1172,0.0,0.0,-3.1279,0.0,0.0,-3.2787,-3.2507,0.0,-3.1918,-3.2328,-3.2319,-3.2783,-3.3224,-3.2533,-3.2391,-3.2328,-3.1766,-3.162,-3.1693,-3.184,-3.1879,0.0,-3.1869,-3.1792,0.0,-3.1608,0.0,0.0,0.0,0.0,0.0,0.0,0.0,0.0,0.0,0.0,0.0,0.0,-3.1137,0.0,0.0,0.0,0.0,0.0,0.0,0.0,0.0,0.0,0.0,0.0,0.0,-2.4023,-2.312,-2.3574,-2.3574,-2.3101,-2.3101,-2.3101,-2.3101,-2.3101,-2.3101,-2.3101,-2.3101,-2.3101,-2.3101,-2.3101,-2.3101,-2.3101,-2.3101,-2.3101,-2.3101,-2.3101,-2.3398,-2.3848,-2.4258,-2.4805,-2.5391,-3.3293,-3.288,-3.2991,-3.4099,-3.484,-3.5619,-3.6471,-3.7983,-3.9276,-3.9955,-4.0734,-4.0973,-4.0292,-4.1077,-4.1087,-3.983,-4.0189,-3.9393,-3.7022,-3.6987,0.0,0.0,-3.6122,-3.6758,-3.6504,0.0,0.0,0.0,0.0,-3.4811,-3.5291,-3.3218,-3.2472,-3.2887,-3.1949,-3.1462,-3.1338,-3.0276,-2.9828,-2.9828,-2.9828,-2.9828,-2.987,-3.0434,-3.0383,-2.9954,-2.9642,-3.0296,-3.1391,-3.1879,-3.2652,-3.3179,-3.2228,-3.2119,-3.2061,-3.0524,-3.0831,-3.1573,-3.1091,-3.1356,-3.1621,-3.1115,0.0,0.0,0.0,0.0,-3.1741,0.0,0.0,0.0,0.0,0.0,0.0,0.0,0.0,0.0,0.0,0.0,0.0,0.0,0.0,0.0,0.0,0.0,0.0,0.0,0.0,0.0,0.0,0.0,-2.3978,-2.3159,-2.3594,-2.3613,-2.314,-2.312,-2.312,-2.3101,-2.3101,-2.3101,-2.3101,-2.3101,-2.3101,-2.3101,-2.3101,-2.3101,-2.3101,-2.3101,-2.3101,-2.3101,-2.3101,-2.3418,-2.3867,-2.4297,-2.4953,-2.5693,-3.1582,-3.1662,-3.1918,-3.2212,-3.2409,-3.3126,-3.496,-3.5356,-3.6292,-3.8678,-3.8863,-3.8889,-3.9042,-3.8939,-3.8537,-3.7599,-3.6757,0.0,0.0,0.0,0.0,-3.5587,-3.6409,-3.7324,-3.8161,-3.7049,-3.641,-3.6217,0.0,-3.4151,-3.4615,-3.2949,-3.205,-3.178,-3.08,-2.9746,-2.8701,-2.8727,-2.8708,-2.8708,-2.8708,-2.8708,0.0,0.0,-2.8439,-2.8431,-2.9507,-3.0092,-3.0385,-3.0116,-3.0019,-2.9872,-2.9308,-2.9621,-3.0113,-2.9782,-3.0355,-3.1187,-3.1428,-3.191,-3.225,-3.2106,-3.2178,-3.2346,0.0,0.0,0.0,0.0,0.0,0.0,0.0,0.0,0.0,0.0,0.0,0.0,0.0,0.0,0.0,-3.1339,0.0,0.0,0.0,0.0,0.0,0.0,0.0,0.0,0.0,0.0,0.0,-2.3633,-2.4043,-2.4043,-2.3633,-2.3633,-2.3457,-2.3101,-2.3101,-2.3101,-2.3101,-2.3101,-2.3101,-2.3101,-2.3101,-2.3101,-2.3101,-2.3101,-2.3101,-2.3101,-2.3101,-2.3549,-2.4316,-2.4746,-2.5254,-2.5693,-3.1543,-3.1641,-3.1797,-3.1797,-3.2109,-3.2824,-3.4202,-3.4259,-3.4871,-3.7172,-3.7441,-3.748,-3.7715,-3.7519,-3.7187,-3.6719,-3.582,0.0,-3.4121,0.0,0.0,-3.4997,-3.5396,-3.6353,-3.7919,-3.6114,0.0,-3.6177,0.0,-3.2873,-3.3322,-3.1566,-3.0578,-3.0261,-2.952,-2.8727,-2.7949,-2.8184,-2.8398,-2.8555,-2.8359,0.0,0.0,-2.8027,-2.793,-2.8068,-2.8962,-2.9321,-2.9366,-2.9062,-2.9074,-2.9157,-2.8506,-2.8739,-2.9262,-2.8656,-2.9168,-3.0093,-3.0843,-3.1449,-3.2037,-3.2687,-3.2851,-3.2923,-3.3212,-3.2875,-3.2563,0.0,0.0,0.0,0.0,0.0,0.0,0.0,0.0,0.0,0.0,0.0,0.0,0.0,-3.0097,0.0,0.0,0.0,0.0,0.0,0.0,0.0,0.0,0.0,0.0,-2.3809,-2.4375,-2.4492,-2.4062,-2.4062,-2.3848,-2.3418,-2.3179,-2.3198,-2.3418,-2.3418,-2.3418,-2.3418,-2.3418,-2.3276,-2.3101,-2.3101,-2.3198,-2.3437,-2.3588,-2.4102,-2.4727,-2.498,-2.5352,-2.5693,-3.2307,-3.2266,-3.2324,-3.2266,-3.2949,-3.3691,-3.4238,-3.4336,0.0,-3.6016,0.0,-3.6758,-3.6758,-3.6699,-3.6621,-3.6523,-3.6094,-3.5351,-3.416,-3.4355,-3.4421,-3.4139,-3.3953,-3.4822,-3.6713,-3.4692,-3.4273,0.0,-3.2733,-3.1402,-3.1717,-2.9853,-2.8965,-2.8906,-2.8476,-2.8301,-2.8301,-2.8301,-2.8496,-2.8809,-2.8437,-2.8301,-2.8301,-2.8301,-2.8301,-2.8301,-2.8301,-2.8329,-2.8389,-2.8389,-2.8927,-2.9455,-2.8533,-2.8692,-2.8916,-2.7621,-2.7995,-2.9064,-2.9942,-3.0651,-3.1506,-3.2841,-3.3287,-3.3404,-3.3477,-3.3044,-3.2755,-3.3284,-3.2587,0.0,0.0,0.0,0.0,0.0,0.0,0.0,0.0,0.0,0.0,0.0,0.0,0.0,0.0,0.0,0.0,0.0,0.0,0.0,0.0,0.0,0.0,-2.3887,-2.4707,0.0,-2.459,0.0,-2.4297,-2.3867,-2.3393,-2.3354,-2.3711,-2.3769,-2.3769,-2.3711,-2.3769,-2.3535,-2.3101,-2.3159,-2.3477,-2.3906,-2.4336,-2.4727,-2.5125,-2.5184,-2.541,-2.5693,-3.2307,-3.2734,-3.3086,-3.2734,-3.3398,-3.4336,-3.5508,-3.5684,-3.6016,-3.6953,-3.7148,-3.7187,-3.7187,-3.6875,-3.6387,-3.5684,-3.5195,0.0,0.0,0.0,0.0,-3.5087,-3.4364,-3.456,-3.6046,-3.362,-3.2637,-3.3289,-3.1337,-3.0458,-3.0517,-2.98,-2.9258,-2.8906,-2.8476,-2.8301,-2.8301,-2.8301,0.0,-2.8398,-2.832,-2.8301,-2.8301,-2.8301,-2.8301,-2.8301,-2.8301,-2.8074,-2.7851,-2.7851,-2.7716,-2.7421,-2.6953,-2.7618,-2.8536,-2.7931,-2.8748,-2.9785,-2.9978,-3.108,-3.2213,-3.2499,-3.3219,-3.3982,-3.4463,-3.3837,-3.3308,-3.3766,-3.3428,-3.3044,-3.314,0.0,0.0,0.0,0.0,0.0,0.0,0.0,0.0,0.0,0.0,-2.9711,0.0,0.0,0.0,0.0,0.0,0.0,0.0,0.0,0.0,0.0,0.0,0.0,0.0,0.0,0.0,-2.4297,-2.3887,-2.3535,-2.3218,-2.3633,-2.3594,-2.3237,-2.3633,-2.3535,-2.312,-2.3535,-2.3926,-2.4355,-2.4785,-2.5047,-2.5165,-2.5488,-2.5615,-2.5693,-3.3476,-3.3633,-3.3769,-3.3789,-3.4512,0.0,0.0,-3.6543,-3.668,-3.6641,-3.623,-3.5957,-3.5957,-3.6172,-3.6074,-3.5449,-3.5195,-3.4785,-3.4121,-3.3887,-3.397,-3.434,-3.3497,-3.3614,-3.4837,-3.2153,-3.1421,-3.2685,-3.0581,-2.9648,-2.9863,0.0,0.0,-2.8574,-2.8379,-2.8535,0.0,0.0,0.0,-2.8594,-2.8379,-2.8301,-2.8301,-2.8301,-2.8301,-2.8301,-2.8301,-2.8164,-2.7988,-2.7988,-2.7851,-2.7598,-2.7187,-2.7526,-2.8015,-2.7573,-2.7923,-2.8587,-2.9112,-2.9854,-3.057,-3.118,-3.2076,-3.2912,-3.317,-3.3244,-3.3428,-3.3886,-3.3645,-3.3284,-3.3284,-3.3092,0.0,0.0,0.0,0.0,0.0,0.0,0.0,0.0,0.0,0.0,0.0,0.0,0.0,0.0,0.0,0.0,0.0,0.0,0.0,0.0,0.0,0.0,0.0,0.0,0.0,-2.4414,-2.3984,-2.3672,-2.3477,-2.3691,-2.3672,-2.3496,-2.3926,-2.375,-2.314,-2.3848,-2.4375,-2.4805,-2.5234,-2.541,-2.5449,-2.5615,-2.5693,-2.5693,-3.4746,-3.459,-3.4492,-3.4902,-3.5625,-3.6269,-3.6621,-3.6953,-3.6992,-3.6484,-3.5586,-3.5019,-3.5117,-3.5664,-3.5801,-3.5293,-3.5234,-3.4883,-3.3984,-3.3945,-3.3789,-3.3437,-3.2617,-3.2633,-3.3494,-3.1045,-3.0548,0.0,-3.0135,-2.9277,0.0,0.0,0.0,0.0,0.0,0.0,0.0,0.0,-2.8574,-2.875,-2.8418,-2.834,-2.8418,-2.8418,-2.8418,-2.8418,-2.8418,-2.8359,-2.8301,-2.8301,-2.8301,-2.8242,-2.791,-2.7845,-2.7734,-2.7383,-2.7285,-2.7471,-2.8198,-2.856,-2.894,-2.9725,-3.0726,-3.147,-3.147,-3.2346,-3.3267,-3.3625,-3.3671,-3.3621,-3.3621,-3.3525,0.0,0.0,0.0,0.0,0.0,0.0,0.0,0.0,0.0,0.0,-2.8277,0.0,0.0,0.0,0.0,-2.4883,-2.4434,-2.4824,0.0,0.0,0.0,-2.5732,-2.583,0.0,-2.5284,0.0,-2.4121,-2.3828,-2.3652,-2.375,-2.373,-2.3691,-2.4199,-2.4082,-2.3594,-2.4277,-2.4824,-2.5254,-2.5605,-2.5693,-2.5693,-2.5693,-2.5693,-2.5693,-3.5156,-3.5293,-3.541,-3.582,0.0,-3.6621,-3.666,-3.6699,-3.6973,-3.7656,-3.666,-3.6055,-3.6445,-3.6211,-3.5684,-3.4844,-3.4766,-3.4394,-3.3535,-3.3476,-3.3457,-3.3418,-3.2617,-3.2229,-3.235,-3.0898,-3.0233,0.0,0.0,-2.9707,0.0,0.0,0.0,0.0,0.0,0.0,0.0,-2.8574,-2.8672,-2.834,-2.832,-2.8516,-2.8867,-2.8867,-2.8867,-2.8867,-2.8867,-2.8613,-2.8301,-2.8301,-2.8301,-2.8281,-2.8242,-2.8242,-2.8223,-2.8184,-2.8164,-2.8139,-2.7852,-2.8511,-2.9155,-2.8819,-2.9606,-3.0436,-3.0436,-3.1569,-3.2663,-3.2709,-3.3739,-3.4679,-3.4679,-3.4246,-3.391,0.0,0.0,0.0,0.0,0.0,-3.2106,-3.1043,0.0,0.0,0.0,-2.8633,0.0,0.0,-2.5431,-2.4883,-2.4434,-2.4824,-2.493,-2.4492,0.0,-2.5869,-2.6328,-2.5937,0.0,-2.5047,-2.457,-2.3945,-2.3179,-2.3613,-2.3574,-2.3198,-2.4062,-2.459,-2.4949,-2.5028,-2.5273,-2.5635,-2.5674,-2.5693,-2.5693,-2.5693,-2.5693,-2.5693,0.0,0.0,0.0,0.0,0.0,0.0,0.0,-3.6992,-3.6797,-3.7129,-3.6504,-3.5996,-3.5918,-3.5742,-3.5293,-3.4394,-3.4316,-3.4062,-3.3457,-3.3418,-3.3301,-3.3066,-3.248,-3.2051,-3.1777,-3.0742,-3.0195,0.0,0.0,0.0,0.0,0.0,0.0,0.0,0.0,-2.8652,-2.8437,-2.8769,-2.8828,-2.8672,-2.8672,-2.8926,-2.9277,-2.9023,-2.9082,-2.9277,-2.9004,-2.8809,-2.8633,-2.8379,-2.8301,-2.8301,-2.8301,-2.8301,-2.8301,-2.8301,-2.8301,-2.8203,-2.7826,-2.7823,-2.7812,-2.7372,-2.8095,-2.8773,-2.8476,-2.9812,-3.1113,-3.1113,-3.2551,-3.4066,-3.4677,-3.4607,-3.4462,0.0,0.0,0.0,0.0,0.0,0.0,0.0,0.0,-2.9843,0.0,0.0,0.0,0.0,0.0,-2.5273,-2.4824,-2.4727,0.0,-2.5148,0.0,-2.5245,-2.5996,-2.5771,-2.5371,-2.4668,-2.4766,-2.4219,-2.312,-2.3594,-2.3828,-2.3881,-2.4258,-2.4824,-2.5449,-2.5176,-2.5332,-2.5693,-2.5693,-2.5849,-2.6094,-2.5791,-2.6005,-2.6426,-3.7168,0.0,-3.7051,0.0,-3.7246,-3.7012,-3.748,-3.6953,-3.6484,-3.6484,-3.6094,-3.5723,-3.543,-3.5273,-3.4883,-3.4141,-3.4082,-3.3887,-3.3457,-3.3418,-3.3242,-3.2812,-3.2383,0.0,-3.1523,-3.0781,-3.0332,-3.0195,-3.0195,0.0,0.0,0.0,0.0,0.0,-2.8555,-2.8496,-2.8555,-2.8672,-2.8809,-2.8926,-2.8926,-2.9258,-2.9726,-2.9414,-2.9492,-2.9707,-2.9394,-2.9141,-2.8867,-2.8574,-2.8476,-2.8457,-2.834,-2.8301,-2.8301,-2.8301,-2.8301,-2.8203,-2.7826,-2.7441,-2.7109,-2.668,-2.7013,-2.7354,-2.7056,-2.8348,-2.9817,-3.0395,-3.1706,-3.2951,-3.372,-3.3869,-3.3869,-3.3869,0.0,0.0,0.0,0.0,0.0,0.0,-2.9913,-2.8749,-2.6325,-2.6624,0.0,0.0,0.0,0.0,-2.4902,0.0,0.0,0.0,0.0,0.0,0.0,-2.5693,-2.5304,-2.4609,-2.4922,-2.4531,-2.3471,-2.3828,-2.4199,-2.4609,-2.4609,-2.5039,-2.5674,-2.5391,-2.5449,-2.5693,-2.5693,-2.5869,-2.6172,-2.5996,-2.6309,-2.6758,-3.7051,-3.7285,-3.7285,-3.7305,-3.7305,-3.7148,-3.6758,-3.6309,-3.6035,-3.6035,-3.5664,-3.541,-3.5391,-3.498,-3.4531,-3.4121,-3.4082,-3.3887,-3.3457,-3.3418,-3.3242,0.0,0.0,-3.1953,-3.1523,-3.1094,-3.0664,-3.0195,0.0,0.0,-2.8926,0.0,-2.8711,-2.832,-2.873,-2.8457,-2.7767,-2.8125,-2.8535,-2.8926,-2.8926,-2.9434,-3.0195,-3.0176,-3.0176,-3.0195,-3.0176,-2.9629,-2.8926,-2.8906,-2.8906,-2.8848,-2.8418,-2.8301,-2.8301,-2.8301,-2.8301,-2.8203,-2.7826,-2.7708,-2.7559,-2.7109,-2.6699,-2.6436,-2.6436,-2.7582,-2.9166,-3.1164,-3.1615,-3.1615,-3.1637,-3.1637,-3.1637,-3.1637,0.0,0.0,0.0,0.0,0.0,0.0,-2.8659,-2.7772,-2.5339,0.0,0.0,0.0,0.0,0.0,0.0,0.0,0.0,-2.4453,-2.5226,0.0,-2.5693,-2.5693,-2.5508,-2.5106,-2.5106,-2.4824,-2.4394,-2.4414,-2.4648,-2.5106,-2.5106,-2.5312,-2.5693,-2.5674,-2.5693,-2.5693,-2.5693,-2.5693,-2.5752,-2.623,-2.6387,-2.6445,-3.7969,-3.793,-3.7734,-3.7734,-3.7246,-3.6816,-3.6699,-3.6289,-3.5918,-3.5625,-3.5195,-3.4805,-3.4531,-3.4355,-3.3984,0.0,-3.3203,-3.3144,0.0,-3.2734,-3.25,-3.2383,-3.1953,-3.1523,-3.1094,-3.0957,-3.0664,-3.0195,0.0,0.0,0.0,-2.9492,-2.9297,-2.916,-2.8984,-2.8769,-2.8555,-2.8984,-2.9238,-2.9336,-2.9043,-2.9629,-3.0605,-3.0,-3.0137,-3.0625,-3.0312,-2.9844,-2.9355,-2.9355,-2.916,-2.8906,-2.8769,-2.8711,-2.8672,-2.8379,-2.8301,-2.8262,-2.8125,-2.7943,-2.7689,-2.75,-2.7363,-2.7187,-2.6875,-2.7168,-2.7834,-2.8893,-2.9648,-3.0274,-3.0983,-3.1396,-3.1586,-3.1586,0.0,0.0,0.0,0.0,0.0,0.0,-2.8351,-2.7487,0.0,-2.6119,0.0,0.0,0.0,0.0,0.0,0.0,0.0,0.0,-2.5293,0.0,-2.5693,-2.5693,-2.5508,-2.5125,-2.5371,-2.5293,-2.4863,-2.4863,-2.4941,-2.5125,-2.5391,-2.5605,-2.5693,-2.5693,-2.5693,-2.5693,-2.5693,-2.5918,-2.6191,-2.6328,-2.6758,-2.7226,-3.7793,-3.7891,-3.7773,-3.7285,-3.6914,-3.6621,-3.6445,-3.6191,-3.5879,-3.5449,-3.498,-3.4531,-3.4121,-3.3926,0.0,-3.2851,-3.2793,-3.2734,-3.2578,-3.2324,-3.209,-3.1934,-3.166,-3.1328,-3.0898,0.0,0.0,-3.0449,-3.0566,-3.041,-2.9961,-2.9687,-2.9626,-2.9607,-2.9277,-2.916,-2.918,-2.9453,-2.9668,-2.9785,-2.9512,-3.0,-3.082,-3.0273,-3.041,-3.0859,-3.0566,-3.0176,-2.9805,-2.9805,-2.9629,-2.9375,-2.9219,-2.916,-2.9043,-2.8457,-2.8301,-2.8301,-2.8301,-2.8105,-2.7963,-2.7963,-2.7826,-2.7559,-2.7109,-2.6894,-2.6999,-2.7723,-2.8198,-2.8768,-2.9743,-3.0065,-3.0191,-3.0328,0.0,-3.0043,-2.9749,0.0,0.0,0.0,0.0,0.0,0.0,-2.5886,0.0,0.0,0.0,0.0,0.0,0.0,0.0,-2.5488,-2.5371,0.0,-2.5693,-2.5693,-2.5557,-2.5332,-2.5605,-2.5586,-2.5312,-2.5312,-2.5312,-2.5332,-2.5557,-2.5693,-2.5693,-2.5693,-2.5693,-2.5693,-2.5693,-2.5996,-2.6406,-2.6562,-2.707,-2.7656,-3.6816,-3.7344,0.0,0.0,-3.6406,0.0,-3.6074,-3.6016,-3.5859,-3.541,-3.4961,-3.4531,-3.4082,-3.3672,-3.3242,-3.2832,0.0,0.0,0.0,-3.2109,-3.1914,-3.1543,-3.1484,-3.1289,-3.0898,-3.0898,-3.0898,-3.0898,-3.0449,-3.0039,-2.9668,-2.9685,-2.9629,-2.9668,-2.9685,-2.9609,-2.9609,-2.9609,-2.9844,-3.0195,-3.0156,-3.0449,-3.0879,-3.0859,-3.0859,-3.0898,-3.0898,-3.0586,-3.0195,-3.0234,-3.0234,-3.0137,-2.9726,-2.959,-2.9414,-2.8574,-2.832,-2.8301,-2.8301,-2.8301,-2.8301,-2.8301,-2.7988,-2.7578,-2.7129,-2.6719,-2.6641,-2.7434,-2.7266,-2.7266,-2.8047,-2.793,-2.7885,-2.8184,-2.793,-2.7689,-2.763,0.0,0.0,0.0,0.0,0.0,0.0,-2.5566,-2.5605,0.0,0.0,0.0,0.0,0.0,-2.5547,-2.5137,-2.5527,-2.5693,-2.5693,-2.5693,-2.5693,-2.5693,-2.5693,-2.5693,-2.5693,-2.5693,-2.5693,-2.5693,-2.5693,-2.5693,-2.5693,-2.5693,-2.5693,-2.5693,-2.5693,-2.5996,-2.6445,-2.6855,-2.7285,-2.7715,0.0,0.0,-3.6973,-3.6992,-3.6543,-3.6133,-3.6035,-3.6016,-3.5742,-3.4961,-3.4766,-3.4414,-3.3652,-3.3476,-3.3242,-3.2832,-3.25,-3.2285,-3.2229,-3.1562,-3.1289,-3.1504,-3.1211,-3.0996,-3.0898,-3.0898,-3.0898,-3.0898,-3.0781,-3.0684,-3.0566,-3.0215,-3.0234,-3.0566,-3.0215,-3.0059,-3.0059,-3.0059,-3.0098,-3.0176,-2.9844,-3.0195,-3.0859,-3.0488,-3.0586,-3.0898,-3.0898,-3.0586,-3.0254,-3.0605,-3.0488,-3.0176,-3.0078,-2.9824,-2.9473,-2.8926,-2.8535,-2.8301,-2.8301,-2.8301,-2.8301,-2.8301,-2.8223,-2.7949,-2.7187,-2.6934,-2.6738,-2.6289,-2.6641,-2.707,-2.7285,-2.7773,-2.8066,-2.7904,-2.7787,-2.7493,-2.6777,-2.6523,0.0,0.0,-2.6387,-2.6426,-2.6543,-2.6367,-2.6191,0.0,0.0,0.0,0.0,0.0,-2.5635,-2.5586,-2.5635,-2.5693,-2.5693,-2.5693,-2.5693,-2.5693,-2.5693,-2.5693,-2.5693,-2.5693,-2.5693,-2.5693,-2.5693,-2.5693,-2.5693,-2.5693,-2.5693,-2.5693,-2.5693,-2.5996,-2.6445,-2.6855,-2.7285,-2.7715,-3.7539,-3.7266,-3.6973,-3.7012,-3.6465,-3.6016,-3.6016,-3.6016,-3.5703,-3.4805,-3.4707,-3.4375,-3.3516,-3.3418,-3.332,-3.3105,-3.2519,-3.209,-3.1875,-3.125,-3.0996,-3.123,-3.1016,-3.0898,-3.0898,-3.0898,-3.0898,-3.0898,-3.0898,-3.0898,-3.0879,-3.0625,-3.0644,-3.0879,-3.0625,-3.0508,-3.0508,-3.0508,-3.0508,-3.0488,-3.0273,-3.0469,-3.0859,-3.0605,-3.0664,-3.0898,-3.0898,-3.0723,-3.0547,-3.0801,-3.0723,-3.0508,-3.0508,-3.0215,-2.9766,-2.9336,-2.8769,-2.8301,-2.8301,-2.8301,-2.8301,-2.8301,-2.8144,-2.7891,-2.7422,-2.7012,-2.6699,-2.6641,-2.668,-2.6914,-2.75,-2.7812,-2.793,-2.7767,-2.75,-2.7148,-2.6484,-2.6211,0.0,-2.6367,-2.6562,-2.6699,-2.6719,-2.6699,-2.6504,-2.6113,0.0,0.0,-2.5693,-2.5869,-2.6035,-2.6035,-2.6035,-2.6133,-2.6259,-2.6133,-2.6133,-2.6259,-2.6133,-2.6133,-2.6278,-2.6278,-2.6161,-2.6035,-2.6035,-2.5918,-2.5693,-2.5693,-2.5693,-2.5713,-2.5957,-2.6289,-2.6719,-2.7148,-2.7526,-2.7776,-3.7285,-3.7246,-3.7109,-3.6816,-3.6348,-3.6016,-3.6016,-3.5976,-3.5625,-3.4805,-3.4648,-3.4297,-3.3516,-3.3418,-3.3418,-3.3418,-3.2656,-3.2012,-3.1641,-3.1152,-3.0898,-3.0898,-3.0898,-3.0898,-3.0898,-3.0898,-3.0898,-3.0898,-3.0898,-3.0898,-3.0898,-3.0898,-3.0898,-3.0898,-3.0898,-3.0898,-3.0898,-3.0898,-3.0898,-3.0898,-3.0898,-3.0898,-3.0898,-3.0898,-3.0898,-3.0898,-3.0898,-3.0898,-3.0898,-3.0898,-3.0898,-3.0898,-3.0898,-3.0566,-3.0137,-2.9766,-2.9101,-2.8457,-2.832,-2.8301,-2.8301,-2.8301,-2.8027,-2.7754,-2.7728,-2.7161,-2.6777,-2.7493,-2.7051,-2.6914,-2.8008,-2.791,-2.7728,-2.7728,-2.7246,-2.6797,-2.6445,0.0,-2.5996,-2.6426,-2.6855,-2.6973,-2.6621,-2.6914,-2.6777,-2.5947,-2.583,0.0,0.0,-2.6133,-2.6348,-2.6484,-2.6484,-2.666,-2.7012,-2.666,-2.666,-2.7012,-2.666,-2.666,-2.7012,-2.7012,-2.6777,-2.6387,-2.6387,-2.6133,-2.5693,-2.5693,-2.5732,-2.583,-2.625,-2.668,-2.7148,-2.7519,-2.7824,-2.7906,-3.7226,-3.7012,-3.6855,-3.7148,-3.6543,-3.6016,-3.6016,-3.5723,-3.5293,-3.4766,-3.4394,-3.3984,-3.3476,-3.3418,-3.3418,-3.3418,-3.2656,-3.2148,-3.207,-3.1328,-3.0898,-3.0898,-3.0898,-3.0898,-3.0898,-3.0898,-3.0898,-3.0898,-3.0898,-3.0898,-3.0898,-3.0898,-3.0898,-3.0898,-3.0898,-3.0898,-3.0898,-3.0898,-3.0898,-3.0898,-3.0898,-3.0898,-3.0898,-3.0898,-3.0898,-3.0898,-3.0898,-3.0898,-3.0898,-3.0898,-3.0898,-3.0898,-3.0898,-3.0566,-3.0176,-3.0117,-2.9746,-2.9219,-2.8496,-2.8301,-2.8301,-2.8301,-2.8242,-2.8105,-2.7806,-2.7611,-2.7402,-2.7168,-2.7305,-2.7571,-2.7787,-2.7767,-2.7728,-2.7728,-2.7012,-2.6465,-2.6406,0.0,-2.6445,-2.6875,-2.7305,-2.7591,-2.7532,-2.7519,-2.7363,-2.6855,-2.6484,-2.6289,-2.6289,-2.5996,-2.6172,-2.6894,-2.6914,-2.6953,-2.7012,-2.6953,-2.6953,-2.7012,-2.6953,-2.6953,-2.7012,-2.7012,-2.6777,-2.6387,-2.6387,-2.6133,-2.5693,-2.5693,-2.5908,-2.6289,-2.6367,-2.6875,-2.763,-2.7689,-2.793,-2.8174,-3.7226,-3.6953,-3.6738,-3.6934,-3.6445,-3.5937,-3.5723,-3.5527,-3.4871,-3.3453,-3.3727,-3.363,-3.2422,-3.2956,-3.332,-3.3105,-3.2519,-3.207,-3.1836,-3.123,-3.0898,-3.0898,-3.0898,-3.0898,-3.0898,-3.0898,-3.0898,-3.0898,-3.0898,-3.0898,-3.0898,-3.0898,-3.0898,-3.0898,-3.0898,-3.0898,-3.0898,-3.0898,-3.0898,-3.0898,-3.0898,-3.0898,-3.0898,-3.0898,-3.0898,-3.0898,-3.0898,-3.0898,-3.0898,-3.0898,-3.0898,-3.0898,-3.0898,-3.0742,-3.0527,-3.0273,-2.9726,-2.9141,-2.873,-2.8457,-2.8301,-2.8301,-2.8301,-2.8242,-2.8047,-2.7885,-2.7676,-2.7695,-2.7676,-2.7787,-2.7969,-2.8008,-2.793,-2.7748,-2.7148,0.0,0.0,-2.6387,-2.6465,-2.666,-2.7051,-2.7226,-2.6992,-2.7187,-2.7129,-2.6699,-2.6699,-2.6719,-2.6719,-2.6758,-2.6953,-2.7344,-2.7578,-2.7695,-2.7715,-2.748,-2.748,-2.7695,-2.748,-2.748,-2.7695,-2.7715,-2.748,-2.707,-2.707,-2.6836,-2.6356,-2.6191,-2.6348,-2.6719,-2.6719,-2.7109,-2.7748,-2.793,-2.8072,-2.8067,-3.709,-3.6894,-3.668,-3.668,-3.6309,-3.5879,-3.5449,-3.5293,-3.4544,-3.273,-3.3321,-3.3386,-3.1937,-3.2765,-3.3301,-3.2969,-3.2559,-3.2129,-3.1699,-3.1269,-3.0996,-3.0898,-3.0898,-3.0898,-3.0898,-3.0898,-3.0898,-3.0898,-3.0898,-3.0898,-3.0898,-3.0898,-3.0898,-3.0898,-3.0898,-3.0898,-3.0898,-3.0898,-3.0898,-3.0898,-3.0898,-3.0898,-3.0898,-3.0898,-3.0898,-3.0898,-3.0898,-3.0898,-3.0898,-3.0898,-3.0898,-3.0898,-3.0898,-3.0898,-3.0801,-3.0332,-2.959,-2.8926,-2.8926,-2.8691,-2.8418,-2.832,-2.8301,-2.8301,-2.8301,-2.8047,-2.791,-2.8223,-2.8027,-2.791,-2.8242,-2.8203,-2.8066,-2.7851,0.0,0.0,0.0,-2.6523,-2.6426,-2.6523,-2.6914,-2.7012,-2.6582,-2.7012,-2.7148,-2.6719,-2.6992,-2.7168,-2.7168,-2.7383,-2.7611,-2.7708,-2.8066,-2.8301,-2.8301,-2.7969,-2.7969,-2.8281,-2.7969,-2.7988,-2.8301,-2.8301,-2.8066,-2.7728,-2.7728,-2.7422,-2.6992,-2.666,-2.6777,-2.7168,-2.7168,-2.7441,-2.7904,-2.8184,-2.8174,-2.796,-3.6719,-3.6699,-3.668,-3.668,-3.6309,-3.5879,-3.5449,-3.5019,-3.459,-3.3992,-3.3647,-3.3394,-3.3292,-3.3355,-3.3418,-3.3379,-3.2988,-3.2578,-3.2148,-3.1719,-3.1289,-3.0918,-3.0898,-3.0898,-3.0898,-3.0898,-3.0898,-3.0898,-3.0898,-3.0898,-3.0898,-3.0898,-3.0898,-3.0898,-3.0898,-3.0898,-3.0898,-3.0898,-3.0898,-3.0898,-3.0898,-3.0898,-3.0898,-3.0898,-3.0898,-3.0898,-3.0898,-3.0898,-3.0898,-3.0898,-3.0898,-3.0898,-3.0898,-3.0898,-3.0801,-3.0332,-2.959,-2.8926,-2.8926,-2.8906,-2.8769,-2.8398,-2.8301,-2.8301,-2.8301,-2.8262,-2.8262,-2.8281,-2.8262,-2.8262,-2.8281,-2.7969,-2.7885,-2.8184,0.0,0.0,-2.7513,-2.6894,-2.6523,-2.6914,-2.7363,-2.7441,-2.7012,-2.7715,-2.8027,-2.765,-2.765,-2.7669,-2.7669,-2.7266,-2.7246,-2.7708,-2.8066,-2.8301,-2.8301,-2.8262,-2.8262,-2.8301,-2.8262,-2.8262,-2.8301,-2.8301,-2.8066,-2.7728,-2.7728,-2.7422,-2.7012,-2.6973,-2.7226,-2.7669,-2.7669,-2.7871,-2.8262,-2.8281,-2.8301,-2.8228,-3.6269,-3.6269,-3.6269,-3.6269,-3.6133,-3.5781,-3.5078,-3.4805,-3.4108,-3.2558,-3.2988,-3.3102,-3.2174,-3.2892,-3.332,-3.3066,-3.2891,-3.25,-3.1816,-3.1621,-3.1328,-3.0918,-3.0898,-3.0898,-3.0898,-3.0898,-3.0898,-3.0898,-3.0898,-3.0898,-3.0898,-3.0898,-3.0898,-3.0898,-3.0898,-3.0898,-3.0898,-3.0898,-3.0898,-3.0898,-3.0898,-3.0898,-3.0898,-3.0898,-3.0898,-3.0898,-3.0898,-3.0898,-3.0898,-3.0898,-3.0898,-3.0898,-3.0898,-3.0898,-3.0859,-3.0684,-3.0391,-3.0078,-2.9785,-2.9141,-2.8496,-2.834,-2.8301,-2.8301,-2.8301,-2.8301,-2.8301,-2.8301,-2.8301,-2.8301,-2.8301,-2.8164,-2.8105,-2.8262,0.0,-2.7337,-2.7669,-2.7383,-2.7148,-2.7031,-2.7402,-2.75,-2.7051,-2.7559,-2.7832,-2.7728,-2.791,-2.8047,-2.8047,-2.7891,-2.7891,-2.8047,-2.8203,-2.8301,-2.8301,-2.8301,-2.8301,-2.8301,-2.8301,-2.8301,-2.8301,-2.8301,-2.8203,-2.8047,-2.8047,-2.7949,-2.7793,-2.7519,-2.7676,-2.8027,-2.7826,-2.793,-2.8301,-2.8301,-2.8174,-2.8014,-3.6016,-3.6016,-3.6016,-3.6016,-3.5918,-3.5566,-3.4805,-3.459,-3.3895,-3.2185,-3.2829,-3.3019,-3.2046,-3.2829,-3.3301,-3.3008,-3.2988,-3.2695,-3.1973,-3.166,-3.1328,-3.0918,-3.0898,-3.0898,-3.0898,-3.0898,-3.0898,-3.0898,-3.0898,-3.0898,-3.0898,-3.0898,-3.0898,-3.0898,-3.0898,-3.0898,-3.0898,-3.0898,-3.0898,-3.0898,-3.0898,-3.0898,-3.0898,-3.0898,-3.0898,-3.0898,-3.0898,-3.0898,-3.0898,-3.0898,-3.0898,-3.0898,-3.0898,-3.0801,-3.0664,-3.0664,-3.0586,-3.041,-3.0078,-2.9355,-2.8672,-2.8516,-2.8398,-2.8301,-2.8301,-2.8301,-2.8301,-2.8301,-2.8301,-2.8301,-2.8301,-2.8301,-2.8301,-2.8301,-2.793,-2.7767,-2.7904,-2.7637,-2.7402,-2.7246,-2.748,-2.7539,-2.7246,-2.7617,-2.7871,-2.7871,-2.8125,-2.8301,-2.8301,-2.8301,-2.8301,-2.8301,-2.8301,-2.8301,-2.8301,-2.8301,-2.8301,-2.8301,-2.8301,-2.8301,-2.8301,-2.8301,-2.8301,-2.8301,-2.8301,-2.8301,-2.8262,-2.7988,-2.8027,-2.8262,-2.7969,-2.7994,-2.8174,-2.8174,-2.8057,-2.7937,-3.6016,-3.6016,-3.6016,-3.6016,-3.5664,-3.5234,-3.4766,-3.4336,-3.3926,-3.3476,-3.3418,-3.3418,-3.3418,-3.3418,-3.3418,-3.3418,-3.3418,-3.3242,-3.2832,-3.1992,-3.1328,-3.0918,-3.0898,-3.0898,-3.0898,-3.0898,-3.0898,-3.0898,-3.0898,-3.0898,-3.0898,-3.0898,-3.0898,-3.0898,-3.0898,-3.0898,-3.0898,-3.0898,-3.0898,-3.0898,-3.0898,-3.0898,-3.0898,-3.0898,-3.0898,-3.0898,-3.0898,-3.0898,-3.0898,-3.0898,-3.0898,-3.0898,-3.0898,-3.0566,-3.0195,-3.0195,-2.9902,-2.9646,-2.9646,-2.9626,-2.9473,-2.9023,-2.8613,-2.8301,-2.8301,-2.8301,-2.8301,-2.8301,-2.8301,-2.8301,-2.8301,-2.8301,-2.8301,-2.8301,-2.7949,-2.7812,-2.8242,-2.7559,-2.7187,-2.7669,-2.7728,-2.7728,-2.7728,-2.8047,-2.8301,-2.8301,-2.8301,-2.8301,-2.8301,-2.8301,-2.8301,-2.8301,-2.8301,-2.8301,-2.8301,-2.8301,-2.8301,-2.8301,-2.8301,-2.8301,-2.8301,-2.8301,-2.8301,-2.8301,-2.8301,-2.8301,-2.8301,-2.8301,-2.8301,-2.8301,-2.8301,-2.8121,-2.7906,-2.7906,-2.7959,-2.7936,-3.6016,-3.6016,-3.6016,-3.6016,-3.5918,-3.5586,-3.4805,-3.459,-3.4258,-3.3516,-3.3418,-3.3418,-3.3418,-3.3418,-3.3418,-3.3418,-3.3418,-3.3242,-3.2832,-3.2285,-3.1777,-3.1348,-3.1055,-3.0898,-3.0898,-3.0898,-3.0898,-3.0898,-3.0898,-3.0898,-3.0898,-3.0898,-3.0898,-3.0898,-3.0898,-3.0898,-3.0898,-3.0898,-3.0898,-3.0898,-3.0898,-3.0898,-3.0898,-3.0898,-3.0898,-3.0898,-3.0898,-3.0898,-3.0898,-3.0898,-3.0898,-3.0898,-3.0898,-3.0801,-3.0684,-3.0684,-3.0605,-3.0488,-3.0488,-3.0254,-2.9824,-2.9101,-2.8828,-2.8652,-2.8359,-2.8301,-2.8301,-2.8301,-2.8301,-2.8301,-2.8301,-2.8301,-2.8301,-2.8301,-2.8184,-2.8144,-2.8281,-2.8066,-2.7969,-2.8086,-2.8105,-2.8105,-2.8105,-2.8223,-2.8301,-2.8301,-2.8301,-2.8301,-2.8301,-2.8301,-2.8301,-2.8301,-2.8301,-2.8301,-2.8301,-2.8301,-2.8301,-2.8301,-2.8301,-2.8437,-2.873,-2.873,-2.873,-2.873,-2.873,-2.8574,-2.8301,-2.8301,-2.8194,-2.8014,-2.8014,-2.7972,-2.7967,-2.7967,-2.8067,-2.8146,-3.6016,-3.6016,-3.6016,-3.6016,-3.5879,-3.5586,-3.5059,-3.4824,-3.4512,-3.4004,-3.3789,-3.3481,-3.2906,-3.3198,-3.3165,-3.2638,-3.3082,-3.3242,-3.2832,-3.2559,-3.2226,-3.1797,-3.1367,-3.1055,-3.0898,-3.0898,-3.0898,-3.0898,-3.0898,-3.0898,-3.0898,-3.0898,-3.0898,-3.0898,-3.0898,-3.0898,-3.0898,-3.0898,-3.0898,-3.0898,-3.0898,-3.0898,-3.0898,-3.0898,-3.0898,-3.0898,-3.0898,-3.0898,-3.0898,-3.0898,-3.0898,-3.0898,-3.0898,-3.0898,-3.0898,-3.0898,-3.0898,-3.0898,-3.0898,-3.0684,-3.0254,-2.9394,-2.9043,-2.8809,-2.8398,-2.8301,-2.8301,-2.8301,-2.8301,-2.8301,-2.8301,-2.8301,-2.8301,-2.8301,-2.8301,-2.8301,-2.8301,-2.8301,-2.8301,-2.8301,-2.8301,-2.8301,-2.8301,-2.8301,-2.8301,-2.8301,-2.8437,-2.8476,-2.8301,-2.8457,-2.8535,-2.8535,-2.8535,-2.8633,-2.8789,-2.8633,-2.8457,-2.8301,-2.8301,-2.8418,-2.8672,-2.8672,-2.8672,-2.8672,-2.8672,-2.8516,-2.8281,-2.8194,-2.8067,-2.7906,-2.7745,-2.7742,-2.7826,-2.7826,-2.7921,-2.8068,-3.5957,-3.5996,-3.6016,-3.6016,-3.5703,-3.543,-3.541,-3.5039,-3.4746,-3.4707,-3.4336,-3.3546,-3.2161,-3.2879,-3.2867,-3.1451,-3.2575,-3.3281,-3.293,-3.2871,-3.2656,-3.2187,-3.1797,-3.1367,-3.0898,-3.0898,-3.0918,-3.0937,-3.0918,-3.0898,-3.0898,-3.0898,-3.0898,-3.0898,-3.0898,-3.0898,-3.0898,-3.0898,-3.0898,-3.0898,-3.0898,-3.0898,-3.0898,-3.0898,-3.0898,-3.0898,-3.0898,-3.0898,-3.0898,-3.0898,-3.0898,-3.0898,-3.0898,-3.0898,-3.0898,-3.0898,-3.0898,-3.0898,-3.0898,-3.0898,-3.0684,-2.9844,-2.9316,-2.8906,-2.8398,-2.8301,-2.8301,-2.8301,-2.8301,-2.8301,-2.8301,-2.8301,-2.8301,-2.8301,-2.8301,-2.8301,-2.8301,-2.8301,-2.8301,-2.8301,-2.8301,-2.8301,-2.8301,-2.832,-2.8359,-2.8398,-2.8769,-2.8809,-2.8418,-2.8769,-2.8984,-2.8984,-2.8984,-2.916,-2.9626,-2.918,-2.8789,-2.8418,-2.8418,-2.8418,-2.8457,-2.8457,-2.8437,-2.8418,-2.8437,-2.8398,-2.8301,-2.8091,-2.8003,-2.7857,-2.7625,-2.7582,-2.7679,-2.7679,-2.7752,-2.7932,-3.5527,-3.5801,-3.6016,-3.6016,-3.5937,-3.5781,-3.5449,-3.5312,-3.5117,-3.4746,-3.4336,-3.3546,-3.2161,-3.3192,-3.3258,-3.1469,-3.2575,-3.3535,-3.3789,-3.3476,-3.2949,-3.2207,-3.207,-3.168,-3.0918,-3.0898,-3.1055,-3.1387,-3.1055,-3.0898,-3.0898,-3.0898,-3.0898,-3.0898,-3.0898,-3.0898,-3.0898,-3.0898,-3.0898,-3.0898,-3.0898,-3.0898,-3.0898,-3.0898,-3.0898,-3.0898,-3.0898,-3.0898,-3.0898,-3.0898,-3.0898,-3.0898,-3.0898,-3.0898,-3.0898,-3.0898,-3.0898,-3.0898,-3.0898,-3.0898,-3.0762,-3.0195,-2.998,-2.9629,-2.8535,-2.8301,-2.8301,-2.8301,-2.8301,-2.8301,-2.8301,-2.8301,-2.8301,-2.8301,-2.8301,-2.8301,-2.8301,-2.8301,-2.8301,-2.8301,-2.8301,-2.8301,-2.8301,-2.8594,-2.8926,-2.9277,-2.9375,-2.9394,-2.9297,-2.9375,-2.9434,-2.9434,-2.9434,-2.9473,-2.9626,-2.9473,-2.9375,-2.9297,-2.9297,-2.9473,-2.9785,-2.9785,-2.9609,-2.9316,-2.9648,-2.9219,-2.834,-2.8969,-2.8752,-2.7988,-2.833,-2.8333,-2.8247,-2.8247,-2.8244,-2.8187,-3.5684,-3.5879,-3.6016,-3.6016,-3.6016,-3.5937,-3.5723,-3.5056,-3.4554,-3.4326,-3.3861,-3.2792,-3.0507,-3.2534,-3.3708,-3.2751,-3.3521,-3.4121,-3.4355,-3.3965,-3.3535,-3.3105,-3.25,-3.2051,-3.1797,-3.1406,-3.1289,-3.1523,-3.1289,-3.1191,-3.1191,-3.0976,-3.0898,-3.0898,-3.0898,-3.0898,-3.0898,-3.0898,-3.0898,-3.0898,-3.0898,-3.0898,-3.0898,-3.0898,-3.0898,-3.0898,-3.0898,-3.0898,-3.0898,-3.0898,-3.0898,-3.0898,-3.0898,-3.0898,-3.0898,-3.0898,-3.0898,-3.0898,-3.0898,-3.0898,-3.0781,-3.0312,-3.0195,-2.9961,-2.9101,-2.8906,-2.8906,-2.8906,-2.8906,-2.8906,-2.8906,-2.873,-2.8652,-2.8867,-2.873,-2.8672,-2.8867,-2.873,-2.8672,-2.8887,-2.8711,-2.8672,-2.8887,-2.9277,-2.9531,-2.9626,-2.9766,-2.9785,-2.9646,-2.9766,-2.9863,-2.9863,-2.9863,-2.998,-3.0195,-2.998,-2.998,-3.0195,-2.9822,-2.9687,-2.9902,-2.9902,-2.9785,-2.9646,-2.9805,-2.9512,-2.8926,-2.9097,-2.882,-2.8313,-2.8296,-2.8309,-2.8388,-2.8388,-2.8517,-2.8553,-3.5801,-3.5918,-3.6016,-3.6016,-3.6016,-3.6016,-3.6016,-3.469,-3.3739,-3.3739,-3.3043,-3.1454,-2.8551,-3.1336,-3.3558,-3.3985,-3.4459,-3.4726,-3.4805,-3.4414,-3.4121,-3.3965,-3.2949,-3.248,-3.2676,-3.207,-3.1699,-3.1621,-3.1621,-3.1621,-3.1621,-3.1269,-3.1074,-3.0996,-3.0996,-3.0957,-3.0898,-3.0898,-3.0898,-3.0898,-3.0898,-3.0898,-3.0898,-3.0898,-3.0898,-3.0898,-3.0898,-3.0898,-3.0898,-3.0898,-3.0898,-3.0898,-3.0898,-3.0898,-3.0898,-3.0898,-3.0898,-3.0898,-3.0898,-3.0898,-3.0801,-3.041,-3.0312,-3.0215,-2.9883,-2.9744,-2.9626,-2.9626,-2.9626,-2.9626,-2.9626,-2.9277,-2.9141,-2.9567,-2.9258,-2.916,-2.9567,-2.9258,-2.916,-2.9531,-2.9258,-2.9199,-2.9629,-3.0,-3.0078,-2.9824,-3.0117,-3.0156,-2.9824,-3.0117,-3.0312,-3.0312,-3.0312,-3.0508,-3.0879,-3.0508,-3.0508,-3.0879,-3.0137,-2.9785,-2.9785,-2.9785,-2.9746,-2.9687,-2.9822,-2.9763,-2.957,-2.922,-2.8956,-2.8786,-2.8349,-2.8302,-2.848,-2.8425,-2.8608,-2.8773,-3.4961,-3.5488,-3.6016,-3.6016,-3.6016,-3.6016,-3.6016,-3.4512,-3.3384,-3.3384,-3.1563,-2.9681,-2.8028,-2.9446,-3.1367,-3.3637,-3.4347,-3.4863,-3.5273,-3.4863,-3.4277,-3.3535,-3.334,-3.293,-3.2326,-3.25,-3.2441,-3.209,-3.209,-3.209,-3.207,-3.2031,-3.1797,-3.1426,-3.1426,-3.123,-3.0898,-3.0898,-3.0898,-3.0898,-3.0898,-3.0898,-3.0898,-3.0898,-3.0898,-3.0898,-3.0898,-3.0898,-3.0898,-3.0898,-3.0898,-3.0898,-3.0898,-3.0898,-3.0898,-3.0898,-3.0898,-3.0898,-3.0898,-3.0898,-3.0879,-3.082,-3.0801,-3.0781,-3.0723,-3.0117,-2.9626,-2.9626,-2.9626,-2.9626,-2.9626,-2.9531,-2.9548,-2.9607,-2.9531,-2.9512,-2.957,-2.9567,-2.9512,-2.957,-2.9512,-2.9648,-3.0078,-3.0156,-3.0351,-3.0684,-3.0762,-3.0762,-3.0723,-3.0762,-3.0801,-3.0801,-3.0801,-3.082,-3.0898,-3.082,-3.082,-3.0898,-3.0762,-3.0703,-3.0703,-3.0703,-3.0488,-3.0137,-3.0547,-3.0273,-2.9629,-3.0333,-3.0084,-2.9259,-2.9502,-2.9319,-2.8865,-2.8517,-2.8425,-2.8407,-3.543,-3.5742,-3.6016,-3.6016,-3.6016,-3.6016,-3.6016,-3.389,-3.2313,-3.2313,-3.0683,-2.8889,-2.7253,-2.9146,-3.1248,-3.2997,-3.4547,-3.5527,-3.5723,-3.5332,-3.4805,-3.416,-3.3906,-3.3379,-3.2539,-3.293,-3.293,-3.2519,-3.2519,-3.2519,-3.25,-3.2031,-3.1699,-3.1504,-3.1269,-3.1055,-3.0898,-3.0898,-3.0898,-3.0898,-3.0898,-3.0898,-3.0898,-3.0898,-3.0898,-3.0898,-3.0898,-3.0898,-3.0898,-3.0898,-3.0898,-3.0898,-3.0898,-3.0898,-3.0898,-3.0898,-3.0898,-3.0898,-3.0898,-3.0898,-3.0898,-3.0898,-3.0898,-3.0898,-3.0898,-3.0586,-3.0312,-3.0312,-3.0312,-3.0312,-3.0312,-3.0098,-3.0,-3.0273,-3.0098,-3.0019,-3.0273,-3.0078,-2.9922,-2.9922,-3.0156,-3.0371,-3.0566,-3.0586,-3.0664,-3.0879,-3.0898,-3.0898,-3.0898,-3.0898,-3.0898,-3.0898,-3.0898,-3.0898,-3.0898,-3.0898,-3.0898,-3.0898,-3.0898,-3.0898,-3.0898,-3.0898,-3.0781,-3.0586,-3.0801,-3.0664,-3.0332,-3.0548,-3.0354,-2.9909,-2.9728,-2.939,-2.8957,-2.8792,-2.8718,-2.87]},{"header":{"parameterUnit":"m.s-1","parameterCategory":1,"la1":30.6,"la2":28.766,"lo1":-90.7593,"lo2":-88.6598,"dy":0.0162,"dx":0.0183,"nx":116,"ny":114,"refTime":"2023-04-19T06:00:00:Z","depth":0,"parameterNumber":3,"parameterNumberName":"V-component_of_WINDS"},"data":[0.0,0.0,0.0,0.0,0.0,0.0,0.0,0.0,0.0,0.0,0.0,0.0,0.0,0.0,0.0,0.0,0.0,0.0,0.0,0.0,0.0,0.0,0.0,0.0,0.0,0.0,0.0,0.0,0.0,0.0,0.0,0.0,0.0,0.0,0.0,0.0,0.0,0.0,0.0,0.0,0.0,0.0,0.0,0.0,0.0,0.0,0.0,0.0,0.0,0.0,0.0,0.0,0.0,0.0,0.0,0.0,0.0,0.0,0.0,0.0,0.0,0.0,0.0,0.0,0.0,0.0,0.0,0.0,0.0,0.0,0.0,0.0,0.0,0.0,0.0,0.0,0.0,0.0,0.0,0.0,0.0,0.0,0.0,0.0,0.0,0.0,0.0,0.0,0.0,0.0,0.0,0.0,0.0,0.0,0.0,0.0,0.0,0.0,0.0,0.0,0.0,0.0,0.0,0.0,0.0,0.0,0.0,0.0,0.0,0.0,0.0,0.0,0.0,0.0,0.0,0.0,0.0,0.0,0.0,0.0,0.0,0.0,0.0,0.0,0.0,0.0,0.0,0.0,0.0,0.0,0.0,0.0,0.0,0.0,0.0,0.0,0.0,0.0,0.0,0.0,0.0,0.0,0.0,0.0,0.0,0.0,0.0,0.0,0.0,0.0,0.0,0.0,0.0,0.0,0.0,0.0,0.0,0.0,0.0,0.0,0.0,0.0,0.0,0.0,0.0,0.0,0.0,0.0,0.0,0.0,0.0,0.0,0.0,0.0,0.0,0.0,0.0,0.0,0.0,0.0,0.0,0.0,0.0,0.0,0.0,0.0,0.0,0.0,0.0,0.0,0.0,0.0,0.0,0.0,0.0,0.0,0.0,0.0,0.0,0.0,0.0,0.0,0.0,0.0,0.0,0.0,0.0,0.0,0.0,0.0,0.0,0.0,0.0,0.0,0.0,0.0,0.0,0.0,0.0,0.0,0.0,0.0,0.0,0.0,0.0,0.0,0.0,0.0,0.0,0.0,0.0,0.0,0.0,0.0,0.0,0.0,0.0,0.0,0.0,0.0,0.0,0.0,0.0,0.0,0.0,0.0,0.0,0.0,0.0,0.0,0.0,0.0,0.0,0.0,0.0,0.0,0.0,0.0,0.0,0.0,0.0,0.0,0.0,0.0,0.0,0.0,0.0,0.0,0.0,0.0,0.0,0.0,0.0,0.0,0.0,0.0,0.0,0.0,0.0,0.0,0.0,0.0,0.0,0.0,0.0,0.0,0.0,0.0,0.0,0.0,0.0,0.0,0.0,0.0,0.0,0.0,0.0,0.0,0.0,0.0,0.0,0.0,0.0,0.0,0.0,0.0,0.0,0.0,0.0,0.0,0.0,0.0,0.0,0.0,0.0,0.0,0.0,0.0,0.0,0.0,0.0,0.0,0.0,0.0,0.0,0.0,0.0,0.0,0.0,0.0,0.0,0.0,0.0,0.0,0.0,0.0,0.0,0.0,0.0,0.0,0.0,0.0,0.0,0.0,0.0,0.0,0.0,0.0,0.0,0.0,0.0,0.0,0.0,0.0,0.0,0.0,0.0,0.0,0.0,0.0,0.0,0.0,0.0,0.0,0.0,0.0,0.0,0.0,0.0,0.0,0.0,0.0,0.0,0.0,0.0,0.0,0.0,0.0,0.0,0.0,0.0,0.0,0.0,0.0,0.0,0.0,0.0,0.0,0.0,0.0,0.0,0.0,0.0,0.0,0.0,0.0,0.0,0.0,0.0,0.0,0.0,0.0,0.0,0.0,0.0,0.0,0.0,0.0,0.0,0.0,0.0,0.0,0.0,0.0,0.0,0.0,0.0,0.0,0.0,0.0,0.0,0.0,0.0,0.0,0.0,0.0,0.0,0.0,0.0,0.0,0.0,0.0,0.0,0.0,0.0,0.0,0.0,0.0,0.0,0.0,0.0,0.0,0.0,0.0,0.0,0.0,0.0,0.0,0.0,0.0,0.0,0.0,0.0,0.0,0.0,0.0,0.0,0.0,0.0,0.0,0.0,0.0,0.0,0.0,0.0,0.0,0.0,0.0,0.0,0.0,0.0,0.0,0.0,0.0,0.0,0.0,0.0,0.0,0.0,0.0,0.0,0.0,0.0,0.0,0.0,0.0,0.0,0.0,0.0,0.0,0.0,0.0,0.0,0.0,0.0,0.0,0.0,0.0,0.0,0.0,0.0,0.0,0.0,0.0,0.0,0.0,0.0,0.0,0.0,0.0,0.0,0.0,0.0,0.0,0.0,0.0,0.0,0.0,0.0,0.0,0.0,0.0,0.0,0.0,0.0,0.0,0.0,0.0,0.0,0.0,0.0,0.0,0.0,0.0,0.0,0.0,0.0,0.0,0.0,0.0,0.0,0.0,0.0,0.0,0.0,0.0,0.0,0.0,0.0,0.0,0.0,0.0,0.0,0.0,0.0,0.0,0.0,0.0,0.0,0.0,0.0,0.0,0.0,0.0,0.0,0.0,0.0,0.0,0.0,0.0,0.0,0.0,0.0,0.0,0.0,0.0,0.0,0.0,0.0,0.0,0.0,0.0,0.0,0.0,0.0,0.0,0.0,0.0,0.0,0.0,0.0,0.0,0.0,0.0,0.0,0.0,0.0,0.0,0.0,0.0,0.0,0.0,0.0,0.0,0.0,0.0,0.0,0.0,0.0,0.0,0.0,0.0,0.0,0.0,0.0,0.0,0.0,0.0,0.0,0.0,0.0,0.0,0.0,0.0,0.0,0.0,0.0,0.0,0.0,0.0,0.0,0.0,0.0,0.0,0.0,0.0,0.0,0.0,0.0,0.0,0.0,0.0,0.0,0.0,0.0,0.0,0.0,0.0,0.0,0.0,0.0,0.0,0.0,0.0,0.0,0.0,0.0,0.0,0.0,0.0,0.0,0.0,0.0,0.0,0.0,0.0,0.0,0.0,0.0,0.0,0.0,0.0,0.0,0.0,0.0,0.0,0.0,0.0,0.0,0.0,0.0,0.0,0.0,0.0,0.0,0.0,0.0,0.0,0.0,0.0,0.0,0.0,0.0,0.0,0.0,0.0,0.0,0.0,0.0,0.0,0.0,0.0,0.0,0.0,0.0,0.0,0.0,0.0,0.0,0.0,0.0,0.0,0.0,0.0,0.0,0.0,0.0,0.0,0.0,0.0,0.0,0.0,0.0,0.0,0.0,0.0,0.0,0.0,0.0,0.0,0.0,0.0,0.0,0.0,0.0,0.0,0.0,0.0,0.0,0.0,0.0,0.0,0.0,0.0,0.0,0.0,0.0,0.0,0.0,0.0,0.0,0.0,0.0,0.0,0.0,0.0,0.0,0.0,0.0,0.0,0.0,0.0,0.0,0.0,0.0,0.0,0.0,0.0,0.0,0.0,0.0,0.0,0.0,0.0,0.0,0.0,0.0,0.0,0.0,0.0,0.0,0.0,0.0,0.0,0.0,0.0,0.0,0.0,0.0,0.0,0.0,0.0,0.0,0.0,0.0,0.0,0.0,0.0,0.0,0.0,0.0,0.0,0.0,0.0,0.0,0.0,0.0,0.0,0.0,0.0,0.0,0.0,0.0,0.0,0.0,0.0,0.0,0.0,0.0,0.0,0.0,0.0,0.0,0.0,0.0,0.0,0.0,0.0,0.0,0.0,0.0,0.0,0.0,0.0,0.0,0.0,0.0,0.0,0.0,0.0,0.0,0.0,0.0,0.0,0.0,0.0,0.0,0.0,0.0,0.0,0.0,0.0,0.0,0.0,0.0,0.0,0.0,0.0,0.0,0.0,0.0,0.0,0.0,0.0,0.0,0.0,0.0,0.0,0.0,0.0,0.0,0.0,0.0,0.0,0.0,0.0,0.0,0.0,0.0,0.0,0.0,0.0,0.0,0.0,0.0,0.0,0.0,0.0,0.0,0.0,0.0,0.0,0.0,0.0,0.0,0.0,0.0,0.0,0.0,0.0,0.0,0.0,0.0,0.0,0.0,0.0,0.0,0.0,0.0,0.0,0.0,0.0,0.0,0.0,0.0,0.0,0.0,0.0,0.0,0.0,0.0,0.0,0.0,0.0,0.0,0.0,0.0,0.0,0.0,0.0,0.0,0.0,0.0,0.0,0.0,0.0,0.0,0.0,0.0,0.0,0.0,0.0,0.0,0.0,0.0,0.0,0.0,0.0,0.0,0.0,0.0,0.0,0.0,0.0,0.0,0.0,0.0,0.0,0.0,0.0,0.0,0.0,0.0,0.0,0.0,0.0,0.0,0.0,0.0,0.0,0.0,0.0,0.0,0.0,0.0,0.0,0.0,0.0,0.0,0.0,0.0,0.0,0.0,0.0,0.0,0.0,0.0,0.0,0.0,0.0,0.0,0.0,0.0,0.0,0.0,0.0,0.0,0.0,0.0,0.0,0.0,0.0,0.0,0.0,0.0,0.0,0.0,0.0,0.0,0.0,0.0,0.0,0.0,0.0,0.0,0.0,0.0,0.0,0.0,0.0,0.0,0.0,0.0,0.0,0.0,0.0,0.0,0.0,0.0,0.0,0.0,0.0,0.0,0.0,0.0,0.0,0.0,0.0,0.0,0.0,0.0,0.0,0.0,0.0,0.0,0.0,0.0,0.0,0.0,0.0,0.0,0.0,0.0,0.0,0.0,0.0,0.0,0.0,0.0,0.0,0.0,0.0,0.0,0.0,0.0,0.0,0.0,0.0,0.0,0.0,0.0,0.0,0.0,0.0,0.0,0.0,0.0,0.0,0.0,0.0,0.0,0.0,0.0,0.0,0.0,0.0,0.0,0.0,0.0,0.0,0.0,0.0,0.0,0.0,0.0,0.0,0.0,0.0,0.0,0.0,0.0,0.0,0.0,0.0,0.0,0.0,0.0,0.0,0.0,0.0,0.0,0.0,0.0,0.0,0.0,0.0,0.0,0.0,0.0,0.0,0.0,0.0,0.0,0.0,0.0,0.0,0.0,0.0,0.0,0.0,0.0,0.0,0.0,0.0,0.0,0.0,0.0,0.0,0.0,0.0,0.0,0.0,0.0,0.0,0.0,0.0,0.0,0.0,0.0,0.0,0.0,0.0,0.0,0.0,0.0,0.0,0.0,0.0,0.0,0.0,0.0,0.0,0.0,0.0,0.0,0.0,0.0,0.0,0.0,0.0,0.0,0.0,0.0,0.0,0.0,0.0,0.0,0.0,0.0,0.0,0.0,0.0,0.0,0.0,0.0,0.0,0.0,0.0,0.0,0.0,0.0,0.0,0.0,0.0,0.0,0.0,0.0,0.0,0.0,0.0,0.0,0.0,0.0,0.0,0.0,0.0,0.0,0.0,0.0,0.0,0.0,0.0,0.0,0.0,0.0,0.0,0.0,0.0,0.0,0.0,0.0,0.0,0.0,0.0,0.0,0.0,0.0,0.0,0.0,0.0,0.0,0.0,0.0,0.0,0.0,0.0,0.0,0.0,0.0,0.0,0.0,0.0,0.0,0.0,0.0,0.0,0.0,0.0,0.0,0.0,0.0,0.0,0.0,0.0,0.0,0.0,0.0,0.0,0.0,0.0,0.0,0.0,0.0,0.0,0.0,0.0,0.0,0.0,0.0,0.0,0.0,0.0,0.0,0.0,0.0,0.0,0.0,0.0,0.0,0.0,0.0,0.0,0.0,0.0,0.0,0.0,0.0,0.0,0.0,0.0,0.0,0.0,0.0,0.0,0.0,0.0,0.0,0.0,0.0,0.0,0.0,0.0,0.0,0.0,0.0,0.0,0.0,0.0,0.0,0.0,0.0,0.0,0.0,0.0,0.0,0.0,0.0,0.0,0.0,0.0,0.0,0.0,0.0,0.0,0.0,0.0,0.0,0.0,0.0,0.0,0.0,0.0,0.0,0.0,0.0,0.0,0.0,0.0,0.0,0.0,0.0,0.0,0.0,0.0,0.0,0.0,0.0,0.0,0.0,0.0,0.0,0.0,0.0,0.0,0.0,0.0,0.0,0.0,0.0,0.0,0.0,0.0,0.0,0.0,0.0,0.0,0.0,0.0,0.0,0.0,0.0,0.0,0.0,0.0,0.0,0.0,0.0,0.0,0.0,0.0,3.8962,0.0,0.0,0.0,0.0,0.0,0.0,0.0,0.0,0.0,0.0,0.0,0.0,0.0,0.0,0.0,0.0,0.0,0.0,0.0,0.0,0.0,0.0,0.0,0.0,0.0,0.0,0.0,0.0,0.0,0.0,0.0,0.0,0.0,0.0,0.0,0.0,0.0,0.0,4.8905,4.8554,4.8804,4.9542,4.7818,4.5267,4.2196,0.0,0.0,0.0,0.0,0.0,0.0,0.0,0.0,0.0,0.0,0.0,0.0,0.0,0.0,0.0,0.0,0.0,0.0,0.0,0.0,0.0,0.0,0.0,0.0,0.0,0.0,0.0,0.0,0.0,0.0,0.0,0.0,0.0,0.0,0.0,0.0,0.0,0.0,0.0,0.0,0.0,0.0,0.0,0.0,0.0,0.0,0.0,0.0,0.0,0.0,0.0,0.0,0.0,0.0,0.0,0.0,0.0,0.0,0.0,0.0,0.0,0.0,0.0,0.0,0.0,0.0,0.0,0.0,0.0,0.0,0.0,4.0841,0.0,0.0,0.0,0.0,0.0,0.0,0.0,0.0,0.0,0.0,0.0,0.0,0.0,0.0,0.0,0.0,0.0,0.0,0.0,0.0,0.0,0.0,0.0,0.0,3.455,3.6254,3.7527,3.8655,0.0,0.0,0.0,0.0,0.0,0.0,0.0,4.6345,4.7771,4.9822,5.0515,5.1718,5.3334,5.2429,4.9644,4.5458,4.3454,0.0,0.0,0.0,0.0,0.0,0.0,0.0,0.0,0.0,0.0,0.0,0.0,0.0,0.0,0.0,0.0,0.0,0.0,0.0,0.0,0.0,0.0,0.0,0.0,0.0,0.0,0.0,0.0,0.0,0.0,0.0,0.0,0.0,0.0,0.0,0.0,0.0,0.0,0.0,0.0,0.0,0.0,0.0,0.0,0.0,0.0,0.0,0.0,0.0,0.0,0.0,0.0,0.0,0.0,0.0,0.0,0.0,0.0,0.0,0.0,0.0,0.0,0.0,4.7911,4.8607,4.7155,4.8679,4.8979,4.8195,4.5171,4.3608,4.306,0.0,0.0,0.0,0.0,0.0,0.0,0.0,0.0,0.0,0.0,0.0,0.0,0.0,0.0,0.0,0.0,0.0,0.0,0.0,0.0,0.0,0.0,3.4223,3.455,3.6254,3.7069,3.797,0.0,0.0,0.0,0.0,0.0,0.0,4.6423,4.7127,4.8519,5.0646,5.2771,5.4707,5.6306,5.6296,5.5447,5.374,4.7954,4.5424,4.536,0.0,0.0,0.0,0.0,0.0,0.0,0.0,0.0,0.0,0.0,0.0,0.0,0.0,0.0,0.0,0.0,0.0,0.0,0.0,0.0,0.0,0.0,0.0,0.0,0.0,0.0,0.0,0.0,0.0,0.0,0.0,0.0,0.0,0.0,0.0,0.0,0.0,0.0,0.0,0.0,0.0,4.0302,3.9834,0.0,0.0,0.0,0.0,0.0,0.0,0.0,0.0,0.0,0.0,0.0,0.0,0.0,4.5418,4.6545,4.803,4.882,4.891,5.0502,5.094,5.0411,5.0636,5.0377,4.9739,4.9219,0.0,4.5096,4.3413,0.0,0.0,0.0,0.0,0.0,0.0,0.0,0.0,0.0,0.0,0.0,0.0,0.0,0.0,0.0,0.0,0.0,0.0,0.0,0.0,0.0,3.4595,3.5215,3.6709,3.8475,3.947,3.9353,4.1596,0.0,0.0,0.0,4.5114,4.6551,4.7767,5.0191,5.388,5.6284,5.8335,5.996,5.9389,5.8926,5.8356,5.4461,5.0759,4.7344,4.5195,0.0,0.0,0.0,0.0,0.0,0.0,0.0,0.0,0.0,0.0,0.0,0.0,0.0,0.0,0.0,0.0,0.0,0.0,0.0,0.0,0.0,0.0,0.0,0.0,0.0,0.0,0.0,0.0,0.0,0.0,0.0,0.0,0.0,0.0,0.0,0.0,0.0,0.0,0.0,4.139,4.2397,4.0801,4.1407,4.1293,0.0,0.0,0.0,0.0,0.0,0.0,0.0,0.0,0.0,4.6718,4.7806,4.8537,4.8955,5.0409,5.1208,5.1347,5.2926,5.3418,5.2917,5.354,5.345,5.2797,5.275,5.1599,4.9535,4.689,4.5588,4.5204,0.0,0.0,0.0,0.0,0.0,4.3364,0.0,0.0,0.0,0.0,0.0,0.0,0.0,0.0,0.0,0.0,0.0,0.0,3.4523,3.5258,3.6173,3.7566,3.9515,4.0478,4.0083,4.1948,0.0,0.0,4.3913,4.5287,4.6617,4.902,5.2485,5.7126,5.9329,6.1374,6.3226,6.2765,6.2439,6.2193,6.0783,5.6694,5.078,4.9162,4.7102,4.4869,0.0,0.0,0.0,0.0,0.0,0.0,0.0,0.0,0.0,0.0,0.0,0.0,0.0,0.0,0.0,0.0,0.0,0.0,0.0,0.0,0.0,0.0,0.0,0.0,0.0,0.0,0.0,0.0,0.0,0.0,0.0,0.0,0.0,0.0,0.0,0.0,0.0,4.3511,4.4521,4.2024,4.4091,4.45,0.0,0.0,0.0,0.0,0.0,0.0,4.8224,4.9522,5.0283,5.0432,5.1509,5.1986,5.1744,5.3131,5.3897,5.399,5.558,5.6031,5.5471,5.6112,5.6002,5.5345,5.5076,5.4457,5.3353,5.0466,4.8881,4.8315,4.7361,4.6546,4.602,4.6515,4.6273,4.5778,0.0,0.0,0.0,0.0,0.0,0.0,0.0,0.0,0.0,0.0,0.0,3.3479,3.5327,3.6231,3.737,3.8958,3.9266,3.9854,4.1077,4.1028,4.1564,4.29,4.4346,4.565,4.6766,5.1237,5.5499,5.9404,6.1144,6.3235,6.5561,6.6905,6.6997,6.6121,6.6088,6.3075,5.7776,5.4402,5.2274,5.0851,4.7614,0.0,0.0,0.0,0.0,0.0,0.0,0.0,0.0,0.0,0.0,0.0,0.0,0.0,0.0,0.0,0.0,0.0,0.0,0.0,0.0,0.0,0.0,0.0,0.0,0.0,0.0,0.0,0.0,0.0,0.0,0.0,0.0,0.0,0.0,0.0,0.0,0.0,0.0,4.4282,4.7714,0.0,0.0,0.0,0.0,4.7313,4.9934,5.1587,5.1805,5.4406,5.5747,5.5453,5.593,5.6125,5.5891,5.681,5.7382,5.7636,5.8594,5.8783,5.8367,5.7656,5.6954,5.6284,5.5604,5.5239,5.5037,5.335,5.1375,4.9464,4.9559,4.9158,4.8514,4.8546,4.8174,4.765,0.0,0.0,0.0,0.0,0.0,0.0,0.0,0.0,3.1717,3.1805,3.2822,3.4147,3.5698,3.7335,3.8988,4.067,4.115,4.1621,4.2222,4.1772,4.1972,4.2979,4.4098,4.6239,4.9616,5.2798,5.6367,6.0315,6.1984,6.4038,6.644,6.6948,6.7251,6.7386,6.7386,6.6268,6.411,6.0219,5.6352,5.2715,5.1467,4.8618,0.0,0.0,0.0,0.0,0.0,0.0,0.0,0.0,0.0,0.0,0.0,0.0,0.0,0.0,0.0,0.0,0.0,0.0,0.0,0.0,0.0,0.0,0.0,0.0,0.0,0.0,0.0,0.0,0.0,0.0,0.0,0.0,0.0,0.0,0.0,0.0,0.0,4.9568,5.2346,0.0,5.1581,5.2229,5.2965,5.3428,5.5256,5.654,5.7034,5.7947,5.8249,5.778,5.7904,5.7809,5.7435,5.7747,5.8101,5.846,5.8806,5.8771,5.8561,5.8329,5.7854,5.7131,5.7028,5.6575,5.5922,5.5903,5.4317,5.1859,5.1468,5.0279,4.8827,4.9305,4.8709,4.772,0.0,0.0,0.0,0.0,0.0,0.0,0.0,0.0,3.1765,3.1958,3.3332,3.4824,3.6277,3.8587,4.0483,4.1583,4.209,4.2384,4.2385,4.1752,4.1744,4.259,4.4205,4.6993,5.1083,5.3768,5.693,6.0565,6.2582,6.4503,6.6314,6.6905,6.7421,6.7929,6.8436,6.8425,6.7947,6.5511,6.1288,5.6276,5.5879,5.3377,4.9567,0.0,0.0,0.0,0.0,0.0,0.0,0.0,0.0,0.0,0.0,0.0,0.0,0.0,0.0,0.0,0.0,0.0,0.0,0.0,0.0,0.0,0.0,0.0,0.0,0.0,0.0,0.0,0.0,0.0,0.0,0.0,0.0,0.0,0.0,0.0,5.4145,5.3355,5.6793,5.8405,5.6381,5.716,5.8084,5.8775,5.9987,6.0728,6.0913,6.1129,6.0857,5.9989,5.986,5.9642,5.9302,5.939,5.9566,5.987,5.9728,5.9572,5.9449,5.8986,5.8525,5.8063,5.7928,5.748,5.6877,5.7476,5.6274,5.3982,5.3485,5.2072,5.0427,5.0945,4.9975,4.8396,0.0,0.0,0.0,0.0,0.0,0.0,0.0,3.1043,3.191,3.2418,3.3885,3.5473,3.7036,3.994,4.1712,4.1631,4.1915,4.1903,4.1595,4.0821,4.0832,4.1894,4.4825,4.7844,5.0849,5.4204,5.732,6.0291,6.2904,6.4588,6.5396,6.7023,6.7861,6.7963,6.9451,6.9755,6.9147,6.9857,6.7046,6.1988,6.072,5.8926,5.6451,0.0,0.0,0.0,0.0,0.0,0.0,0.0,0.0,0.0,0.0,0.0,0.0,0.0,0.0,0.0,0.0,0.0,0.0,0.0,0.0,0.0,0.0,0.0,0.0,0.0,0.0,0.0,0.0,0.0,0.0,0.0,0.0,0.0,4.9469,5.4411,5.7484,5.5569,6.1074,6.3771,6.0609,6.193,6.3088,6.318,6.3946,6.4132,6.3391,6.3994,6.3653,6.2131,6.1864,6.1743,6.1743,6.1877,6.1963,6.1963,6.1486,6.1264,6.1197,5.9708,5.8998,5.893,5.822,5.7881,5.7848,5.7848,5.7002,5.5647,5.5469,5.4595,5.3416,5.3416,5.1953,4.9733,0.0,0.0,0.0,0.0,0.0,0.0,0.0,3.1284,3.191,3.2418,3.4535,3.6435,3.7637,4.0274,4.1982,4.2214,4.1598,4.1205,4.1389,4.0382,4.0714,4.2957,4.5735,4.8574,5.1482,5.4278,5.6934,5.9491,6.1313,6.294,6.4413,6.5564,6.6626,6.7714,6.8248,6.8741,6.9113,6.9316,6.8513,6.6866,6.3715,6.1031,5.847,0.0,0.0,0.0,0.0,0.0,0.0,0.0,0.0,0.0,0.0,0.0,0.0,0.0,0.0,0.0,0.0,0.0,0.0,0.0,0.0,0.0,0.0,0.0,0.0,0.0,0.0,0.0,0.0,0.0,0.0,0.0,5.3245,5.5517,5.5071,5.8287,6.1216,6.279,6.4591,6.5879,6.6186,6.6311,6.6618,6.7357,6.7084,6.681,6.6641,6.58,6.5024,6.4454,6.337,6.2676,6.2479,6.1522,6.1065,6.1189,6.0521,6.003,5.9641,5.9201,5.8727,5.8186,5.7983,5.7504,5.6886,5.6886,5.601,5.473,5.5373,5.405,5.1758,5.1758,5.0632,4.9058,0.0,0.0,0.0,0.0,0.0,0.0,0.0,3.138,3.201,3.302,3.4847,3.6555,3.7829,3.9777,4.0998,4.0951,4.0127,3.9438,3.9094,3.8588,3.955,4.2391,4.5081,4.7657,5.0151,5.319,5.5708,5.7628,5.949,6.1268,6.2924,6.391,6.5102,6.6546,6.6978,6.768,6.8509,6.8813,6.8992,6.8866,6.6311,6.4497,6.2942,5.9615,5.8421,5.8159,5.578,5.4572,5.3743,5.1698,0.0,0.0,0.0,0.0,0.0,0.0,0.0,0.0,0.0,0.0,0.0,0.0,0.0,0.0,0.0,0.0,0.0,0.0,0.0,0.0,0.0,0.0,0.0,0.0,5.7171,6.0304,6.1491,6.3108,6.4918,6.6897,6.7753,6.8619,6.9628,6.9119,6.8909,6.9509,6.8538,6.776,6.7455,6.6339,6.5384,6.4611,6.3768,6.3087,6.263,6.1486,6.0953,6.1037,5.9991,5.9287,5.8998,5.8693,5.8321,0.0,5.7881,5.7403,5.6619,5.6619,5.5742,0.0,0.0,0.0,0.0,0.0,4.991,4.884,0.0,0.0,0.0,0.0,0.0,0.0,0.0,3.1452,3.2322,3.3862,3.4991,3.6266,3.7733,3.8755,3.9108,3.8509,3.7947,3.7192,3.6231,3.6351,3.7904,4.1068,4.373,4.5959,4.797,5.1568,5.403,5.519,5.7572,5.9521,6.1119,6.2181,6.3551,6.5015,6.5727,6.6561,6.744,6.8156,6.8624,6.8866,6.8055,6.8081,6.8015,6.3539,6.2781,6.3747,6.0369,5.8751,5.8088,5.6821,0.0,0.0,0.0,0.0,0.0,0.0,0.0,0.0,0.0,0.0,0.0,0.0,0.0,0.0,0.0,0.0,0.0,0.0,0.0,0.0,0.0,0.0,0.0,0.0,6.1186,6.4781,6.76,6.8053,6.8319,6.8951,7.0342,7.1312,7.1312,7.0703,7.0297,7.0195,6.8842,6.7726,6.6981,0.0,0.0,0.0,0.0,6.3294,6.2516,6.1603,6.1163,6.1163,5.9607,5.8896,5.8863,5.8186,5.7881,5.7881,5.7881,5.7476,5.6799,5.6799,5.5919,5.4566,5.4225,5.3753,5.3011,5.0894,4.9626,0.0,0.0,0.0,0.0,0.0,0.0,0.0,0.0,3.1985,3.2899,3.4414,3.5593,3.6531,3.7252,3.7534,3.7278,3.6324,3.5613,3.5725,3.6898,3.6308,3.7594,4.118,4.365,4.5901,4.7967,5.0773,5.279,5.3976,5.5908,5.7693,5.9206,6.0887,6.2799,6.4767,6.5072,6.567,6.6417,6.6551,6.7117,6.7839,6.7055,6.7257,6.7873,6.6289,6.5474,6.4949,6.3704,6.3707,6.3947,6.1601,6.0728,6.0234,5.7467,5.5006,0.0,0.0,0.0,0.0,0.0,0.0,0.0,0.0,0.0,0.0,0.0,0.0,0.0,0.0,0.0,0.0,0.0,0.0,0.0,6.091,6.406,6.7006,6.94,7.0198,7.0636,7.0771,7.1075,7.1312,7.1312,7.1176,7.0838,7.0229,6.935,6.8538,6.7726,6.6981,6.617,6.529,6.4681,6.4038,6.3294,6.1332,6.0317,6.0317,0.0,0.0,5.8084,5.7949,5.7881,5.7881,5.7881,5.7476,5.6799,5.6799,5.5919,5.4465,5.318,5.2267,5.1523,5.048,4.9641,4.9001,0.0,0.0,0.0,0.0,0.0,0.0,0.0,3.2539,3.317,3.3901,3.4463,3.4922,3.5149,3.4767,3.4245,3.3675,3.2856,3.3034,3.4555,3.4324,3.5592,3.8988,4.1489,4.3506,4.517,4.8075,5.0236,5.1573,5.3007,5.4781,5.6883,5.8619,6.0426,6.2245,6.3567,6.4634,6.5387,6.5387,6.5952,6.6772,6.6067,6.633,6.715,6.6905,6.6997,6.7211,6.6886,6.6766,6.6598,6.5279,6.4387,6.3408,6.094,5.9075,5.7265,0.0,0.0,0.0,0.0,0.0,0.0,0.0,0.0,0.0,0.0,0.0,0.0,0.0,0.0,5.4366,5.5872,0.0,6.0968,6.352,6.6167,6.847,6.9992,7.0838,7.1312,7.1312,7.1312,7.1312,7.1312,7.1312,7.0838,6.9722,6.9316,6.8605,6.7421,6.6643,6.5899,6.5155,6.4444,6.3531,6.2415,6.0858,5.9911,5.9539,5.8423,5.7881,5.7881,5.7881,5.7881,5.7881,5.7881,5.7476,5.6731,5.5987,5.504,5.3923,5.2773,5.186,5.1116,5.0371,4.9627,4.9018,0.0,0.0,0.0,0.0,0.0,0.0,0.0,3.2975,3.3102,3.33,3.3188,3.3005,3.2919,3.1971,3.1265,3.0922,3.0135,3.0335,3.1961,3.2326,3.3732,3.6525,3.8799,4.0695,4.2162,4.4966,4.7326,4.9128,5.0317,5.22,5.4768,5.6433,5.8076,5.9702,6.1961,6.3506,6.4376,6.485,6.5434,6.5975,6.5334,6.5477,6.6129,6.6062,6.7238,6.8876,6.9045,6.8171,6.7086,6.7566,6.6489,6.4654,6.3297,6.2395,6.1077,5.7572,5.7075,0.0,0.0,0.0,0.0,0.0,0.0,0.0,0.0,5.4418,5.4463,5.6165,5.7117,5.815,6.0037,6.2056,6.4076,6.6013,6.8035,6.9553,7.0297,7.0939,7.1312,7.1312,7.1312,7.1244,7.1109,7.1109,7.0466,6.8977,6.8876,6.8267,6.688,6.6237,6.5493,6.4647,6.4038,6.3024,6.1535,6.0554,5.981,5.9201,5.8321,5.7881,5.7881,5.7881,5.7881,5.7881,5.7881,5.7476,5.6697,5.5344,5.4363,5.3619,5.2672,5.186,5.1116,5.0371,4.9627,4.9018,0.0,0.0,0.0,0.0,0.0,0.0,0.0,0.0,0.0,3.3784,3.3099,3.2347,3.1914,3.0909,2.9715,2.8277,2.8053,2.8951,3.1329,3.2204,3.3537,3.5567,3.7074,3.9018,4.1534,4.2958,4.489,4.7476,4.9524,5.1494,5.3356,5.5263,5.7286,5.9344,6.1141,6.2373,6.3258,6.5375,6.6135,6.5769,6.541,6.5095,6.4708,6.3764,6.535,6.8132,6.8842,6.7285,6.5147,6.7214,6.6407,6.4718,6.5601,6.5435,6.4277,6.112,5.8939,5.6895,5.3974,5.2864,5.348,5.7212,5.6723,5.693,0.0,6.2013,6.0607,6.2971,6.3951,6.465,6.5724,6.6677,6.78,6.9387,6.9914,7.0331,7.1075,7.1278,7.1312,7.1312,7.1312,7.1041,7.0398,7.0297,6.9688,6.8132,6.803,6.7658,6.6846,6.6745,6.6034,6.4647,6.4512,6.3768,6.2279,6.0825,6.0047,5.9945,5.8558,5.7881,5.7881,5.7881,5.7881,5.7881,5.7881,5.7476,5.6731,5.5919,5.5141,5.4329,5.2875,5.186,5.1116,5.0371,4.9627,4.9018,0.0,0.0,0.0,0.0,0.0,0.0,0.0,0.0,0.0,0.0,3.1633,3.0852,2.9136,2.8381,2.7551,2.6632,2.7226,2.8351,2.9868,3.1271,3.2589,3.3854,3.5597,3.7116,3.8465,4.0755,4.2927,4.4889,4.6857,4.8538,4.9931,5.2911,5.4989,5.6344,5.9475,6.1502,6.2588,6.3549,6.4336,6.4803,6.3854,6.3693,6.3886,6.2636,6.288,6.3965,6.4766,6.3776,0.0,6.3793,6.3419,6.2706,6.4123,6.379,6.2571,6.0894,6.007,5.9378,5.7681,5.7387,5.783,5.9242,6.019,6.1521,6.4424,6.4019,6.3726,6.6044,6.7055,6.7665,6.8046,6.8741,6.9316,6.9519,6.9925,7.0297,7.0635,7.1041,7.1142,7.0703,7.0669,7.0534,7.0229,6.9789,6.9113,6.7996,6.7895,6.759,6.6846,6.6406,6.5696,6.4647,6.4174,6.3024,6.1061,6.0419,5.9674,5.8795,5.8186,5.7881,5.7881,5.7881,5.7645,5.7273,5.7273,5.6596,5.548,5.5175,5.4363,5.3145,5.2097,5.1217,5.0507,5.0202,4.9627,4.9018,0.0,0.0,0.0,0.0,0.0,0.0,0.0,0.0,0.0,0.0,3.0416,2.9379,2.7078,2.6348,2.5937,2.5713,2.6816,2.7851,2.8691,3.0371,3.1719,3.2578,3.4207,3.5517,3.6295,3.8616,4.0784,4.276,4.4377,4.6034,4.7726,5.0695,5.2544,5.355,5.7537,5.9879,6.0877,6.2242,6.3104,6.3609,6.2707,6.2443,6.2373,6.0899,5.9866,5.9302,6.075,6.0083,5.8715,5.954,5.9337,5.908,6.0854,6.1011,6.0436,6.0192,6.0097,5.9979,5.9607,6.008,6.0791,6.1231,6.3294,6.5324,6.573,6.6,6.6609,6.8199,6.9147,6.9722,6.9722,7.0128,7.0331,6.9789,7.0161,7.05,7.05,7.0804,7.0737,6.9958,6.9519,6.9248,6.9248,6.8944,6.8436,6.7658,6.759,6.7354,6.6846,6.6102,6.5358,6.4613,6.37,6.2313,6.0452,6.0013,5.9268,5.8186,5.7983,5.7881,5.7881,5.7881,5.7611,5.7103,5.69,5.6089,5.4871,5.4668,5.3822,5.257,5.1826,5.1048,5.0371,5.0168,4.9627,4.9018,0.0,0.0,0.0,0.0,0.0,0.0,0.0,0.0,0.0,0.0,0.0,0.0,0.0,2.5625,2.5273,2.5654,2.6523,2.7402,2.8262,2.9941,3.1289,3.2148,3.2947,3.4268,3.6234,3.6721,3.8439,4.1566,4.2705,4.4814,4.7811,4.8998,5.0306,5.192,5.5506,5.7122,5.7488,6.23,6.3552,6.2396,6.2643,6.1575,5.9604,5.7885,5.6029,5.4835,5.7987,5.6778,5.3844,5.4864,5.4282,5.3545,5.5892,5.7707,5.9126,5.9857,5.86,5.7103,5.778,5.8524,5.9945,6.3565,6.5628,6.7117,6.8639,6.9519,7.0026,7.0094,7.0737,7.1244,7.1244,7.1278,7.1278,7.1244,7.1278,7.1278,7.1278,7.0669,6.9958,6.9214,6.7827,6.6914,0.0,6.7523,6.7624,6.6914,6.6846,6.6846,6.6812,6.6102,6.5358,6.4613,6.3193,6.2042,6.1264,5.9776,5.9032,5.8964,5.8254,5.7881,5.7881,5.7881,5.7881,5.7814,5.7103,5.6393,5.5615,5.4905,5.416,5.3382,5.257,5.1826,5.1082,5.0371,4.9627,4.9018,0.0,0.0,0.0,0.0,0.0,0.0,0.0,0.0,0.0,0.0,0.0,0.0,0.0,0.0,0.0,0.0,2.668,2.7266,2.7832,2.9473,3.0703,3.1289,3.2113,3.3111,3.4248,3.5447,3.6839,3.8402,4.1225,4.3191,4.4276,4.7447,4.9581,5.0923,5.3525,5.5829,5.7915,5.9602,6.1031,6.2079,6.0849,6.0173,5.9697,5.7371,5.497,5.293,0.0,5.189,5.024,5.0167,4.9901,5.0027,5.1995,5.2972,5.364,5.5221,5.6519,5.778,5.9032,6.0994,6.3362,6.6102,6.7929,6.9316,7.0331,7.077,7.0939,7.0939,6.9925,6.9045,6.9045,6.8639,6.847,6.8977,6.9891,7.0737,7.1244,7.1109,7.0466,6.9248,6.8166,0.0,0.0,0.0,0.0,6.6779,6.6812,6.6609,6.6102,6.5831,6.5121,6.3903,6.3396,6.2279,6.052,5.9979,5.9235,5.8254,5.8017,5.7881,5.7881,5.7881,5.7611,5.7137,5.6393,5.5649,5.4905,5.416,5.3416,5.2638,5.1894,5.1116,5.0371,4.9627,4.9221,4.9018,0.0,0.0,0.0,0.0,0.0,0.0,0.0,0.0,0.0,0.0,0.0,0.0,0.0,0.0,0.0,0.0,0.0,2.7129,2.7422,2.8594,2.9629,3.0391,3.0801,3.1447,3.2336,3.3223,3.4407,3.5849,3.832,4.0111,4.1317,4.4585,4.6891,4.8363,5.0946,5.3415,5.5623,5.6308,5.7334,5.8326,5.7118,5.6539,5.6206,5.4306,5.2256,0.0,4.8955,4.7845,4.6984,4.6635,4.7093,4.7976,4.8677,4.9846,5.1359,5.3226,5.5716,5.8321,6.0351,6.2888,6.5527,6.776,6.9485,7.0737,7.121,7.1312,7.1176,7.0635,6.9113,6.7726,6.7218,6.6305,6.5865,6.6609,6.732,6.8335,6.9891,6.9654,6.9147,6.8707,6.776,6.6914,6.644,0.0,0.0,6.6373,6.6677,6.6373,6.5358,6.529,6.4749,6.3565,6.299,6.1873,6.0114,5.9844,5.9099,5.7881,5.7881,5.7881,5.7881,5.7881,5.7476,5.6765,5.6021,5.5277,5.4499,5.3484,5.2773,5.2198,5.1217,5.0507,4.9999,4.9255,4.9018,4.9018,0.0,0.0,0.0,0.0,0.0,0.0,0.0,0.0,0.0,0.0,0.0,0.0,0.0,0.0,0.0,0.0,0.0,0.0,2.7012,2.7402,2.8184,2.947,2.9121,2.9482,3.0591,3.029,3.1441,3.409,3.4168,3.5904,3.9021,4.0739,4.2479,4.4352,4.7731,4.9781,5.086,5.2743,5.2824,5.1807,5.1912,5.0989,4.9543,4.8981,4.811,4.7027,4.5813,4.4915,4.4377,4.4317,4.5788,4.7473,4.6339,4.872,5.2249,5.4096,5.6281,5.8724,6.1738,6.4174,6.6406,6.8639,7.0263,7.1312,7.1312,7.1244,7.0804,6.935,6.8267,6.7117,6.5662,6.4309,6.3666,6.441,6.414,6.4816,6.7658,6.6846,6.644,6.7793,6.6643,6.5764,6.5764,6.5696,0.0,6.5628,0.0,6.617,6.4681,6.4613,6.4241,6.3497,6.2042,6.0926,6.0114,5.9336,5.8592,5.7881,5.7881,5.7881,5.7881,5.7848,5.7442,5.6765,5.5987,5.5243,5.4431,5.2909,5.2266,5.2097,5.0642,5.0101,4.9999,4.9255,4.9018,4.9018,0.0,0.0,0.0,0.0,0.0,0.0,0.0,0.0,0.0,0.0,0.0,0.0,0.0,0.0,0.0,0.0,0.0,0.0,2.6992,2.7129,2.748,2.8178,2.8633,2.9235,2.9875,3.0317,3.1147,3.2399,3.4005,3.5338,3.6397,3.8461,4.0507,4.2552,4.3733,4.5861,4.8678,4.9172,4.9935,5.0634,4.9676,4.9143,4.878,4.8296,4.704,4.5537,4.5917,4.5633,4.4975,4.4466,4.6214,4.8771,4.9613,5.148,5.3786,5.6001,5.8378,6.0912,6.4011,6.6508,6.8639,7.0331,7.1041,7.1312,7.1312,7.0466,6.9383,6.8402,6.5425,6.2685,6.1704,6.1704,6.2279,6.3599,6.5967,6.8335,7.0195,6.962,6.8977,6.8808,6.7455,6.6542,6.6542,6.6,0.0,0.0,6.6068,6.617,6.4681,6.4613,6.4005,6.2719,6.1772,6.0926,6.0114,5.8829,5.8084,5.7881,5.7881,5.7881,5.7881,5.734,5.6968,5.6731,5.5446,5.4465,5.3687,5.2706,5.1995,5.1386,5.0439,5.0101,4.9999,4.9255,4.9018,4.9018,0.0,0.0,0.0,0.0,0.0,0.0,0.0,0.0,0.0,0.0,0.0,0.0,0.0,0.0,0.0,0.0,0.0,0.0,0.0,2.7012,2.7207,2.7708,2.793,2.8203,2.8437,2.8834,2.9416,3.0112,3.1449,3.242,3.3093,3.5061,3.706,3.9014,4.0094,4.2146,4.4864,4.4969,4.5383,0.0,0.0,4.4885,4.4785,4.4583,4.4142,4.373,4.4225,4.4971,4.5873,4.6779,4.8437,5.053,5.2322,5.4142,5.5915,5.8039,6.0073,6.2202,6.4619,6.6721,6.8519,6.9766,7.0373,7.0364,6.9532,6.8944,6.7793,6.5053,6.2516,6.025,5.849,5.8795,5.981,6.1298,6.3869,6.6643,6.9417,6.8876,6.8436,6.9045,6.776,6.6812,6.6812,6.644,6.5865,0.0,6.5865,6.5527,6.3734,6.3937,6.3599,6.2415,6.167,6.0757,5.9641,5.849,5.7881,5.7881,5.7881,5.7881,5.7881,5.7476,5.6934,5.6292,0.0,5.4499,5.3416,5.23,5.1589,5.1083,5.0033,4.9627,4.956,4.9154,4.9018,4.9018,0.0,0.0,0.0,0.0,0.0,0.0,0.0,0.0,0.0,0.0,0.0,0.0,0.0,0.0,0.0,0.0,0.0,0.0,0.0,0.0,2.7187,2.7559,2.7285,2.7109,2.7109,2.7109,2.7365,2.7975,2.8298,2.8899,2.9881,3.1383,3.3093,3.4988,3.6737,3.8617,4.0482,4.0783,4.0569,4.0095,4.0174,3.9997,3.9798,0.0,0.0,4.1645,4.2009,4.3872,4.6621,4.9749,5.1361,5.2497,5.4825,5.67,5.834,6.0294,6.1759,6.3129,6.4787,6.6193,6.7345,6.8397,6.9013,6.8898,6.6993,6.688,6.5732,6.0921,5.9708,5.8693,5.6055,5.6258,5.7374,5.9167,6.0757,6.3294,6.7726,6.7083,6.688,6.8876,6.7827,6.6914,6.6812,6.6711,6.6339,6.5595,6.5459,6.4546,6.2651,6.3057,6.2922,6.1975,6.1332,6.0317,5.8896,5.822,5.7881,5.7881,5.7881,5.7881,5.7881,5.7679,5.69,5.5716,0.0,0.0,5.3247,5.1792,5.115,5.0947,4.956,4.9018,4.9018,4.9018,4.9018,4.9018,0.0,0.0,0.0,0.0,0.0,0.0,0.0,0.0,0.0,0.0,3.4226,3.4144,0.0,0.0,0.0,0.0,0.0,0.0,0.0,0.0,0.0,2.7129,2.7402,2.7559,2.7559,2.7559,2.7851,2.8367,2.8086,2.8218,2.8856,2.9119,3.0628,3.303,3.3541,3.5235,3.7818,3.8545,3.8605,3.837,3.8841,3.8699,3.8352,3.9087,0.0,0.0,4.2051,4.3973,4.6112,5.0467,5.2906,5.4624,5.7618,5.9205,6.0537,6.3586,6.4266,6.4602,6.7475,6.8018,6.8021,6.8823,6.8306,6.7197,6.5811,6.4208,6.2291,5.9726,5.7746,5.6122,5.5006,5.5886,5.7915,6.1264,6.3057,6.5595,7.0094,6.9451,6.8673,6.9045,6.8267,6.7489,6.688,6.6237,6.5561,0.0,6.4241,6.3734,6.3328,6.2854,6.167,5.9674,5.9471,5.8998,5.8084,5.7949,5.7881,5.7881,5.7881,5.7881,5.7848,5.663,5.5953,5.5614,0.0,0.0,5.2435,5.1589,5.0845,5.0202,4.9357,4.9018,4.9018,4.9018,4.9018,4.9018,0.0,0.0,0.0,0.0,0.0,0.0,0.0,3.45,3.4826,3.6257,3.6338,3.6031,3.5454,3.4146,3.2926,0.0,0.0,0.0,0.0,0.0,0.0,0.0,0.0,0.0,2.7728,2.7943,2.8035,2.8146,0.0,2.7934,2.8255,2.8007,2.9149,3.1296,3.1646,3.308,3.5391,3.634,3.6642,3.6619,3.7482,3.7665,0.0,0.0,0.0,0.0,4.2224,4.3679,4.5191,4.9298,5.2102,5.4669,5.907,6.1392,6.2778,6.4437,6.4986,6.5451,6.696,6.7404,6.7565,6.8138,6.7292,6.5556,6.2892,6.1229,5.9317,5.6166,5.4979,5.4148,5.3045,5.4702,5.6833,5.8626,6.0791,6.37,6.7793,6.776,6.7624,6.8368,6.8132,6.7455,6.6339,6.5899,6.5222,6.4106,6.37,6.3328,6.2956,6.2212,6.1129,5.9641,5.9201,5.866,5.7881,5.7881,5.7881,5.7881,5.7881,5.7881,5.7881,5.7171,5.6427,5.5647,5.4972,0.0,5.2841,5.1691,5.1014,5.0574,4.9458,4.9018,4.9018,4.9018,4.9018,4.9018,0.0,0.0,0.0,0.0,0.0,0.0,0.0,3.5157,3.583,3.7914,3.8291,3.7891,3.6746,3.5403,3.4183,0.0,0.0,0.0,0.0,0.0,0.0,0.0,0.0,0.0,0.0,0.0,0.0,2.7965,2.7864,0.0,0.0,0.0,0.0,0.0,3.0619,3.1904,3.3751,3.4812,3.5365,0.0,0.0,3.7142,0.0,0.0,0.0,0.0,0.0,4.3097,4.421,4.7882,5.0557,5.3253,5.8316,6.1583,6.3604,6.3923,6.4825,6.5909,6.6242,6.6735,6.7178,6.7324,6.612,6.3944,6.0133,5.8517,5.6788,5.3049,5.2738,5.2888,5.1864,5.3518,5.5243,5.6055,5.7848,6.0689,6.5053,6.5561,6.6068,6.7692,6.7895,6.732,6.5831,6.5561,0.0,6.3599,6.3362,0.0,6.1941,6.1366,6.0622,5.9674,5.9066,5.849,5.7881,5.7881,5.7881,5.7881,5.7881,5.7881,5.7881,5.7712,5.6934,5.5716,5.5547,0.0,0.0,5.186,5.1185,5.1082,4.9593,4.9018,4.9018,4.9018,4.9018,4.9018,0.0,0.0,0.0,0.0,0.0,0.0,0.0,3.5629,3.686,3.8567,3.922,3.932,3.8718,3.7351,3.6046,0.0,0.0,0.0,0.0,0.0,0.0,0.0,0.0,0.0,0.0,0.0,0.0,2.8428,2.8025,0.0,0.0,0.0,0.0,0.0,0.0,3.1904,3.3751,3.4812,0.0,0.0,0.0,0.0,0.0,0.0,0.0,0.0,0.0,4.2195,4.3441,4.7153,4.897,5.0288,5.3792,5.7625,6.1135,6.234,6.4064,6.5841,6.7354,6.7781,6.7658,6.7095,6.5022,6.2176,5.8908,5.6618,5.4666,5.2704,5.2373,5.2553,5.318,5.2909,5.3721,5.7137,5.6799,5.8355,6.4783,6.5121,6.5493,6.7658,6.7895,6.732,6.5831,6.5087,6.4377,6.3565,6.2888,0.0,6.0385,6.025,5.9573,5.8152,5.8017,5.7949,5.7881,5.7881,5.7881,5.7881,5.7881,5.7881,5.7881,5.7205,5.6461,5.5647,5.5006,0.0,0.0,5.186,5.1185,5.1082,4.9593,4.9018,4.9018,4.9018,4.9018,4.9018,0.0,0.0,0.0,0.0,0.0,0.0,3.4475,3.5133,3.6458,3.9471,3.9772,3.9747,3.9848,3.9355,3.7941,3.5339,0.0,0.0,0.0,0.0,0.0,0.0,0.0,0.0,0.0,0.0,2.8765,2.9132,2.8706,0.0,0.0,0.0,0.0,0.0,0.0,3.1772,3.3751,3.4684,0.0,0.0,0.0,0.0,0.0,0.0,0.0,0.0,0.0,0.0,4.3759,4.5815,4.7189,4.8237,4.9164,5.1935,5.5671,5.9607,6.2445,6.4708,6.651,6.7758,6.8243,6.7165,6.4549,6.136,5.8,5.5021,5.2582,5.1154,5.1252,5.1711,5.1991,5.2203,5.2807,5.4296,5.4059,5.5209,5.9708,6.0452,6.1738,6.4884,6.5662,6.5696,6.5087,6.4783,6.4106,6.2922,0.0,0.0,6.0148,6.0114,5.9641,5.8592,5.8118,5.7881,5.7881,5.7881,5.7881,5.7881,5.7881,5.7881,5.7848,5.7137,5.6393,5.5683,5.4905,0.0,0.0,5.186,5.1185,5.1082,4.9593,4.9018,4.9018,4.9018,4.9018,4.9018,0.0,0.0,0.0,0.0,0.0,3.191,3.4077,3.4851,3.6307,3.9371,3.9722,3.9848,4.0224,3.9973,3.8711,3.6106,3.5127,0.0,0.0,0.0,0.0,0.0,0.0,0.0,0.0,0.0,2.9298,2.9811,2.9452,2.9331,0.0,0.0,2.9159,3.0392,0.0,0.0,0.0,0.0,0.0,0.0,0.0,0.0,0.0,0.0,0.0,0.0,0.0,0.0,0.0,0.0,0.0,4.6651,4.6411,4.8013,5.1036,5.6093,5.9895,6.286,6.4718,6.6721,6.8027,6.6888,6.4057,6.0671,5.7549,5.4145,5.1358,5.0151,5.0538,5.1169,5.1402,5.1732,5.2063,5.2266,5.2131,5.3044,5.6055,5.7103,5.8795,6.211,6.2956,6.3362,6.3599,6.3835,6.3531,6.2482,0.0,0.0,6.0148,5.9911,5.9438,5.8693,5.8152,5.7881,5.7881,5.7881,5.7881,5.7881,5.7881,5.7881,5.7848,5.69,5.619,5.5683,0.0,0.0,0.0,5.1758,5.1082,5.0744,4.9492,4.9018,4.9018,4.9018,4.9018,4.9018,0.0,0.0,0.0,0.0,0.0,0.0,3.2997,3.5071,3.6807,3.7889,3.8994,3.9697,3.9697,3.8693,3.8015,3.794,3.6642,0.0,0.0,0.0,0.0,0.0,0.0,0.0,0.0,0.0,2.9439,3.0207,3.0186,3.0142,2.9994,2.9973,2.9787,2.9493,0.0,0.0,0.0,0.0,0.0,0.0,0.0,0.0,0.0,0.0,0.0,0.0,0.0,0.0,0.0,0.0,0.0,0.0,0.0,4.68,4.8041,5.1723,5.6224,6.0396,6.2058,6.4691,6.6765,6.6088,6.3349,6.0086,5.7426,5.4145,5.1358,5.0151,5.0538,5.1331,5.2131,5.1698,5.1454,5.2198,5.1691,5.2266,5.531,5.6359,5.7645,5.9877,6.0148,6.0452,6.1264,6.1975,6.2415,6.2381,0.0,0.0,6.0148,5.9404,5.8693,5.7915,5.7881,5.7881,5.7881,5.7881,5.7881,5.7881,5.7881,5.7881,5.7848,5.6393,5.5716,0.0,0.0,0.0,0.0,5.1522,5.0777,5.0033,4.9289,4.9018,4.9018,4.9018,4.9018,4.9018,0.0,0.0,0.0,0.0,0.0,0.0,0.0,3.2544,3.4145,3.7039,3.7437,3.8039,3.9521,3.9044,3.8442,3.804,3.6526,0.0,0.0,0.0,0.0,0.0,0.0,0.0,0.0,2.9732,3.0011,3.057,3.057,3.0653,3.0926,3.0284,3.0242,3.0765,3.1397,3.2062,0.0,0.0,0.0,0.0,0.0,0.0,4.1869,0.0,0.0,0.0,0.0,0.0,0.0,0.0,0.0,0.0,0.0,0.0,0.0,4.8076,5.2348,5.6929,5.8349,6.0359,6.1779,6.064,5.8824,5.673,5.4514,5.2452,5.0629,4.9316,4.971,5.0371,5.0607,5.0509,5.0794,5.2066,5.1691,5.1928,5.3923,5.5277,5.6867,5.9099,6.1197,6.2719,0.0,0.0,6.1637,0.0,0.0,0.0,5.937,5.866,5.8118,5.7881,5.7881,5.7881,5.7881,5.7881,5.7881,5.7881,5.7881,5.7645,5.7103,5.6156,0.0,0.0,0.0,0.0,0.0,5.0947,5.0304,5.0033,4.9289,4.9018,4.9018,4.9018,4.9018,4.9018,0.0,0.0,0.0,0.0,0.0,0.0,0.0,3.1402,3.2876,3.5612,3.6006,3.6734,3.8542,3.8266,3.804,3.8316,3.701,0.0,0.0,0.0,0.0,0.0,0.0,0.0,3.0578,3.0183,3.0387,3.1195,3.1381,3.1609,3.1878,3.1464,3.1123,3.0897,3.1478,3.2132,0.0,0.0,0.0,0.0,0.0,0.0,4.2076,0.0,0.0,0.0,0.0,0.0,0.0,0.0,0.0,0.0,0.0,0.0,0.0,0.0,4.9664,5.3251,5.5092,5.7014,5.8416,5.7931,5.6361,5.4637,5.3375,5.1652,4.9989,4.885,4.955,5.0237,4.995,5.0204,5.066,5.1355,5.1319,5.1657,5.2875,5.46,5.6427,5.8355,6.0486,6.2009,0.0,6.1772,6.1163,0.0,0.0,0.0,5.9032,5.8287,5.7881,5.7881,5.7881,5.7881,5.7881,5.7611,5.7476,5.7476,5.7205,5.6833,5.6359,5.5344,0.0,0.0,0.0,0.0,0.0,5.0574,4.9932,4.9627,4.9187,4.9018,4.9018,4.9018,4.9018,4.9018,0.0,0.0,0.0,0.0,0.0,0.0,0.0,3.138,3.2661,3.374,3.4781,3.5834,3.696,3.6681,3.7059,3.8668,0.0,0.0,0.0,0.0,0.0,0.0,0.0,0.0,3.1739,3.0672,3.0805,3.2079,3.2499,3.2711,3.283,3.3203,3.2209,3.0192,3.1387,3.2153,3.2865,3.6366,3.8161,3.8762,3.9307,4.0715,0.0,0.0,0.0,0.0,0.0,0.0,0.0,0.0,0.0,0.0,0.0,0.0,0.0,0.0,0.0,0.0,0.0,5.4432,5.6102,5.6928,5.5253,5.3406,5.3375,5.148,0.0,4.8841,4.9923,5.0816,5.0098,5.0553,5.0848,5.027,5.0744,5.1488,5.2266,5.4397,5.6427,5.7881,5.8727,5.9167,5.9099,6.0385,0.0,0.0,0.0,0.0,5.893,5.8254,5.7881,5.7814,5.7814,5.7814,5.7814,5.7137,5.6765,5.6697,5.6055,5.5683,5.5513,5.4126,0.0,0.0,0.0,0.0,0.0,5.0338,4.9627,4.9018,4.9018,4.9018,4.9018,4.9018,4.9018,4.9018,0.0,0.0,0.0,0.0,0.0,0.0,0.0,0.0,0.0,0.0,3.45,3.5132,3.5809,3.6182,3.6732,0.0,0.0,0.0,0.0,0.0,0.0,0.0,0.0,0.0,3.2851,3.2112,3.2254,3.32,3.2874,3.3078,3.3741,3.3492,3.2727,3.1547,3.2319,3.3447,3.4892,3.6519,3.7795,3.8731,3.9101,4.0275,0.0,0.0,0.0,0.0,4.4589,4.5221,0.0,0.0,0.0,0.0,0.0,0.0,0.0,0.0,4.7832,4.8711,4.9493,0.0,5.1208,5.0851,5.0697,5.0482,0.0,5.0216,5.0398,4.9747,4.9898,5.031,5.0725,5.0054,4.9792,5.0782,5.1116,5.1658,5.3044,5.5615,5.7915,5.9404,6.0283,6.052,5.9911,6.0182,0.0,0.0,0.0,5.8152,5.8152,5.7983,5.7645,5.707,5.707,5.707,5.707,5.69,5.6528,5.5987,5.5749,5.5108,5.4025,5.3653,0.0,0.0,0.0,0.0,5.0304,4.956,4.9154,4.9018,4.9018,4.9018,4.9018,4.9018,4.9018,4.9018,0.0,0.0,0.0,0.0,0.0,0.0,0.0,0.0,0.0,0.0,0.0,0.0,0.0,0.0,0.0,0.0,0.0,0.0,0.0,0.0,0.0,0.0,0.0,3.4532,3.3944,3.2869,3.2821,3.3888,3.3512,3.3699,3.4443,3.4341,3.3492,3.2002,3.234,3.3356,3.4872,3.6304,3.7469,3.8391,3.8792,0.0,0.0,0.0,0.0,0.0,4.3948,4.4459,0.0,4.5789,4.6334,4.6808,0.0,0.0,0.0,0.0,4.8162,4.8438,4.8563,4.9044,4.9524,4.9547,4.9884,5.0248,5.0113,5.0555,5.0806,5.0032,5.0191,5.0389,5.0116,5.0026,5.0123,5.0612,5.1589,5.2909,5.4769,5.6089,5.7577,5.9404,5.9674,5.9708,0.0,0.0,0.0,0.0,0.0,5.7577,5.6934,5.7205,5.69,5.5818,5.5784,5.5953,5.6292,5.5953,5.5581,5.5209,5.4871,5.4093,5.2942,5.2942,5.2334,0.0,0.0,0.0,5.0033,4.9289,4.9018,4.9018,4.9018,4.9018,4.9018,4.9018,4.9018,4.9018,0.0,0.0,0.0,0.0,0.0,0.0,0.0,0.0,0.0,0.0,0.0,0.0,0.0,0.0,0.0,0.0,0.0,0.0,0.0,0.0,0.0,0.0,3.5523,3.5066,3.5139,3.3604,3.3378,3.4558,3.4413,3.4521,3.492,3.5314,3.432,3.2085,3.2153,3.2841,3.3995,3.5844,3.714,3.788,3.851,0.0,0.0,0.0,0.0,0.0,0.0,0.0,0.0,4.5546,4.6316,4.7106,4.7927,0.0,0.0,0.0,0.0,0.0,4.8953,4.9605,5.0283,5.0542,5.0839,5.1207,5.1548,5.136,5.0867,5.0079,5.0498,5.0622,4.9592,5.0289,5.0913,5.0507,5.2334,5.4566,5.6664,5.663,5.6968,5.849,5.8321,0.0,0.0,0.0,0.0,0.0,0.0,5.7137,5.5749,5.619,5.5784,5.4296,5.4363,5.4668,5.5209,5.4668,5.4431,5.4397,5.3687,5.2909,5.2131,5.2029,5.1555,0.0,0.0,0.0,4.9864,4.9255,4.9018,4.9018,4.9018,4.9018,4.9018,4.9018,4.9018,4.9018,0.0,0.0,0.0,0.0,0.0,0.0,0.0,0.0,0.0,0.0,0.0,0.0,0.0,0.0,0.0,0.0,0.0,0.0,0.0,0.0,0.0,3.643,3.6263,3.6368,3.6843,3.562,3.5263,3.5827,3.5602,3.5384,3.5335,3.579,3.4797,3.2639,3.2944,3.3292,3.3749,3.5331,3.6619,3.7644,3.8719,0.0,0.0,0.0,0.0,0.0,0.0,0.0,0.0,4.4841,4.5795,4.6863,4.6269,0.0,0.0,0.0,0.0,0.0,5.053,5.2563,5.3751,5.0753,5.1008,5.1694,5.0489,5.066,5.0872,5.0144,5.0126,5.0583,5.1595,5.095,5.0642,5.1792,5.389,5.5919,5.7509,5.8693,5.8863,5.7306,0.0,5.8389,0.0,0.0,0.0,0.0,0.0,0.0,0.0,5.5209,5.4228,5.2706,5.3315,5.3416,5.2841,5.3382,5.3687,5.3653,5.2875,5.2097,5.1352,5.071,5.0033,0.0,0.0,4.9187,4.9154,4.9052,4.9018,4.9018,4.9018,4.9018,4.9018,4.9018,4.9018,4.9018,0.0,0.0,0.0,0.0,0.0,0.0,0.0,0.0,0.0,0.0,0.0,0.0,0.0,0.0,0.0,0.0,0.0,0.0,0.0,0.0,3.6933,3.7236,3.7008,3.6983,3.7186,3.6941,3.7297,3.8374,3.8478,3.864,3.8755,3.7292,3.5873,3.4515,3.3056,3.283,3.365,3.446,3.5545,3.673,0.0,0.0,0.0,0.0,0.0,0.0,0.0,0.0,0.0,0.0,4.5712,4.662,4.6726,0.0,0.0,0.0,0.0,0.0,4.9766,5.1759,5.3296,5.1615,5.3503,5.5148,5.288,5.3307,5.3608,5.1665,5.163,5.1995,5.2266,5.2435,5.3281,5.5547,5.6461,5.7273,5.8355,5.8051,5.7509,0.0,0.0,0.0,0.0,0.0,0.0,0.0,0.0,0.0,0.0,0.0,5.2841,5.1758,5.2063,5.2097,5.1725,5.2097,5.2469,5.2841,5.2063,5.1319,5.0574,5.0236,4.9695,4.9018,0.0,4.9018,4.9018,4.9018,4.9018,4.9018,4.9018,4.9018,4.8951,4.8578,4.8173,4.7868,0.0,0.0,0.0,0.0,0.0,0.0,0.0,0.0,0.0,0.0,0.0,0.0,0.0,0.0,0.0,0.0,0.0,0.0,0.0,3.6329,3.6832,3.7764,3.7538,3.7613,3.814,3.8371,3.9255,4.0748,4.1282,4.1568,4.1584,3.8792,3.7012,3.6117,3.3444,3.2752,3.3502,3.3726,3.4606,3.5879,0.0,0.0,0.0,0.0,0.0,0.0,0.0,0.0,0.0,0.0,0.0,0.0,0.0,0.0,0.0,4.8641,4.8828,4.9132,4.9328,5.1069,5.2788,5.2622,5.5085,5.7082,5.5384,5.5526,5.5513,5.3721,5.3585,5.3585,5.2942,5.3788,5.5513,5.8287,5.8254,5.8152,5.8896,5.7543,5.6562,5.6765,0.0,0.0,0.0,0.0,0.0,0.0,0.0,0.0,0.0,0.0,5.1725,5.098,5.1116,5.1185,5.1185,5.1048,5.1319,5.2029,5.1116,5.0405,4.983,4.9661,4.9289,4.8748,4.8951,4.9018,4.9018,4.9018,4.9018,4.9018,4.9018,4.9018,4.8917,4.8142,4.7564,4.7158,0.0,0.0,0.0,0.0,0.0,0.0,0.0,0.0,0.0,0.0,0.0,0.0,0.0,0.0,0.0,0.0,0.0,0.0,0.0,3.6081,3.6681,3.7211,3.7688,3.8919,4.0949,4.0545,4.0854,4.1972,4.282,4.2617,4.1483,3.9753,3.7988,3.614,3.4849,3.3919,3.325,3.3502,3.4338,3.557,3.5879,0.0,0.0,0.0,0.0,0.0,0.0,0.0,0.0,0.0,0.0,0.0,0.0,0.0,4.876,4.8167,4.8924,5.0145,5.0853,5.2674,5.4261,5.3585,5.3653,5.4362,5.622,5.514,5.4262,5.6089,5.5412,5.4499,5.4431,5.4532,5.5344,5.7611,5.7915,5.8152,5.8896,0.0,5.8287,5.6968,0.0,0.0,0.0,0.0,0.0,0.0,0.0,0.0,0.0,0.0,0.0,5.0202,5.0845,5.1185,5.1185,5.0507,5.0541,5.1285,4.983,4.912,4.9052,4.8376,4.8007,4.8007,4.8714,4.9018,4.9018,4.9018,4.9018,4.9018,4.9018,4.9018,4.8917,4.8142,4.7872,4.7804,0.0,0.0,0.0,0.0,0.0,0.0,0.0,0.0,0.0,0.0,0.0,0.0,0.0,0.0,0.0,0.0,0.0,0.0,0.0,3.6056,3.6807,3.7663,3.7889,3.8894,4.0724,4.1957,4.3237,4.4695,4.5377,4.5306,4.4403,4.1403,3.9412,3.8247,3.5792,3.4684,3.4639,3.3889,3.4504,3.5965,3.5908,3.7212,0.0,0.0,0.0,0.0,0.0,0.0,0.0,0.0,4.6833,4.7696,4.7862,4.8364,4.8862,4.8651,4.9001,4.9492,4.9763,5.1488,5.3112,5.2807,5.3145,5.4093,5.6292,5.7205,5.7442,5.69,5.7442,5.7746,5.6799,5.663,5.6934,5.7746,5.7881,5.8152,5.8896,5.7848,5.6765,0.0,0.0,0.0,0.0,0.0,0.0,0.0,0.0,0.0,0.0,0.0,0.0,5.0067,5.0371,5.0507,5.0507,5.0236,4.9999,4.983,4.8815,4.8578,4.8984,4.824,4.8142,4.8612,4.8883,4.9018,4.9018,4.9018,4.9018,4.9018,4.9018,4.8714,4.8277,4.8007,4.7297,4.6684,0.0,0.0,0.0,0.0,0.0,0.0,0.0,0.0,0.0,0.0,0.0,0.0,0.0,0.0,0.0,0.0,0.0,0.0,3.537,3.5852,3.6508,3.7437,3.7814,3.8793,4.0475,4.2509,4.4292,4.5773,4.6677,4.6677,4.5723,4.271,4.0802,3.9821,3.7269,3.6085,3.6026,3.476,3.4987,3.6162,3.5863,3.6913,0.0,0.0,0.0,0.0,0.0,0.0,0.0,0.0,4.7033,4.7925,4.8431,4.8759,4.8957,4.8964,4.9018,4.9018,4.9018,5.0101,5.1319,5.1555,5.2367,5.3822,5.6528,5.8321,5.937,5.9268,5.9539,5.9302,5.7814,5.734,5.7273,5.7509,5.7746,5.7983,5.8287,5.6596,0.0,0.0,0.0,0.0,0.0,0.0,0.0,0.0,0.0,0.0,0.0,0.0,0.0,0.0,4.9864,4.9729,4.9729,4.9526,4.9154,4.8646,4.8142,4.8173,4.8646,4.8108,4.8206,4.868,4.8917,4.9018,4.9018,4.9018,4.8883,4.868,4.8917,4.8409,4.7564,4.7564,4.6921,4.6177,0.0,0.0,0.0,0.0,0.0,0.0,0.0,0.0,0.0,0.0,0.0,0.0,0.0,0.0,0.0,0.0,0.0,0.0,3.5111,3.5344,3.578,3.638,3.7412,3.8768,4.045,4.2108,4.3514,4.4644,4.6301,4.619,4.4593,4.3463,4.2082,4.045,3.9371,3.8285,3.7211,3.6076,3.5767,3.5965,3.5671,3.6307,3.7644,0.0,0.0,0.0,0.0,0.0,0.0,0.0,4.7895,4.8164,4.9641,4.9593,4.9018,4.9018,4.9018,4.9018,4.9018,4.9018,4.9187,4.9932,5.1217,5.3315,5.7036,5.7915,5.9167,6.3666,6.1603,5.8558,5.707,5.6224,5.5953,5.6664,5.7374,5.7611,5.6867,5.5513,0.0,0.0,0.0,0.0,0.0,0.0,0.0,0.0,0.0,0.0,0.0,0.0,0.0,0.0,4.9357,4.8984,4.9018,4.8274,4.7906,4.7906,4.7906,4.7906,4.7906,4.7906,4.7906,4.7939,4.868,4.9018,4.9018,4.9018,4.8578,4.7973,4.8714,4.8071,4.6786,4.6819,4.6786,4.6684,0.0,0.0,0.0,0.0,0.0,0.0,0.0,0.0,0.0,0.0,0.0,0.0,0.0,0.0,0.0,0.0,0.0,0.0,3.5309,3.5372,3.5613,3.6012,3.672,3.723,3.7637,3.9622,4.2158,4.5221,4.5321,4.4719,4.3438,4.1932,4.0777,3.9898,3.9195,3.8492,3.7692,3.6207,3.6186,3.7039,3.596,3.6307,3.7644,0.0,0.0,0.0,0.0,0.0,0.0,0.0,0.0,0.0,4.8397,4.912,4.9661,4.9154,4.9357,4.9661,4.9154,4.9763,5.0744,5.1454,5.3179,5.5412,5.8084,5.8693,5.9505,6.2448,6.0486,5.823,5.8253,5.6846,5.5551,5.5172,5.4941,5.4905,5.5209,0.0,0.0,0.0,0.0,0.0,0.0,0.0,0.0,0.0,0.0,0.0,0.0,0.0,0.0,0.0,4.8105,4.7936,4.8984,4.8274,4.8173,4.868,4.868,4.868,4.868,4.8142,4.8206,4.8714,4.8917,4.9018,4.9018,4.9018,4.8578,4.7906,4.8142,4.7631,4.6853,4.7394,4.7259,4.6819,0.0,0.0,0.0,0.0,0.0,0.0,0.0,0.0,0.0,0.0,3.6001,3.6499,0.0,0.0,0.0,0.0,0.0,0.0,0.0,3.5487,3.5507,3.5658,3.6421,3.7064,3.7531,3.9575,4.142,4.3028,4.3444,4.3087,4.1982,4.143,4.0877,4.035,4.0224,3.9747,3.8893,3.7517,3.7246,3.7657,3.6837,3.6969,3.7795,0.0,0.0,0.0,0.0,0.0,0.0,0.0,0.0,0.0,4.6984,4.7888,4.8748,4.8612,4.8883,4.9187,4.9052,4.9864,5.1082,5.2435,5.4262,5.6393,5.8863,6.0148,6.1095,6.2178,6.0452,5.871,5.8462,5.7124,5.5791,5.4982,5.4794,5.46,5.4194,0.0,0.0,0.0,0.0,0.0,0.0,0.0,0.0,0.0,0.0,0.0,0.0,0.0,0.0,0.0,4.7428,4.7225,4.8105,4.7394,4.7124,4.7259,4.7834,4.797,4.7699,4.8139,4.8578,4.9018,4.9018,4.9018,4.9018,4.9018,4.8578,4.7906,4.821,4.7699,4.6887,4.7631,4.7428,4.6853,0.0,0.0,0.0,0.0,0.0,0.0,0.0,0.0,0.0,0.0,3.6405,3.6499,0.0,0.0,0.0,0.0,0.0,0.0,0.0,0.0,3.5442,3.5596,3.6673,3.7935,3.9296,4.0977,4.0926,3.9243,4.1064,4.1433,4.0427,4.1534,4.1785,4.1333,4.1835,4.1433,4.03,3.9195,3.8391,3.7863,3.7916,3.7903,3.7877,3.8345,0.0,0.0,0.0,0.0,0.0,0.0,0.0,0.0,4.5334,4.6149,4.6929,4.7601,4.7872,4.8173,4.8815,4.9593,5.0744,5.3112,5.4972,5.6934,5.9682,6.1883,6.317,6.243,6.1253,5.9814,5.8185,5.7216,5.6422,5.5692,5.6044,5.5716,0.0,0.0,0.0,0.0,0.0,0.0,0.0,0.0,0.0,0.0,0.0,0.0,0.0,0.0,0.0,4.7804,4.7022,4.665,4.6786,4.6075,4.5365,0.0,4.6041,4.6312,4.5669,4.7834,4.8748,4.8714,4.8849,4.8849,4.8815,4.8883,4.8477,4.7872,4.8612,4.8003,4.6786,4.7597,4.7496,4.6887,0.0,0.0,0.0,0.0,0.0,0.0,0.0,0.0,0.0,0.0,0.0,0.0,0.0,0.0,0.0,0.0,0.0,0.0,0.0,0.0,3.5833,3.7,3.7921,3.8825,3.9596,3.9568,3.945,3.9354,4.0132,4.0286,3.9803,4.0743,4.1252,4.136,4.1225,4.0589,3.9474,3.8114,3.7285,3.6804,3.7151,3.7288,3.7283,3.7352,3.7355,0.0,0.0,0.0,0.0,0.0,0.0,0.0,4.3686,4.5299,4.6886,4.7008,4.7868,4.8815,4.8951,4.9965,5.1657,5.4532,5.7679,6.0401,6.1542,6.2238,6.2338,6.1586,6.1639,6.1317,5.9602,5.8268,5.7167,5.6297,5.5418,5.4738,0.0,0.0,0.0,0.0,0.0,0.0,0.0,0.0,0.0,0.0,0.0,0.0,0.0,0.0,0.0,4.7022,4.5737,4.563,4.6786,4.6075,4.5635,0.0,4.5771,4.5534,4.4886,4.6515,4.6955,4.6481,4.7631,4.78,4.7327,4.7902,4.7699,4.7124,4.7868,4.7259,4.6109,4.7398,4.7804,4.7597,0.0,0.0,0.0,0.0,0.0,0.0,0.0,0.0,0.0,0.0,0.0,0.0,0.0,0.0,0.0,0.0,0.0,0.0,0.0,0.0,3.6418,3.8002,3.9029,3.9722,4.0136,4.0206,4.0121,3.9778,4.004,4.0039,3.9894,4.0439,4.0926,4.1362,4.1462,4.0643,3.922,3.8185,3.7407,3.6855,3.733,3.7518,3.7488,3.7456,3.7063,3.6533,3.6432,0.0,0.0,0.0,0.0,0.0,0.0,0.0,4.4774,4.515,4.6544,4.8037,4.8376,5.0067,5.2638,5.6359,5.9032,6.0939,6.1657,6.2046,6.2092,6.1293,6.1458,6.1181,5.9491,5.8591,5.7729,5.6506,5.5513,0.0,0.0,0.0,0.0,0.0,0.0,0.0,0.0,0.0,0.0,0.0,0.0,0.0,0.0,4.5906,4.5703,4.5766,4.4621,4.4384,4.5162,4.479,4.4248,4.3572,4.4282,4.4215,4.3565,4.5089,4.5534,4.5196,4.5974,4.6109,4.5771,4.6549,4.6413,4.5872,4.7361,4.7225,4.6413,4.7902,4.8176,4.7872,0.0,0.0,0.0,0.0,0.0,0.0,0.0,0.0,0.0,0.0,0.0,0.0,0.0,0.0,0.0,0.0,0.0,0.0,0.0,0.0,0.0,3.9023,4.0113,4.084,4.1051,4.1509,4.1388,4.0673,4.0501,4.0686,4.1159,4.0992,4.123,4.188,4.1957,4.1055,3.9371,3.8558,3.7802,3.7228,3.7731,3.7822,3.7689,3.7612,3.6985,3.6044,3.5495,3.5535,3.5859,3.5899,0.0,0.0,0.0,0.0,4.2075,4.2939,4.472,4.66,4.7331,5.0067,5.3653,5.7645,5.937,6.0287,6.0943,6.1602,6.193,6.1219,6.1312,6.0932,5.9302,5.8852,5.8279,5.6877,5.5936,0.0,0.0,0.0,0.0,0.0,0.0,0.0,0.0,0.0,0.0,0.0,0.0,0.0,4.5331,4.5297,4.4959,4.4242,4.3572,4.3206,4.3206,4.3341,4.2699,4.1407,4.2523,4.2625,4.1948,4.3261,4.3904,4.4039,4.4276,4.4344,4.4276,4.4993,4.4925,4.4615,4.6549,4.6955,4.6583,4.8071,4.8308,4.7973,0.0,0.0,0.0,0.0,0.0,0.0,0.0,0.0,0.0,0.0,3.6662,3.6646,0.0,0.0,0.0,0.0,0.0,0.0,0.0,0.0,0.0,4.0634,4.1581,4.2268,4.2833,4.2004,4.1846,4.2451,4.1737,4.2644,4.4994,4.3361,4.3136,4.4091,4.2391,4.1059,3.9889,3.8053,3.7194,3.7117,3.7423,3.7278,3.6735,3.6434,3.6253,3.6044,3.5495,3.5319,3.541,3.5579,3.5967,0.0,0.0,0.0,4.0448,4.1273,4.3169,4.5127,4.5828,5.0067,5.4735,5.663,5.8626,6.0133,6.0245,6.0806,6.1184,6.1067,6.2025,6.2434,6.082,5.9916,5.9157,5.828,5.6537,0.0,0.0,0.0,0.0,0.0,0.0,0.0,0.0,0.0,0.0,0.0,0.0,0.0,4.3781,4.3713,4.3369,4.2625,4.2489,4.2455,4.2455,4.3098,4.2997,4.2151,4.1711,4.1102,4.0417,4.062,4.106,4.1745,4.3031,4.32,4.2658,4.3403,4.3646,4.3673,4.4654,4.4987,4.5089,4.6549,4.7428,4.7906,0.0,0.0,0.0,0.0,0.0,0.0,0.0,0.0,0.0,0.0,0.0,3.7042,0.0,0.0,0.0,3.573,0.0,0.0,0.0,0.0,0.0,3.9925,4.0685,4.1664,4.2936,4.2467,4.2507,4.3071,4.2743,4.3956,4.6609,4.5361,4.5263,4.6073,4.4429,4.2664,4.0887,3.9289,3.8017,3.7083,3.7051,3.6858,3.6522,3.5905,3.5652,3.5574,3.4999,3.4789,3.4789,3.4916,3.5107,3.5427,3.5914,0.0,0.0,0.0,4.1331,4.4038,4.6806,4.9458,5.2232,5.5412,5.6596,5.7347,5.8587,5.9353,5.9816,5.9779,6.0891,6.1498,6.0339,5.9832,5.918,5.7913,5.6689,0.0,0.0,0.0,0.0,0.0,0.0,0.0,0.0,0.0,0.0,0.0,0.0,4.4147,4.3443,4.2598,4.2016,4.1677,4.1271,4.1271,4.1677,4.2016,4.2016,4.1677,4.1339,4.0798,4.0113,4.0113,4.0282,4.0595,4.1271,4.1373,4.1128,4.188,4.1914,4.1711,4.3301,4.3944,4.4113,4.5635,4.6921,4.7906,0.0,0.0,0.0,0.0,0.0,0.0,0.0,0.0,0.0,0.0,0.0,0.0,0.0,0.0,0.0,0.0,3.5155,0.0,0.0,0.0,0.0,3.9273,4.014,4.1321,4.2894,4.2923,4.3048,4.329,4.3469,4.4994,4.7788,4.695,4.736,4.8735,4.6624,4.448,4.2269,4.0792,3.9348,3.8048,3.7098,3.6612,3.6378,3.5592,3.5208,3.4999,3.4554,3.4397,3.4397,3.4397,3.4522,3.4718,3.4821,3.6021,0.0,0.0,0.0,4.2331,4.6498,4.7891,4.92,5.3281,5.416,5.4532,5.6596,5.7665,5.8277,5.8461,5.9552,6.0267,5.9434,5.9289,5.8891,5.7695,5.6831,0.0,0.0,0.0,0.0,0.0,0.0,0.0,0.0,0.0,0.0,0.0,0.0,4.3308,4.3132,4.1914,4.1102,4.0933,4.0383,4.0383,4.0933,4.1102,4.1305,4.1474,4.1305,4.1001,4.0654,4.0282,4.0214,4.0383,4.018,4.0113,4.0146,4.0696,4.0595,4.0282,4.1914,4.2692,4.3003,4.435,4.5906,4.7394,0.0,0.0,0.0,0.0,0.0,0.0,0.0,0.0,0.0,0.0,0.0,0.0,3.7019,3.6488,3.5913,3.5338,3.4763,3.4685,3.526,3.7203,0.0,3.9648,4.1108,0.0,4.324,4.327,4.328,4.329,4.3958,4.5933,4.9179,4.7848,4.9269,5.2729,4.8647,4.5873,4.4144,4.2021,4.1085,4.0738,3.8047,3.6671,3.6096,3.5521,3.4946,3.445,3.4397,3.4397,3.4397,3.4397,3.4397,3.4481,3.4703,3.5386,3.6041,0.0,0.0,0.0,4.2891,4.4939,4.6755,4.967,5.142,5.2841,5.4397,5.5731,5.6837,5.7579,5.8759,5.9434,5.8601,5.8456,5.8456,5.8347,5.7191,0.0,0.0,0.0,0.0,0.0,0.0,0.0,0.0,0.0,0.0,0.0,0.0,4.3071,4.2388,4.161,4.0865,4.018,4.0113,4.0113,4.018,4.0832,4.1542,4.2219,4.1542,4.1542,4.2117,4.0756,4.0485,4.1102,4.0417,4.0113,4.0113,4.0146,4.0146,4.0113,4.0248,4.0696,4.1407,4.2185,4.3876,4.5906,0.0,0.0,0.0,0.0,0.0,0.0,0.0,0.0,0.0,0.0,0.0,0.0,0.0,3.6802,3.6305,3.5391,3.5103,3.5208,3.5783,3.685,0.0,3.9634,4.0604,4.1811,4.325,4.329,4.329,4.329,4.3529,4.4736,4.6711,4.6681,4.7878,4.9972,4.8461,4.7121,4.5907,4.4265,4.2749,4.1285,3.9452,3.8048,3.6871,3.5907,3.5054,3.4397,3.4397,3.4397,3.4397,3.4397,3.4397,3.4397,3.4481,3.4888,3.5333,3.5645,3.5924,3.6874,4.0057,4.1639,4.3174,4.6547,4.8096,4.939,5.186,5.3484,5.4844,5.5974,5.7299,5.8107,5.7717,5.8058,5.8239,5.7695,5.7216,0.0,0.0,0.0,0.0,0.0,0.0,0.0,0.0,0.0,0.0,0.0,0.0,0.0,4.2286,4.1136,4.0383,4.0113,4.0113,4.0113,4.0113,4.1305,4.1542,4.0891,4.1102,4.1339,4.1542,4.0553,4.0493,4.117,4.0417,4.0113,4.0113,4.0113,4.0113,4.0113,4.0113,4.0527,4.1373,4.2557,4.4147,4.5872,0.0,0.0,0.0,0.0,0.0,0.0,0.0,0.0,0.0,3.8366,0.0,0.0,0.0,0.0,3.7531,3.6607,3.65,3.6661,3.7037,3.7584,3.8601,4.0092,4.073,4.1769,4.325,4.329,4.329,4.329,4.329,4.4097,4.5633,4.5873,4.692,4.864,4.7908,4.7659,4.7623,4.6194,4.4585,4.2893,4.0873,3.9438,3.8418,3.7097,3.6112,3.5436,3.5309,3.5025,3.4711,3.4711,3.445,3.4162,3.4345,3.447,3.4714,3.5309,3.5272,3.557,3.8215,3.9324,4.0615,4.4221,4.5444,4.6481,4.9429,5.1001,5.2285,5.3648,5.503,5.5973,5.6088,5.6725,5.7224,5.7188,5.7188,0.0,0.0,0.0,0.0,0.0,0.0,0.0,0.0,0.0,0.0,0.0,0.0,0.0,4.2286,4.0891,4.0113,4.0113,4.0113,4.0113,4.0113,4.1094,4.1196,4.046,4.0696,4.1102,4.1542,4.0553,4.0493,4.117,4.0417,4.0113,4.0113,4.0113,4.0113,4.0113,4.0113,4.0417,4.0967,4.2219,4.3809,4.5466,0.0,0.0,0.0,0.0,0.0,0.0,0.0,0.0,4.016,4.016,0.0,0.0,0.0,0.0,0.0,3.9012,3.8984,3.8956,3.8956,3.9436,4.0161,4.1098,0.0,0.0,4.329,4.329,4.329,4.329,4.329,4.4276,4.619,4.5574,4.6651,4.912,4.7189,4.7399,4.9134,4.7489,4.6483,4.5636,4.2181,4.0774,4.059,3.9063,3.8118,3.7501,3.7193,3.6341,3.5329,3.5329,3.4596,3.3718,3.4241,3.417,3.4046,3.4721,3.4883,3.5357,0.0,0.0,0.0,4.2601,4.3459,4.4234,4.7046,4.8201,4.9102,5.0655,5.1966,5.3044,5.383,5.4453,5.5353,5.6899,5.7116,0.0,0.0,0.0,0.0,0.0,0.0,0.0,0.0,0.0,0.0,0.0,0.0,4.2354,4.232,4.0925,4.0113,4.0113,4.0113,4.0113,4.0113,4.0113,4.0485,4.117,4.0426,4.0857,4.2219,4.0756,4.0493,4.117,4.0417,4.0113,4.0113,4.0113,4.0113,4.0113,4.0113,4.0113,4.018,4.0967,4.2658,4.4581,0.0,0.0,0.0,0.0,0.0,0.0,4.2628,4.2213,4.192,0.0,0.0,0.0,4.0773,4.059,4.0661,4.0915,4.0915,4.0703,4.0168,4.0238,4.0773,4.1715,4.1889,4.2415,4.329,4.329,4.329,4.329,4.329,4.3589,4.4127,4.4466,4.5214,4.6411,4.683,4.707,4.71,4.6126,4.5921,4.6027,4.4057,4.2631,4.16,4.0719,3.9571,3.849,3.8436,3.7481,3.6315,3.6315,3.5349,3.4188,3.4345,3.447,3.463,3.4944,3.4761,3.4781,3.6234,0.0,0.0,0.0,0.0,0.0,4.2865,4.4193,4.5713,4.8133,4.9792,5.1275,5.2905,5.378,5.4522,5.5376,5.5558,0.0,0.0,0.0,0.0,0.0,0.0,0.0,0.0,0.0,0.0,0.0,4.4621,4.3707,4.3132,4.1711,4.0629,4.0113,4.0113,4.0113,4.0113,4.0113,4.0214,4.0417,4.0214,4.0587,4.1474,4.0553,4.0493,4.117,4.0417,4.0113,4.0113,4.0113,4.0113,4.0113,4.0113,4.0113,4.0316,4.2117,4.32,4.3978,0.0,0.0,0.0,0.0,0.0,4.5072,4.4659,4.4237,4.3922,0.0,0.0,0.0,4.272,4.3168,4.3472,4.3226,4.3226,4.2923,4.2174,4.1885,4.1976,4.2537,4.2537,4.278,4.329,4.329,4.329,4.329,4.329,4.329,4.3319,4.4287,4.4796,4.4945,4.5992,4.6262,4.5843,4.5185,4.5454,4.616,4.4855,4.3942,4.3313,4.2228,4.111,4.0171,4.0054,3.8866,3.7368,3.7123,3.585,3.4428,3.4521,3.4848,3.5259,3.5731,3.5497,3.5337,3.6371,3.6522,3.6673,3.7902,0.0,0.0,4.0845,4.1687,4.2856,0.0,4.6412,4.7792,4.9846,5.0793,5.1556,5.2512,5.288,0.0,0.0,0.0,0.0,0.0,0.0,0.0,0.0,0.0,0.0,4.6713,4.5365,4.3978,4.2557,4.1677,4.0865,4.0113,4.0113,4.0113,4.0113,4.0113,4.0113,4.0113,4.0113,4.035,4.073,4.0316,4.035,4.0696,4.0282,4.0113,4.0113,4.0113,4.0113,4.0113,4.0113,4.0113,4.035,4.2252,4.3166,4.3612,0.0,0.0,4.8478,4.6965,4.6792,4.6821,4.6736,4.6501,4.6337,0.0,4.6105,4.5843,4.5843,4.677,4.692,4.5723,4.5484,4.5095,4.4377,4.3648,4.329,4.329,4.329,4.329,4.329,4.329,4.3319,4.3409,4.3409,4.3439,4.3529,4.4736,4.4945,4.4347,4.5005,4.5214,4.5035,4.4616,4.5065,4.595,4.4885,4.4766,4.5132,4.3575,4.264,4.2104,4.1753,4.0303,3.8495,3.7781,3.63,0.0,3.506,3.5541,3.6136,3.6816,3.6731,3.6607,3.7332,3.7323,3.7375,3.8649,3.9188,0.0,4.0011,4.0111,4.0474,0.0,4.2625,4.3648,4.5776,4.6795,4.7703,4.9029,4.9791,0.0,0.0,0.0,0.0,0.0,0.0,0.0,5.0048,4.9318,4.8558,4.7785,4.5766,4.3599,4.1339,4.1271,4.0933,4.0146,4.0113,4.0113,4.0113,4.0113,4.0113,4.0113,4.0113,4.0113,4.0113,4.0113,4.0113,4.0113,4.0113,4.0113,4.0113,4.0113,4.0113,4.0113,4.0113,4.0113,4.0282,4.1745,4.2726,4.3375,0.0,0.0,4.9812,4.9478,4.9893,5.007,4.9538,4.938,4.9756,5.0798,4.9954,4.9239,4.9239,4.8566,4.7997,4.7728,4.6741,4.5603,4.4407,4.3648,4.329,4.329,4.329,4.329,4.329,4.329,4.3559,4.4107,4.4107,4.4377,4.4915,4.5185,4.4945,4.4347,4.5005,4.4706,4.3738,4.4706,4.4945,4.4736,4.5005,4.5185,4.5214,4.4352,4.3615,4.2991,4.2416,4.1142,3.9562,3.8255,3.7557,3.7254,0.0,0.0,0.0,3.791,0.0,3.7883,3.8329,3.8026,0.0,0.0,0.0,0.0,3.8109,3.8382,3.9003,0.0,4.096,4.2225,4.3715,4.5455,4.6717,4.692,4.803,0.0,0.0,0.0,0.0,0.0,0.0,0.0,0.0,4.9785,4.8711,4.6914,4.5409,4.3599,4.1339,4.1745,4.1474,4.0146,4.0113,4.0113,4.0113,4.0113,4.0113,4.0113,4.0113,4.0113,4.0113,4.0113,4.0113,4.0113,4.0113,4.0113,4.0113,4.0113,4.0113,4.0113,4.0113,4.0113,4.0282,4.1745,4.2388,4.2692,4.9254,4.9747,5.0285,5.0614,5.099,5.1319,5.1648,5.1139,5.1079,5.2067,5.1349,5.0554,5.0226,4.9643,4.8985,4.8356,4.7369,0.0,0.0,4.4197,4.3648,4.329,4.329,4.3439,4.3768,4.3469,4.3618,4.4317,4.3988,4.3947,4.4317,4.4646,4.4327,4.3478,4.4417,4.4118,4.3058,4.4627,4.5095,4.4796,4.4796,4.4796,4.4736,4.4077,4.3589,4.326,4.297,4.1863,4.034,3.8479,3.7889,0.0,3.8364,3.8361,3.8335,0.0,3.8802,3.8331,0.0,0.0,0.0,3.7952,0.0,0.0,0.0,3.7589,3.8047,3.8756,3.9116,3.9846,4.1569,4.2473,4.34,4.4749,4.5818,4.7229,0.0,0.0,0.0,0.0,0.0,0.0,0.0,4.9369,4.8196,4.5733,4.5297,4.3978,4.1339,4.188,4.161,4.0146,4.0113,4.0113,4.0113,4.0113,4.0113,4.0113,4.0113,4.0113,4.0113,4.0113,4.0113,4.0113,4.0113,4.0113,4.0113,4.0113,4.0113,4.0113,4.0113,4.0316,4.0764,4.188,4.2523,4.3031,4.8566,4.9224,5.0062,5.072,5.105,5.1588,5.2636,5.2007,5.1558,5.1947,5.1768,5.1289,5.0465,5.0166,4.9733,4.8925,4.7668,4.6621,4.5903,4.4885,4.4018,4.3319,4.3569,4.3818,4.3968,4.3818,4.3938,4.4357,4.3898,4.3718,4.3758,4.4297,4.4028,4.3111,4.3888,4.3698,4.2913,4.4498,4.5076,4.4885,4.4657,4.4627,4.4616,4.3798,4.3469,4.3439,4.305,4.2189,4.0869,3.9075,3.8535,3.8721,3.9489,3.9215,0.0,0.0,0.0,0.0,0.0,0.0,0.0,0.0,0.0,3.91,0.0,0.0,0.0,3.8152,0.0,3.7923,3.953,0.0,0.0,0.0,0.0,0.0,0.0,0.0,0.0,0.0,0.0,0.0,0.0,4.837,4.7065,4.4541,4.506,4.4248,4.1373,4.188,4.161,4.0146,4.0113,4.0113,4.0113,4.0113,4.0113,4.0113,4.0113,4.0113,4.0113,4.0113,4.0113,4.0113,4.0113,4.0113,4.0113,4.0113,4.0113,4.0113,4.0113,4.0527,4.1305,4.2016,4.276,4.3511,4.909,4.8805,4.8716,4.9419,5.0451,5.1259,5.1409,0.0,5.1917,5.1409,5.2276,5.2486,5.1229,5.0062,4.9793,5.078,4.7608,4.6202,4.7848,4.5663,4.4047,4.3419,4.4699,4.464,4.2913,4.4539,4.5111,4.4569,4.4907,4.5147,4.5352,4.5413,4.5203,4.4677,4.4182,4.3832,4.3615,4.4349,4.4228,4.3658,4.494,4.571,0.0,4.4676,4.4197,4.3958,4.2222,4.1496,4.133,0.0,4.0999,4.1126,0.0,4.1151,4.0196,4.033,0.0,0.0,0.0,0.0,0.0,0.0,3.9859,0.0,0.0,0.0,3.8945,3.7835,0.0,0.0,3.7791,0.0,0.0,0.0,0.0,0.0,0.0,0.0,0.0,0.0,0.0,0.0,0.0,0.0,4.5081,4.3633,4.4282,4.3673,4.1339,4.188,4.161,4.0146,4.0113,4.0113,4.0113,4.0113,4.0113,4.0113,4.0113,4.0113,4.0113,4.0113,4.0113,4.0113,4.0113,4.0113,4.0113,4.0113,4.0113,4.0113,4.0113,4.0527,4.1305,4.2016,4.276,4.3511,4.8087,4.8207,4.8506,4.9209,5.0032,5.0853,5.1678,5.2695,5.3114,5.2456,5.2845,5.3114,5.2965,5.1439,5.0631,5.1169,4.9119,4.7826,4.7872,4.6503,4.5402,4.4931,4.5404,4.5354,4.4628,4.5052,4.5142,4.484,4.4669,4.4609,4.4688,4.4688,4.4443,4.3998,4.354,4.3419,4.351,4.4455,4.485,4.4961,4.601,4.6543,0.0,4.477,4.3865,4.3382,4.2032,4.1573,4.1445,0.0,4.0756,0.0,0.0,0.0,0.0,0.0,0.0,0.0,0.0,0.0,0.0,0.0,0.0,0.0,3.9268,0.0,3.937,0.0,0.0,0.0,0.0,0.0,0.0,0.0,4.0543,0.0,0.0,0.0,0.0,0.0,0.0,0.0,0.0,0.0,0.0,0.0,0.0,4.3599,4.1339,4.232,4.2049,4.018,4.0519,4.0527,4.0113,4.0113,4.0113,4.0113,4.0113,4.0113,4.0113,4.0113,4.0113,4.0113,4.0113,4.0113,4.0113,4.0113,4.0113,4.0113,4.0113,4.0527,4.1305,4.2016,4.276,4.3511,4.7837,4.7972,4.8279,4.8848,4.9389,5.0198,5.1468,5.2486,5.2995,5.2695,5.2636,5.311,5.431,5.2695,5.185,5.2708,5.1031,4.9462,4.8484,4.7516,4.6524,4.5475,4.6061,4.6041,4.5291,4.5504,4.5382,4.4834,4.4452,4.43,4.4378,4.4195,4.3998,4.3921,4.3403,4.3304,4.3662,4.4649,4.5353,4.5804,4.6788,4.6942,4.6435,4.4652,4.3563,4.2895,4.2077,4.1761,4.1558,4.0598,4.095,0.0,4.116,0.0,0.0,0.0,0.0,0.0,3.9553,0.0,0.0,0.0,0.0,0.0,0.0,0.0,0.0,0.0,0.0,0.0,0.0,0.0,0.0,0.0,0.0,4.0703,0.0,0.0,0.0,0.0,0.0,0.0,0.0,0.0,0.0,0.0,0.0,0.0,4.1339,4.2598,4.2388,4.018,4.0832,4.0832,4.0113,4.0113,4.0113,4.0113,4.0113,4.0113,4.0113,4.0113,4.0113,4.0113,4.0113,4.0113,4.0113,4.0113,4.0113,4.0113,4.0113,4.0527,4.1305,4.2016,4.2895,4.3809,4.9116,4.8313,4.7697,4.7983,4.8356,4.8998,5.0092,5.0285,5.0554,5.1199,5.1289,5.2255,5.4776,5.3324,5.3451,5.665,5.3009,5.0547,5.0502,4.8897,4.678,4.417,4.6712,4.6712,4.3441,4.5917,4.6253,4.4327,4.4743,4.5078,4.5244,4.4572,4.4718,4.5464,4.4141,4.3813,4.4312,4.5067,4.529,4.5272,4.6852,4.6761,4.5609,0.0,4.3532,4.2895,4.2227,0.0,0.0,4.2409,4.262,0.0,0.0,0.0,0.0,0.0,0.0,0.0,0.0,0.0,0.0,3.9156,0.0,0.0,0.0,0.0,4.029,0.0,0.0,0.0,0.0,0.0,0.0,0.0,0.0,0.0,0.0,0.0,0.0,0.0,0.0,0.0,0.0,0.0,0.0,0.0,0.0,0.0,4.1339,4.2598,4.2388,4.018,4.0832,4.0832,4.0113,4.0113,4.0113,4.0113,4.0113,4.0113,4.0113,4.0113,4.0113,4.0113,4.0113,4.0113,4.0113,4.0113,4.0113,4.0113,4.0113,4.0527,4.1305,4.2016,4.3261,4.4581,5.0158,4.9884,4.9647,4.9607,5.0053,5.0705,5.1418,5.2784,5.4202,5.5271,5.5967,5.7176,5.9471,5.8323,5.7585,5.8251,5.5759,5.3796,5.2839,5.084,4.921,4.7957,4.8153,4.762,4.6186,4.7006,4.6944,4.5848,4.5554,4.5677,4.6155,4.5018,4.5139,4.6266,4.4956,4.4957,4.5985,4.6202,4.6561,4.6937,0.0,4.7197,4.624,0.0,0.0,4.3247,4.1967,4.1498,0.0,4.1031,4.1206,4.1479,4.1025,4.0758,4.0552,4.0405,3.9859,0.0,0.0,0.0,4.0126,3.9742,0.0,0.0,0.0,0.0,0.0,0.0,0.0,0.0,0.0,0.0,0.0,0.0,0.0,0.0,0.0,0.0,0.0,0.0,0.0,0.0,0.0,0.0,0.0,0.0,0.0,0.0,0.0,4.2151,4.188,4.0146,4.0832,4.0832,4.0113,4.0113,4.0113,4.0113,4.0113,4.0113,4.0113,4.0113,4.0113,4.0113,4.0113,4.0113,4.0113,4.0113,4.0113,4.0113,4.0113,4.0527,4.1305,4.2016,4.2929,4.3944,5.1685,5.1457,5.1112,5.0735,5.1128,5.1718,5.224,5.4444,5.6443,5.7575,5.8664,6.02,6.2515,6.1082,6.0058,6.0267,5.8345,5.6176,5.4019,5.2916,5.1343,4.9244,4.9197,4.8625,0.0,0.0,0.0,0.0,4.6454,4.6734,4.7356,4.6291,4.6387,4.7431,4.6064,4.5926,4.6828,4.7069,4.7432,0.0,0.0,4.7595,0.0,0.0,4.4208,4.3831,0.0,4.188,4.1564,4.1274,4.1306,4.1304,4.0355,4.0269,4.037,3.9669,3.9486,3.9577,3.976,4.0078,0.0,3.9886,4.0147,0.0,4.0094,0.0,0.0,0.0,0.0,0.0,0.0,0.0,0.0,0.0,0.0,0.0,0.0,4.0854,0.0,0.0,0.0,0.0,0.0,0.0,0.0,0.0,0.0,0.0,0.0,0.0,4.161,4.0146,4.0832,4.0832,4.0113,4.0113,4.0113,4.0113,4.0113,4.0113,4.0113,4.0113,4.0113,4.0113,4.0113,4.0113,4.0113,4.0113,4.0113,4.0113,4.0113,4.0527,4.1305,4.2016,4.2963,4.3978,5.3539,5.2876,5.2161,5.1397,5.1653,5.2068,5.2572,5.5136,5.7281,5.7999,5.9407,6.1321,6.3859,6.1768,6.0915,6.2672,6.0576,5.7721,5.4374,5.4964,0.0,0.0,4.9947,4.9676,4.6828,0.0,0.0,0.0,0.0,4.8244,4.8909,4.822,4.8256,4.8871,4.7478,4.6864,4.69,4.7638,4.7967,4.7967,4.7967,4.7967,4.7802,4.642,4.5471,4.4724,4.3945,4.3067,4.2422,4.3082,4.2843,4.2088,4.0699,4.0835,4.1128,3.9157,3.9462,4.032,3.9705,4.0043,4.0382,3.9736,0.0,0.0,0.0,0.0,4.0536,0.0,0.0,0.0,0.0,0.0,0.0,0.0,0.0,0.0,0.0,0.0,0.0,0.0,0.0,0.0,0.0,0.0,0.0,0.0,0.0,0.0,0.0,0.0,4.1636,4.0214,4.0865,4.0899,4.018,4.0146,4.0146,4.0113,4.0113,4.0113,4.0113,4.0113,4.0113,4.0113,4.0113,4.0113,4.0113,4.0113,4.0113,4.0113,4.0113,4.0561,4.1339,4.2083,4.3328,4.4615,5.3616,5.3751,5.3917,5.3742,5.3805,5.4056,5.4612,5.6857,5.9079,6.0859,6.2955,6.4723,6.5951,6.4966,6.3978,6.3355,6.1173,0.0,0.0,0.0,0.0,5.1901,5.128,5.0326,4.8954,4.9166,4.9205,4.9056,0.0,4.9807,5.0483,4.8735,4.8537,4.9645,4.8231,4.7603,4.7649,4.8406,4.8736,4.8736,4.8736,4.8736,0.0,0.0,4.7214,4.6853,4.5113,4.4301,4.4005,4.3717,4.3071,4.2267,4.1374,4.0958,4.0695,4.0065,3.9829,3.9828,4.0136,4.0751,4.1278,4.1093,4.1186,4.1401,0.0,0.0,0.0,0.0,0.0,0.0,0.0,0.0,0.0,0.0,0.0,0.0,0.0,0.0,0.0,4.0749,0.0,0.0,0.0,0.0,0.0,0.0,0.0,0.0,0.0,0.0,0.0,4.0933,4.1644,4.1644,4.0933,4.0933,4.0629,4.0113,4.0113,4.0113,4.0113,4.0113,4.0113,4.0113,4.0113,4.0113,4.0113,4.0113,4.0113,4.0113,4.0113,4.0891,4.2117,4.2861,4.3741,4.4615,5.4634,5.4803,5.5074,5.5074,5.5615,5.6284,5.6921,5.816,5.9793,6.2018,6.3721,6.4918,6.5324,6.4986,6.441,6.3599,6.2042,0.0,5.9099,0.0,0.0,5.3891,5.2974,5.1797,5.032,5.005,0.0,4.9908,0.0,5.038,5.1067,4.9549,4.9294,4.9992,4.8888,4.8406,4.8409,4.8815,4.9187,4.9458,4.912,0.0,0.0,4.8545,4.8376,4.825,4.7032,4.6024,4.5112,4.4751,4.4136,4.333,4.2261,4.1914,4.1694,4.0735,4.061,4.0855,4.093,4.1451,4.2035,4.2027,4.2048,4.214,4.2509,4.2078,4.1678,0.0,0.0,0.0,0.0,0.0,0.0,0.0,0.0,0.0,0.0,0.0,0.0,0.0,4.1047,0.0,0.0,0.0,0.0,0.0,0.0,0.0,0.0,0.0,0.0,4.1238,4.2219,4.2422,4.1677,4.1677,4.1305,4.0561,4.0248,4.0282,4.0561,4.0561,4.0561,4.0561,4.0561,4.0417,4.0113,4.0113,4.0282,4.0595,4.0959,4.1745,4.2828,4.3267,4.391,4.4615,5.5817,5.5886,5.5987,5.5886,5.707,5.8355,5.9302,5.9471,0.0,6.2381,0.0,6.3666,6.3666,6.3565,6.3429,6.326,6.2516,6.1231,5.9167,5.9505,5.8291,5.4899,5.4601,5.3493,5.1351,5.0478,5.0102,0.0,5.0284,5.0621,5.1254,5.0554,5.0168,5.0067,4.9323,4.9018,4.9018,4.9018,4.9357,4.9898,4.9255,4.9018,4.9018,4.9018,4.9018,4.9018,4.9018,4.7735,4.6101,4.6101,4.5626,4.482,4.3416,4.3452,4.3585,4.1632,4.1898,4.2686,4.2074,4.2382,4.2871,4.2895,4.2798,4.2756,4.2848,4.2294,4.1925,4.2602,4.1709,0.0,0.0,0.0,0.0,0.0,0.0,0.0,0.0,0.0,0.0,0.0,0.0,0.0,0.0,0.0,0.0,0.0,0.0,0.0,0.0,0.0,0.0,4.1373,4.2794,0.0,4.2591,0.0,4.2083,4.1339,4.062,4.0553,4.1068,4.117,4.117,4.1068,4.117,4.0764,4.0113,4.0214,4.0663,4.1407,4.2151,4.2828,4.3409,4.3511,4.4012,4.4615,5.5817,5.6697,5.7306,5.6697,5.7848,5.9471,6.1501,6.1806,6.2381,6.4005,6.4343,6.441,6.441,6.3869,6.3024,6.1806,6.096,0.0,0.0,0.0,0.0,5.6288,5.5127,5.3987,5.2817,5.1525,5.1229,5.1878,5.1897,5.1966,5.2067,5.1355,5.0676,5.0067,4.9323,4.9018,4.9018,4.9018,0.0,4.9187,4.9052,4.9018,4.9018,4.9018,4.9018,4.9018,4.9018,4.8382,4.7518,4.7518,4.7053,4.632,4.5417,4.529,4.5227,4.4268,4.4163,4.4367,4.4236,4.4283,4.4338,4.4323,4.3884,4.3593,4.411,4.331,4.2633,4.3316,4.2786,4.2294,4.2417,0.0,0.0,0.0,0.0,0.0,0.0,0.0,0.0,0.0,0.0,4.0893,0.0,0.0,0.0,0.0,0.0,0.0,0.0,0.0,0.0,0.0,0.0,0.0,0.0,0.0,0.0,4.2083,4.1373,4.0764,4.0316,4.0933,4.0865,4.035,4.0933,4.0764,4.0146,4.0764,4.1441,4.2185,4.2929,4.3274,4.3477,4.4147,4.4479,4.4615,5.7983,5.8254,5.849,5.8524,5.9776,0.0,0.0,6.3294,6.3531,6.3463,6.2753,6.2279,6.2279,6.2651,6.2482,6.14,6.096,6.025,5.9099,5.8693,5.8103,5.7293,5.5886,5.4719,5.3902,5.2086,5.1527,5.2307,5.1531,5.1352,5.1725,0.0,0.0,4.9492,4.9154,4.9424,0.0,0.0,0.0,4.9526,4.9154,4.9018,4.9018,4.9018,4.9018,4.9018,4.9018,4.8781,4.8477,4.8477,4.824,4.78,4.709,4.6847,4.6739,4.6002,4.579,4.5748,4.5369,4.5212,4.5109,4.4737,4.4148,4.3675,4.4018,4.3324,4.2786,4.347,4.3063,4.2602,4.2602,4.2355,0.0,0.0,0.0,0.0,0.0,0.0,0.0,0.0,0.0,0.0,0.0,0.0,0.0,0.0,0.0,0.0,0.0,0.0,0.0,0.0,0.0,0.0,0.0,0.0,0.0,4.2286,4.1542,4.1001,4.0663,4.1035,4.1001,4.0696,4.1441,4.1136,4.018,4.1305,4.2219,4.2963,4.3707,4.4012,4.4079,4.4479,4.4615,4.4615,6.0182,5.9911,5.9742,6.0452,6.1704,6.2821,6.3429,6.4005,6.4072,6.3193,6.1637,6.0655,6.0825,6.1772,6.2009,6.1129,6.1028,6.0419,5.8863,5.8795,5.8524,5.7915,5.6494,5.54,5.4792,5.2573,5.1732,0.0,5.1159,5.071,0.0,0.0,0.0,0.0,0.0,0.0,0.0,0.0,4.9492,4.9796,4.9221,4.9086,4.9221,4.9221,4.9221,4.9221,4.9221,4.912,4.9018,4.9018,4.9018,4.8917,4.8342,4.8108,4.8037,4.7428,4.7259,4.7106,4.6355,4.6041,4.5757,4.5017,4.4292,4.3815,4.3815,4.3416,4.3159,4.3722,4.3389,4.3033,4.3033,4.291,0.0,0.0,0.0,0.0,0.0,0.0,0.0,0.0,0.0,0.0,4.0951,0.0,0.0,0.0,0.0,4.3098,4.232,4.2997,0.0,0.0,0.0,4.4682,4.4852,0.0,4.3904,0.0,4.1779,4.1271,4.0967,4.1136,4.1102,4.1035,4.1914,4.1711,4.0865,4.2049,4.2997,4.3741,4.435,4.4615,4.4615,4.4615,4.4615,4.4615,6.0892,6.1129,6.1332,6.2042,0.0,6.3429,6.3497,6.3565,6.4038,6.5222,6.3497,6.2448,6.3125,6.2719,6.1806,6.0351,6.0216,5.9573,5.8084,5.7983,5.7949,5.7881,5.6494,5.5681,5.5611,5.3382,5.2233,0.0,0.0,5.1454,0.0,0.0,0.0,0.0,0.0,0.0,0.0,4.9492,4.9661,4.9086,4.9052,4.939,4.9999,4.9999,4.9999,4.9999,4.9999,4.956,4.9018,4.9018,4.9018,4.8984,4.8917,4.8917,4.8883,4.8815,4.8781,4.8615,4.7879,4.7216,4.6545,4.5787,4.5049,4.4492,4.4492,4.4464,4.4445,4.4508,4.447,4.4387,4.4387,4.3932,4.3501,0.0,0.0,0.0,0.0,0.0,4.1093,3.9644,0.0,0.0,0.0,4.1275,0.0,0.0,4.264,4.3098,4.232,4.2997,4.3071,4.2422,0.0,4.4919,4.5602,4.4925,0.0,4.3274,4.2557,4.1474,4.0248,4.0899,4.0832,4.0282,4.1677,4.2591,4.3105,4.324,4.3775,4.4513,4.4581,4.4615,4.4615,4.4615,4.4615,4.4615,0.0,0.0,0.0,0.0,0.0,0.0,0.0,6.4072,6.3734,6.4309,6.3226,6.2347,6.2212,6.1907,6.1129,5.9573,5.9438,5.8998,5.7949,5.7881,5.7679,5.7273,5.6258,5.5513,5.504,5.3247,5.23,0.0,0.0,0.0,0.0,0.0,0.0,0.0,0.0,4.9627,4.9255,4.983,4.9932,4.9661,4.9661,5.0101,5.071,5.027,5.0371,5.071,5.0236,4.9898,4.9593,4.9154,4.9018,4.9018,4.9018,4.9018,4.9018,4.9018,4.9018,4.8849,4.8075,4.7353,4.6633,4.5895,4.518,4.4519,4.406,4.4302,4.4641,4.4641,4.5009,4.5104,4.4685,4.4394,4.4209,0.0,0.0,0.0,0.0,0.0,0.0,0.0,0.0,3.9335,0.0,0.0,0.0,0.0,0.0,4.3775,4.2997,4.2828,0.0,4.3667,0.0,4.3836,4.5026,4.475,4.3944,4.2726,4.2895,4.1948,4.0146,4.0865,4.1271,4.1467,4.2016,4.2997,4.4079,4.3606,4.3876,4.4615,4.4615,4.4886,4.5196,4.4784,4.5156,4.5771,6.4377,0.0,6.4174,0.0,6.4512,6.4106,6.4918,6.4005,6.3193,6.3193,6.2516,6.1873,6.1366,6.1095,6.0419,5.9133,5.9032,5.8693,5.7949,5.7881,5.7577,5.6833,5.6089,0.0,5.46,5.3315,5.2536,5.23,5.23,0.0,0.0,0.0,0.0,0.0,4.9458,4.9357,4.9458,4.9661,4.9898,5.0101,5.0101,5.0676,5.1488,5.0947,5.1082,5.1454,5.0913,5.0473,4.9999,4.9492,4.9323,4.9289,4.9086,4.9018,4.9018,4.9018,4.9018,4.8849,4.8075,4.753,4.6955,4.621,4.5518,4.4857,4.426,4.4605,4.5049,4.5275,4.5704,4.5877,4.5363,4.5253,4.5253,4.5253,0.0,0.0,0.0,0.0,0.0,0.0,3.9967,3.966,3.9679,4.0511,0.0,0.0,0.0,0.0,4.3132,0.0,0.0,0.0,0.0,0.0,0.0,4.4615,4.3938,4.2625,4.3166,4.2489,4.0756,4.1271,4.1914,4.2625,4.2625,4.3369,4.4581,4.3978,4.4079,4.4615,4.4615,4.4919,4.5331,4.5026,4.5568,4.6346,6.4174,6.458,6.458,6.4613,6.4613,6.4343,6.3666,6.2888,6.2415,6.2415,6.1772,6.1332,6.1298,6.0588,5.981,5.9099,5.9032,5.8693,5.7949,5.7881,5.7577,0.0,0.0,5.5344,5.46,5.3856,5.3112,5.23,0.0,0.0,5.0101,0.0,4.9729,4.9052,4.9763,4.9289,4.7973,4.8714,4.9424,5.0101,5.0101,5.098,5.23,5.2266,5.2266,5.23,5.2266,5.1319,5.0101,5.0067,5.0067,4.9965,4.9221,4.9018,4.9018,4.9018,4.9018,4.8849,4.8075,4.7872,4.7733,4.6955,4.6244,4.5674,4.5674,4.5678,4.5891,4.664,4.6761,4.6761,4.6793,4.6793,4.6793,4.6793,0.0,0.0,0.0,0.0,0.0,0.0,4.2488,4.1859,4.0453,0.0,0.0,0.0,0.0,0.0,0.0,0.0,0.0,4.2354,4.3802,0.0,4.4615,4.4615,4.4181,4.3375,4.3375,4.2997,4.2252,4.2286,4.2692,4.3375,4.3375,4.3842,4.4615,4.4581,4.4615,4.4615,4.4615,4.4615,4.4716,4.5432,4.5703,4.5805,6.5764,6.5696,6.5358,6.5358,6.4512,6.3768,6.3565,6.2854,6.2212,6.1704,6.096,6.0283,5.981,5.9505,5.8863,0.0,5.7509,5.7408,0.0,5.6697,5.6292,5.6089,5.5344,5.46,5.3856,5.3619,5.3112,5.23,0.0,0.0,0.0,5.1082,5.0744,5.0507,5.0202,4.983,4.9458,5.0202,5.0642,5.0811,5.0304,5.1319,5.301,5.1961,5.2198,5.3044,5.2503,5.1691,5.0845,5.0845,5.0507,5.0067,4.983,4.9729,4.9661,4.9154,4.9018,4.8951,4.8714,4.8277,4.7838,4.7631,4.7394,4.709,4.6549,4.6469,4.621,4.5463,4.6093,4.6618,4.615,4.6437,4.6828,4.6828,0.0,0.0,0.0,0.0,0.0,0.0,4.213,4.1626,0.0,4.1901,0.0,0.0,0.0,0.0,0.0,0.0,0.0,0.0,4.3809,0.0,4.4615,4.4615,4.4181,4.3409,4.3944,4.3809,4.3064,4.3064,4.32,4.3409,4.3978,4.435,4.4615,4.4615,4.4615,4.4615,4.4615,4.4891,4.5365,4.5602,4.6346,4.7158,6.5459,6.5628,6.5425,6.458,6.3937,6.3429,6.3125,6.2685,6.2144,6.14,6.0588,5.981,5.9099,5.8761,0.0,5.69,5.6799,5.6697,5.6427,5.5987,5.5581,5.531,5.4837,5.4262,5.3518,0.0,0.0,5.2739,5.2942,5.2672,5.1894,5.142,5.1185,5.1151,5.071,5.0507,5.0541,5.1014,5.1386,5.1589,5.1116,5.1961,5.3382,5.2435,5.2672,5.345,5.2942,5.2266,5.1623,5.1623,5.1319,5.0879,5.0608,5.0507,5.0304,4.9289,4.9018,4.9018,4.9018,4.868,4.8311,4.8311,4.8075,4.7733,4.6955,4.6583,4.6296,4.5912,4.6355,4.683,4.6913,4.7078,4.7276,4.7605,0.0,4.7046,4.6585,0.0,0.0,0.0,0.0,0.0,0.0,4.2869,0.0,0.0,0.0,0.0,0.0,0.0,0.0,4.4147,4.3944,0.0,4.4615,4.4615,4.4378,4.3876,4.435,4.4316,4.3842,4.3842,4.3842,4.3876,4.4378,4.4615,4.4615,4.4615,4.4615,4.4615,4.4615,4.5026,4.5737,4.6007,4.6887,4.7902,6.3768,6.4681,0.0,0.0,6.3057,0.0,6.2482,6.2381,6.211,6.1332,6.0554,5.981,5.9032,5.8321,5.7577,5.6867,0.0,0.0,0.0,5.5615,5.5277,5.4634,5.4532,5.4194,5.3518,5.3518,5.3518,5.3518,5.2739,5.2029,5.1386,5.1286,5.1319,5.1386,5.1286,5.1285,5.1285,5.1285,5.1691,5.23,5.2232,5.2739,5.3484,5.345,5.345,5.3518,5.3518,5.2976,5.23,5.2367,5.2367,5.2198,5.1488,5.1251,5.0947,4.9492,4.9052,4.9018,4.9018,4.9018,4.9018,4.9018,4.8477,4.7767,4.6989,4.6278,4.6143,4.7398,4.7225,4.7225,4.8578,4.8376,4.8176,4.8815,4.8376,4.7838,4.7736,0.0,0.0,0.0,0.0,0.0,0.0,4.4282,4.435,0.0,0.0,0.0,0.0,0.0,4.4248,4.3538,4.4215,4.4615,4.4615,4.4615,4.4615,4.4615,4.4615,4.4615,4.4615,4.4615,4.4615,4.4615,4.4615,4.4615,4.4615,4.4615,4.4615,4.4615,4.4615,4.5026,4.5805,4.6515,4.7259,4.8003,0.0,0.0,6.4038,6.4072,6.3294,6.2584,6.2415,6.2381,6.1907,6.0554,6.0216,5.9607,5.8287,5.7983,5.7577,5.6867,5.6292,5.5919,5.5681,5.4668,5.4194,5.4566,5.4059,5.3687,5.3518,5.3518,5.3518,5.3518,5.3315,5.3145,5.2942,5.2334,5.2367,5.2942,5.2334,5.2063,5.2063,5.2063,5.2131,5.2266,5.1691,5.23,5.345,5.2807,5.2976,5.3518,5.3518,5.2976,5.2401,5.301,5.2807,5.2266,5.2097,5.1657,5.1048,5.0101,4.9424,4.9018,4.9018,4.9018,4.9018,4.9018,4.8883,4.8409,4.709,4.665,4.6312,4.5534,4.6143,4.6887,4.7259,4.8105,4.8612,4.821,4.8007,4.75,4.638,4.594,0.0,0.0,4.5703,4.5771,4.5974,4.5669,4.5365,0.0,0.0,0.0,0.0,0.0,4.4513,4.4316,4.4513,4.4615,4.4615,4.4615,4.4615,4.4615,4.4615,4.4615,4.4615,4.4615,4.4615,4.4615,4.4615,4.4615,4.4615,4.4615,4.4615,4.4615,4.4615,4.5026,4.5805,4.6515,4.7259,4.8003,6.5019,6.4546,6.4038,6.4106,6.3159,6.2381,6.2381,6.2381,6.1839,6.0283,6.0114,5.9539,5.8051,5.7881,5.7712,5.734,5.6325,5.5581,5.5209,5.4126,5.3687,5.4093,5.3721,5.3518,5.3518,5.3518,5.3518,5.3518,5.3518,5.3518,5.3484,5.3044,5.3078,5.3484,5.3044,5.2841,5.2841,5.2841,5.2841,5.2807,5.2435,5.2773,5.345,5.301,5.3112,5.3518,5.3518,5.3213,5.2909,5.3348,5.3213,5.2841,5.2841,5.2334,5.1555,5.0811,4.983,4.9018,4.9018,4.9018,4.9018,4.9018,4.8748,4.8308,4.7496,4.6786,4.6244,4.6143,4.621,4.6616,4.7631,4.8173,4.8376,4.7973,4.7631,4.7022,4.5872,4.5399,0.0,4.5669,4.6007,4.6244,4.6278,4.6244,4.5906,4.5229,0.0,0.0,4.4615,4.4919,4.5094,4.5094,4.5094,4.5263,4.5596,4.5263,4.5263,4.5596,4.5263,4.5263,4.563,4.563,4.5427,4.5094,4.5094,4.4891,4.4615,4.4615,4.4615,4.4649,4.4959,4.5534,4.6278,4.7022,4.7797,4.8599,6.458,6.4512,6.4275,6.3768,6.2956,6.2381,6.2381,6.2313,6.1704,6.0283,6.0013,5.9404,5.8051,5.7881,5.7881,5.7881,5.6562,5.5446,5.4803,5.3957,5.3518,5.3518,5.3518,5.3518,5.3518,5.3518,5.3518,5.3518,5.3518,5.3518,5.3518,5.3518,5.3518,5.3518,5.3518,5.3518,5.3518,5.3518,5.3518,5.3518,5.3518,5.3518,5.3518,5.3518,5.3518,5.3518,5.3518,5.3518,5.3518,5.3518,5.3518,5.3518,5.3518,5.2942,5.2198,5.1555,5.0405,4.9289,4.9052,4.9018,4.9018,4.9018,4.8545,4.8071,4.7906,4.6925,4.638,4.75,4.6853,4.6616,4.8511,4.8342,4.7906,4.7906,4.7192,4.6413,4.5805,0.0,4.5026,4.5771,4.6515,4.6718,4.6109,4.6616,4.638,4.5055,4.4852,0.0,0.0,4.5263,4.5635,4.5872,4.5872,4.6177,4.6786,4.6177,4.6177,4.6786,4.6177,4.6177,4.6786,4.6786,4.638,4.5703,4.5703,4.5263,4.4615,4.4615,4.4682,4.4852,4.5466,4.621,4.7022,4.7665,4.8436,4.9199,6.4478,6.4106,6.3835,6.4343,6.3294,6.2381,6.2381,6.1873,6.1129,6.0216,5.9573,5.8863,5.7983,5.7881,5.7881,5.7881,5.6562,5.5683,5.5547,5.4262,5.3518,5.3518,5.3518,5.3518,5.3518,5.3518,5.3518,5.3518,5.3518,5.3518,5.3518,5.3518,5.3518,5.3518,5.3518,5.3518,5.3518,5.3518,5.3518,5.3518,5.3518,5.3518,5.3518,5.3518,5.3518,5.3518,5.3518,5.3518,5.3518,5.3518,5.3518,5.3518,5.3518,5.2942,5.2266,5.2164,5.1522,5.0608,4.9357,4.9018,4.9018,4.9018,4.8917,4.868,4.8041,4.7703,4.7462,4.7056,4.7293,4.7635,4.8007,4.7973,4.7906,4.7906,4.6786,4.5838,4.5737,0.0,4.5805,4.6549,4.7293,4.7669,4.7567,4.7665,4.7394,4.6515,4.5872,4.5534,4.5534,4.5026,4.5331,4.6583,4.6616,4.6684,4.6786,4.6684,4.6684,4.6786,4.6684,4.6684,4.6786,4.6786,4.638,4.5703,4.5703,4.5263,4.4615,4.4615,4.4987,4.5534,4.5669,4.6549,4.7736,4.7838,4.8376,4.9046,6.4478,6.4005,6.3632,6.3971,6.3125,6.2245,6.1873,6.1535,6.1011,6.0196,5.946,5.8841,5.849,5.8101,5.7712,5.734,5.6325,5.5547,5.5141,5.4093,5.3518,5.3518,5.3518,5.3518,5.3518,5.3518,5.3518,5.3518,5.3518,5.3518,5.3518,5.3518,5.3518,5.3518,5.3518,5.3518,5.3518,5.3518,5.3518,5.3518,5.3518,5.3518,5.3518,5.3518,5.3518,5.3518,5.3518,5.3518,5.3518,5.3518,5.3518,5.3518,5.3518,5.3247,5.2875,5.2435,5.1488,5.0473,4.9763,4.9289,4.9018,4.9018,4.9018,4.8917,4.8578,4.8176,4.7936,4.797,4.7936,4.8007,4.8443,4.8511,4.8376,4.7939,4.7022,0.0,0.0,4.5703,4.5838,4.6177,4.6853,4.7158,4.6752,4.709,4.6989,4.6244,4.6244,4.6278,4.6278,4.6346,4.6684,4.7361,4.7767,4.797,4.8003,4.7597,4.7597,4.797,4.7597,4.7597,4.797,4.8003,4.7597,4.6887,4.6887,4.6481,4.5766,4.5365,4.5635,4.6278,4.6278,4.6955,4.7939,4.8376,4.8744,4.9107,6.4241,6.3903,6.3531,6.3531,6.2888,6.2144,6.14,6.1129,6.0748,5.997,5.9196,5.871,5.8667,5.8209,5.7679,5.7103,5.6393,5.5649,5.4905,5.416,5.3687,5.3518,5.3518,5.3518,5.3518,5.3518,5.3518,5.3518,5.3518,5.3518,5.3518,5.3518,5.3518,5.3518,5.3518,5.3518,5.3518,5.3518,5.3518,5.3518,5.3518,5.3518,5.3518,5.3518,5.3518,5.3518,5.3518,5.3518,5.3518,5.3518,5.3518,5.3518,5.3518,5.3518,5.3348,5.2536,5.1251,5.0101,5.0101,4.9695,4.9221,4.9052,4.9018,4.9018,4.9018,4.8578,4.8342,4.8883,4.8545,4.8342,4.8917,4.8849,4.8612,4.824,0.0,0.0,0.0,4.594,4.5771,4.594,4.6616,4.6786,4.6041,4.6786,4.7022,4.6278,4.6752,4.7056,4.7056,4.7428,4.7703,4.7872,4.8612,4.9018,4.9018,4.8443,4.8443,4.8984,4.8443,4.8477,4.9018,4.9018,4.8612,4.7906,4.7906,4.7496,4.6752,4.6177,4.638,4.7056,4.7056,4.753,4.821,4.8815,4.9046,4.9168,6.3599,6.3565,6.3531,6.3531,6.2888,6.2144,6.14,6.0655,5.9911,5.9174,5.8426,5.7986,5.7954,5.7918,5.7881,5.7814,5.7137,5.6427,5.5683,5.4938,5.4194,5.3551,5.3518,5.3518,5.3518,5.3518,5.3518,5.3518,5.3518,5.3518,5.3518,5.3518,5.3518,5.3518,5.3518,5.3518,5.3518,5.3518,5.3518,5.3518,5.3518,5.3518,5.3518,5.3518,5.3518,5.3518,5.3518,5.3518,5.3518,5.3518,5.3518,5.3518,5.3518,5.3518,5.3348,5.2536,5.1251,5.0101,5.0101,5.0067,4.983,4.9187,4.9018,4.9018,4.9018,4.8951,4.8951,4.8984,4.8951,4.8951,4.8984,4.8443,4.8176,4.8815,0.0,0.0,4.7534,4.6583,4.594,4.6616,4.7394,4.753,4.6786,4.8003,4.8545,4.777,4.777,4.7804,4.7804,4.7225,4.7192,4.7872,4.8612,4.9018,4.9018,4.8951,4.8951,4.9018,4.8951,4.8951,4.9018,4.9018,4.8612,4.7906,4.7906,4.7496,4.6786,4.6718,4.7158,4.7804,4.7804,4.8274,4.8951,4.8984,4.9018,4.9015,6.2821,6.2821,6.2821,6.2821,6.2584,6.1975,6.0757,6.0283,5.9828,5.904,5.8307,5.8063,5.8493,5.8137,5.7712,5.7273,5.6968,5.6292,5.5108,5.4769,5.4262,5.3551,5.3518,5.3518,5.3518,5.3518,5.3518,5.3518,5.3518,5.3518,5.3518,5.3518,5.3518,5.3518,5.3518,5.3518,5.3518,5.3518,5.3518,5.3518,5.3518,5.3518,5.3518,5.3518,5.3518,5.3518,5.3518,5.3518,5.3518,5.3518,5.3518,5.3518,5.3518,5.3518,5.345,5.3145,5.2638,5.2097,5.1589,5.0473,4.9357,4.9086,4.9018,4.9018,4.9018,4.9018,4.9018,4.9018,4.9018,4.9018,4.9018,4.8781,4.868,4.8951,0.0,4.7229,4.7804,4.7428,4.7022,4.6819,4.7462,4.7631,4.6853,4.7733,4.8206,4.7906,4.8342,4.8578,4.8578,4.8308,4.8308,4.8578,4.8849,4.9018,4.9018,4.9018,4.9018,4.9018,4.9018,4.9018,4.9018,4.9018,4.8849,4.8578,4.8578,4.8409,4.8139,4.7665,4.7936,4.8545,4.8075,4.8376,4.9018,4.9018,4.9046,4.9138,6.2381,6.2381,6.2381,6.2381,6.2212,6.1603,6.0283,5.9911,5.9454,5.8665,5.8173,5.8065,5.8563,5.8173,5.7679,5.7171,5.7137,5.663,5.5378,5.4837,5.4262,5.3551,5.3518,5.3518,5.3518,5.3518,5.3518,5.3518,5.3518,5.3518,5.3518,5.3518,5.3518,5.3518,5.3518,5.3518,5.3518,5.3518,5.3518,5.3518,5.3518,5.3518,5.3518,5.3518,5.3518,5.3518,5.3518,5.3518,5.3518,5.3518,5.3518,5.3518,5.3518,5.3348,5.3112,5.3112,5.2976,5.2672,5.2097,5.0845,4.9661,4.939,4.9187,4.9018,4.9018,4.9018,4.9018,4.9018,4.9018,4.9018,4.9018,4.9018,4.9018,4.9018,4.8376,4.7973,4.821,4.7868,4.7462,4.7192,4.7597,4.7699,4.7192,4.7834,4.8274,4.8274,4.8714,4.9018,4.9018,4.9018,4.9018,4.9018,4.9018,4.9018,4.9018,4.9018,4.9018,4.9018,4.9018,4.9018,4.9018,4.9018,4.9018,4.9018,4.9018,4.9018,4.8951,4.8477,4.8545,4.8951,4.8443,4.8609,4.9046,4.9046,4.9338,4.963,6.2381,6.2381,6.2381,6.2381,6.1772,6.1028,6.0216,5.9471,5.8761,5.7983,5.7881,5.7881,5.7881,5.7881,5.7881,5.7881,5.7881,5.7577,5.6867,5.5412,5.4262,5.3551,5.3518,5.3518,5.3518,5.3518,5.3518,5.3518,5.3518,5.3518,5.3518,5.3518,5.3518,5.3518,5.3518,5.3518,5.3518,5.3518,5.3518,5.3518,5.3518,5.3518,5.3518,5.3518,5.3518,5.3518,5.3518,5.3518,5.3518,5.3518,5.3518,5.3518,5.3518,5.2942,5.23,5.23,5.1792,5.1219,5.1219,5.1185,5.1048,5.027,4.956,4.9018,4.9018,4.9018,4.9018,4.9018,4.9018,4.9018,4.9018,4.9018,4.9018,4.9018,4.8409,4.8173,4.8917,4.7733,4.709,4.7804,4.7906,4.7906,4.7906,4.8578,4.9018,4.9018,4.9018,4.9018,4.9018,4.9018,4.9018,4.9018,4.9018,4.9018,4.9018,4.9018,4.9018,4.9018,4.9018,4.9018,4.9018,4.9018,4.9018,4.9018,4.9018,4.9018,4.9018,4.9018,4.9018,4.9018,4.9018,4.9077,4.9199,4.9199,4.9797,5.0659,6.2381,6.2381,6.2381,6.2381,6.2212,6.1637,6.0283,5.9911,5.9336,5.8051,5.7881,5.7881,5.7881,5.7881,5.7881,5.7881,5.7881,5.7577,5.6867,5.5919,5.504,5.4296,5.3788,5.3518,5.3518,5.3518,5.3518,5.3518,5.3518,5.3518,5.3518,5.3518,5.3518,5.3518,5.3518,5.3518,5.3518,5.3518,5.3518,5.3518,5.3518,5.3518,5.3518,5.3518,5.3518,5.3518,5.3518,5.3518,5.3518,5.3518,5.3518,5.3518,5.3518,5.3348,5.3145,5.3145,5.301,5.2807,5.2807,5.2401,5.1657,5.0405,4.9932,4.9627,4.912,4.9018,4.9018,4.9018,4.9018,4.9018,4.9018,4.9018,4.9018,4.9018,4.8815,4.8748,4.8984,4.8612,4.8443,4.8646,4.868,4.868,4.868,4.8883,4.9018,4.9018,4.9018,4.9018,4.9018,4.9018,4.9018,4.9018,4.9018,4.9018,4.9018,4.9018,4.9018,4.9018,4.9018,4.9255,4.9763,4.9763,4.9763,4.9763,4.9763,4.9492,4.9018,4.9018,4.908,4.9138,4.9138,4.9566,5.0195,5.0195,5.0765,5.1569,6.2381,6.2381,6.2381,6.2381,6.2144,6.1637,6.0723,6.0317,5.9776,5.8896,5.8524,5.8431,5.8757,5.8233,5.8027,5.828,5.8029,5.7577,5.6867,5.6393,5.5818,5.5074,5.4329,5.3788,5.3518,5.3518,5.3518,5.3518,5.3518,5.3518,5.3518,5.3518,5.3518,5.3518,5.3518,5.3518,5.3518,5.3518,5.3518,5.3518,5.3518,5.3518,5.3518,5.3518,5.3518,5.3518,5.3518,5.3518,5.3518,5.3518,5.3518,5.3518,5.3518,5.3518,5.3518,5.3518,5.3518,5.3518,5.3518,5.3145,5.2401,5.0913,5.0304,4.9898,4.9187,4.9018,4.9018,4.9018,4.9018,4.9018,4.9018,4.9018,4.9018,4.9018,4.9018,4.9018,4.9018,4.9018,4.9018,4.9018,4.9018,4.9018,4.9018,4.9018,4.9018,4.9018,4.9255,4.9323,4.9018,4.9289,4.9424,4.9424,4.9424,4.9593,4.9864,4.9593,4.9289,4.9018,4.9018,4.9221,4.9661,4.9661,4.9661,4.9661,4.9661,4.939,4.8984,4.908,4.9107,4.9199,4.929,4.9919,5.072,5.072,5.1291,5.21,6.2279,6.2347,6.2381,6.2381,6.1839,6.1366,6.1332,6.0689,6.0182,6.0114,5.9471,5.9293,6.0011,5.8861,5.8241,5.8841,5.8315,5.7645,5.7036,5.6934,5.6562,5.575,5.5074,5.4329,5.3518,5.3518,5.3551,5.3585,5.3551,5.3518,5.3518,5.3518,5.3518,5.3518,5.3518,5.3518,5.3518,5.3518,5.3518,5.3518,5.3518,5.3518,5.3518,5.3518,5.3518,5.3518,5.3518,5.3518,5.3518,5.3518,5.3518,5.3518,5.3518,5.3518,5.3518,5.3518,5.3518,5.3518,5.3518,5.3518,5.3145,5.1691,5.0777,5.0067,4.9187,4.9018,4.9018,4.9018,4.9018,4.9018,4.9018,4.9018,4.9018,4.9018,4.9018,4.9018,4.9018,4.9018,4.9018,4.9018,4.9018,4.9018,4.9018,4.9052,4.912,4.9187,4.983,4.9898,4.9221,4.983,5.0202,5.0202,5.0202,5.0507,5.1185,5.0541,4.9864,4.9221,4.9221,4.9221,4.9289,4.9289,4.9255,4.9221,4.9255,4.9187,4.9018,4.9274,4.9369,4.9362,4.9581,5.0275,5.1111,5.1111,5.1649,5.2394,6.1535,6.2009,6.2381,6.2381,6.2245,6.1975,6.14,6.1163,6.0825,6.0182,5.9471,5.9293,6.0011,5.9268,5.8783,5.8875,5.8315,5.8084,5.8524,5.7983,5.707,5.5784,5.5547,5.4871,5.3551,5.3518,5.3788,5.4363,5.3788,5.3518,5.3518,5.3518,5.3518,5.3518,5.3518,5.3518,5.3518,5.3518,5.3518,5.3518,5.3518,5.3518,5.3518,5.3518,5.3518,5.3518,5.3518,5.3518,5.3518,5.3518,5.3518,5.3518,5.3518,5.3518,5.3518,5.3518,5.3518,5.3518,5.3518,5.3518,5.3281,5.23,5.1928,5.1319,4.9424,4.9018,4.9018,4.9018,4.9018,4.9018,4.9018,4.9018,4.9018,4.9018,4.9018,4.9018,4.9018,4.9018,4.9018,4.9018,4.9018,4.9018,4.9018,4.9526,5.0101,5.071,5.0879,5.0913,5.0744,5.0879,5.098,5.098,5.098,5.1048,5.1185,5.1048,5.0879,5.0744,5.0744,5.1048,5.1589,5.1589,5.1285,5.0777,5.1352,5.0608,4.9086,5.0302,5.0561,5.0363,5.0977,5.1912,5.2846,5.2846,5.298,5.3011,6.1806,6.2144,6.2381,6.2381,6.2381,6.2245,6.1873,6.2119,6.2176,6.1767,6.1087,6.0869,6.1523,6.0076,5.8976,5.8933,5.8948,5.9099,5.9505,5.8829,5.8084,5.734,5.6292,5.5513,5.5074,5.4397,5.4194,5.46,5.4194,5.4025,5.4025,5.3653,5.3518,5.3518,5.3518,5.3518,5.3518,5.3518,5.3518,5.3518,5.3518,5.3518,5.3518,5.3518,5.3518,5.3518,5.3518,5.3518,5.3518,5.3518,5.3518,5.3518,5.3518,5.3518,5.3518,5.3518,5.3518,5.3518,5.3518,5.3518,5.3315,5.2503,5.23,5.1894,5.0405,5.0067,5.0067,5.0067,5.0067,5.0067,5.0067,4.9763,4.9627,4.9999,4.9763,4.9661,4.9999,4.9763,4.9661,5.0033,4.9729,4.9661,5.0033,5.071,5.115,5.1185,5.1555,5.1589,5.1219,5.1555,5.1725,5.1725,5.1725,5.1928,5.23,5.1928,5.1928,5.23,5.1523,5.142,5.1792,5.1792,5.1589,5.1219,5.1623,5.1116,5.0101,5.1038,5.133,5.121,5.171,5.2547,5.3391,5.3391,5.3632,5.3701,6.2009,6.2212,6.2381,6.2381,6.2381,6.2381,6.2381,6.2905,6.3287,6.3287,6.2639,6.2404,6.3013,6.0842,5.9465,5.9763,5.9987,6.0148,6.0283,5.9607,5.9099,5.8829,5.707,5.6258,5.6596,5.5547,5.4905,5.4769,5.4769,5.4769,5.4769,5.416,5.3822,5.3687,5.3687,5.3619,5.3518,5.3518,5.3518,5.3518,5.3518,5.3518,5.3518,5.3518,5.3518,5.3518,5.3518,5.3518,5.3518,5.3518,5.3518,5.3518,5.3518,5.3518,5.3518,5.3518,5.3518,5.3518,5.3518,5.3518,5.3348,5.2672,5.2503,5.2334,5.1758,5.1388,5.1185,5.1185,5.1185,5.1185,5.1185,5.071,5.0473,5.1083,5.0676,5.0507,5.1083,5.0676,5.0507,5.115,5.0676,5.0574,5.1319,5.1961,5.2097,5.1657,5.2164,5.2232,5.1657,5.2164,5.2503,5.2503,5.2503,5.2841,5.3484,5.2841,5.2841,5.3484,5.2198,5.1589,5.1589,5.1589,5.1522,5.142,5.1523,5.1422,5.1217,5.1777,5.197,5.193,5.2348,5.295,5.3563,5.346,5.3804,5.4115,6.0554,6.1467,6.2381,6.2381,6.2381,6.2381,6.2381,6.2423,6.2458,6.2458,6.1779,6.1536,6.222,6.1389,6.1396,6.2766,6.1173,6.0385,6.1095,6.0385,5.937,5.8084,5.7746,5.7036,5.585,5.6292,5.619,5.5581,5.5581,5.5581,5.5547,5.548,5.5074,5.4431,5.4431,5.4093,5.3518,5.3518,5.3518,5.3518,5.3518,5.3518,5.3518,5.3518,5.3518,5.3518,5.3518,5.3518,5.3518,5.3518,5.3518,5.3518,5.3518,5.3518,5.3518,5.3518,5.3518,5.3518,5.3518,5.3518,5.3484,5.3382,5.3348,5.3315,5.3213,5.2164,5.1185,5.1185,5.1185,5.1185,5.1185,5.115,5.105,5.1151,5.115,5.1116,5.1217,5.1083,5.1116,5.1217,5.1116,5.1352,5.2097,5.2232,5.257,5.3145,5.3281,5.3281,5.3213,5.3281,5.3348,5.3348,5.3348,5.3382,5.3518,5.3382,5.3382,5.3518,5.3281,5.3179,5.3179,5.3179,5.2807,5.2198,5.2909,5.2435,5.1319,5.2671,5.3038,5.2785,5.3498,5.3999,5.4287,5.3632,5.346,5.3425,6.1366,6.1907,6.2381,6.2381,6.2381,6.2381,6.2381,6.3073,6.3589,6.3589,6.3612,6.376,6.401,6.3041,6.2333,6.2222,6.1688,6.1535,6.1873,6.1197,6.0283,5.9167,5.8727,5.7814,5.6359,5.7036,5.7036,5.6325,5.6325,5.6325,5.6292,5.548,5.4905,5.4566,5.416,5.3788,5.3518,5.3518,5.3518,5.3518,5.3518,5.3518,5.3518,5.3518,5.3518,5.3518,5.3518,5.3518,5.3518,5.3518,5.3518,5.3518,5.3518,5.3518,5.3518,5.3518,5.3518,5.3518,5.3518,5.3518,5.3518,5.3518,5.3518,5.3518,5.3518,5.2976,5.2503,5.2503,5.2503,5.2503,5.2503,5.2131,5.1961,5.2435,5.2131,5.1995,5.2435,5.2097,5.1826,5.1826,5.2232,5.2604,5.2942,5.2976,5.3112,5.3484,5.3518,5.3518,5.3518,5.3518,5.3518,5.3518,5.3518,5.3518,5.3518,5.3518,5.3518,5.3518,5.3518,5.3518,5.3518,5.3518,5.3315,5.2976,5.3348,5.3112,5.2536,5.3313,5.3514,5.3406,5.3909,5.4271,5.446,5.4149,5.4011,5.3977]}]]